     2              OBSERVATION DATA    GPS                 RINEX VERSION / TYPE
teqc 2002Apr3 20070406 16:16:50UTC                          PGM / RUN BY / DATE
                                                            COMMENT
L2: 1 -> 1; 150 -> 5; 250 -> 9                              COMMENT
L2: 1 -> 1; 150 -> 5; 250 -> 9                              COMMENT
L2: 1 -> 1; 150 -> 5; 250 -> 9                              COMMENT
L2: 1 -> 1; 150 -> 5; 250 -> 9                              COMMENT
L2: 1 -> 1; 150 -> 5; 250 -> 9                              COMMENT
Original Marker Name: MH28                                  COMMENT
Campaign Name: Painted Canyon Array                         COMMENT
4-Character Station Name: MH28                              COMMENT
6-Character Antenna Code: DMRCHT                            COMMENT
Vertical Measurement Point: BCR                             COMMENT
Vertical Offset to Rinex Ref. Point: 0.0348                 COMMENT
Radial Measurement Point: ECF                               COMMENT
Radial Offset to Rinex Ref. Point: 0.1897                   COMMENT
Antenna Height from Field Measurement: 1.2750 m             COMMENT
Additional Antenna Identification Info.:                    COMMENT
Turborogue and Ashtech Choke Ring                           COMMENT
Original XYZ: 0.0000 0.0000 0.0000                          COMMENT
New XYZ position is based on association with SCEC monument COMMENT
E1D0K9Y5+0281. Position of that monument is believed to be  COMMENT
valid to within 1 m horizontally; vertical accuracy         COMMENT
should be no worse than 3-times this value.                 COMMENT
                                                            COMMENT
Revised Rinex header created by UCSD GPS archive for        COMMENT
GSAC on 09-Jun-2007 (2007:160) 17:14:55 GMT                 COMMENT
For assistance contact dagnew@ucsd.edu                      COMMENT
or anderson@python.ucsd.edu                                 COMMENT
                                                            COMMENT
MH28                                                        MARKER NAME
-Unknown- SCRIPPS INSTITUTION OF OCEANOGRAPHY               OBSERVER / AGENCY
317 ASHTECH Z-XII3 CC00                                     REC # / TYPE / VERS
000 DORNE-MARGOL. TYPE T                                    ANT # / TYPE
 -2332861.0000 -4778521.0000  3510226.0000                  APPROX POSITION XYZ
        1.2260        0.0000        0.0000                  ANTENNA: DELTA H/E/N
     1     1     0                                          WAVELENGTH FACT L1/2
     7    C1    L1    L2    P1    P2    S1    S2            # / TYPES OF OBSERV
    30                                                      INTERVAL
  2007     2    18     0    30    5.000000                  TIME OF FIRST OBS
  2007     2    18     1    41   35.000000                  TIME OF LAST OBS
                                                            END OF HEADER
 07  2 18  0 30  5.0000000  0  8G22G21G 3G19G18G 1G14G 9
  21041049.5514      17407.44059     11872.82247  21041049.4454   21041051.2814
       243.0004        206.0004
  22816754.5344     155015.34459    107089.55945  22816754.7694   22816756.5734
       224.0004        162.0004
  22667029.4774      82743.01359     60420.53246  22667029.0924   22667034.0734
       230.0004        180.0004
  22697357.2664     -41779.47059    -29347.09246  22697355.6484   22697358.9744
       229.0004        185.0004
  22424153.3484      86768.26259     59370.37446  22424153.1324   22424156.0854
       232.0004        181.0004
                   -184682.24659   -124420.25943
       222.0004         74.0004
  20611558.3154     -54219.81959    -36631.24047  20611557.9854   20611561.4894
       237.0004        206.0004
                     66337.53659     43675.76445                  23475922.3034
       211.0004        132.0004
 07  2 18  0 30 10.0000000  0  8G22G21G 3G19G18G 1G14G 9
  21041346.1104      18963.12749     13085.04747  21041345.7594   21041347.5114
       243.0004        207.0004
  22819413.4314     168987.42849    117976.90446  22819413.0894   22819416.4874
       224.0004        163.0004
  22668372.3224      89799.88349     65919.39346  22668371.9534   22668376.4774
       229.0004        180.0004
  22696643.0654     -45529.08049    -32268.85946  22696642.5014   22696645.1614
       229.0004        186.0004
  22425624.7614      94497.55549     65393.20946  22425623.0444   22425626.3524
       232.0004        181.0004
                   -200849.91949   -137018.10643
       221.0004         74.0004
  20610536.2944     -59591.87549    -40817.25147  20610535.6334   20610539.1134
       237.0004        207.0004
                     72100.42549     48166.33245                  23477018.6524
       213.0004        138.0004
 07  2 18  0 30 15.0000000  0  8G22G21G 3G19G18G 1G14G 9
  21041642.4154      20521.92949     14299.69947  21041642.1344   21041644.2484
       243.0004        207.0004
  22822073.2584     182966.77449    128869.88946  22822073.5974   22822077.0474
       224.0004        164.0004
  22669716.9724      96866.98649     71426.22846  22669716.6124   22669721.7644
       229.0004        180.0004
  22695932.2634     -49264.66149    -35179.70146  22695931.0044   22695934.1734
       229.0004        186.0004
  22427094.2844     102228.47849     71417.30646  22427094.5164   22427097.7704
       232.0004        182.0004
                   -217011.33249   -149611.43944                  23246781.7124
       221.0004        116.0004
  20609516.1274     -64951.13549    -44993.29547  20609515.7094   20609519.2904
       237.0004        207.0004
                     77878.82049     52668.96345                  23478118.2124
       215.0004        141.0004
 07  2 18  0 30 20.0000000  0  8G22G21G 3G19G18G 1G14G 9
  21041939.7634      22082.99149     15516.11547  21041939.2894   21041941.0414
       243.0004        208.0004
  22824734.8894     196952.50049    139767.84846  22824733.7464   22824739.0584
       226.0004        164.0004
  22671063.7734     103943.57249     76940.44846  22671063.6694   22671068.8674
       229.0004        180.0004
  22695223.6914     -52987.04349    -38080.25546  22695222.7444   22695226.2214
       230.0004        186.0004
  22428566.6944     109960.18349     77442.01146  22428565.2074   22428569.2794
       232.0004        182.0004
                   -233167.30449   -162200.54345                  23243706.0084
       221.0004        138.0004
  20608498.8784     -70298.44449    -49160.02947  20608498.0944   20608501.8564
       236.0004        208.0004
  23479214.4804      83671.89549     57183.03945  23479215.0684   23479219.5524
       213.0004        144.0004
 07  2 18  0 30 25.0000000  0  8G22G21G 3G19G18G 1G14G 9
  21042237.3934      23647.27549     16735.03847  21042237.0424   21042238.8114
       243.0004        208.0004
  22827397.6584     210945.57749    150671.54146  22827397.2524   22827401.2194
       224.0004        164.0004
  22672412.3624     111030.55649     82462.77646  22672410.9964   22672417.2064
       229.0004        180.0004
  22694518.4074     -56695.26249    -40969.76846  22694517.1834   22694520.3544
       228.0004        186.0004
  22430037.4744     117693.59049     83468.04446  22430037.6684   22430040.6254
       231.0004        182.0004
                   -249316.90749   -174784.64245                  23240632.0444
       217.0004        147.0004
  20607483.5074     -75632.82249    -53316.68347  20607483.1764   20607486.6304
       237.0004        208.0004
  23480321.2074      89480.59049     61709.29845  23480321.3324   23480325.3624
       211.0004        145.0004
 07  2 18  0 30 30.0000000  0  8G22G21G 3G19G18G 1G14G 9
  21042535.5034      25214.40149     17956.19247  21042535.1264   21042537.2424
       242.0004        208.0004
  22830061.2494     224945.60749    161580.67146  22830062.0474   22830065.4974
       223.0004        164.0004
  22673762.6584     118127.59149     87992.93146  22673761.8614   22673767.3964
       230.0004        180.0004
  22693815.3744     -60389.73149    -43848.56846  22693814.2294   22693816.8224
       228.0004        187.0004
  22431510.1674     125428.37849     89495.13646  22431509.1394   22431512.9614
       233.0004        183.0004
                   -265460.51849   -187364.06745                  23237559.7654
       215.0004        151.0004
  20606470.8804     -80954.68749    -57463.58547  20606470.3574   20606473.9434
       236.0004        208.0004
  23481428.7294      95304.48849     66247.41745  23481428.4054   23481433.5194
       213.0004        146.0004
 07  2 18  0 30 35.0000000  0  8G22G21G 3G19G18G 1G14G 9
  21042834.4214      26784.16949     19179.35647  21042833.9894   21042835.7774
       243.0004        208.0004
  22832726.7124     238952.32849    172494.97146  22832726.4824   22832731.1564
       223.0004        165.0004
  22675114.6614     125234.37449     93530.67946  22675114.2854   22675119.7324
       230.0004        181.0004
  22693114.8404     -64070.65149    -46716.81246  22693114.0044   22693116.8354
       227.0004        186.0004
  22432981.8494     133164.30549     95523.14946  22432981.3004   22432984.4184
       233.0004        183.0004
                   -281598.31249   -199938.94345                  23234489.2944
       216.0004        153.0004
  20605460.8064     -86264.22749    -61600.88847  20605459.8474   20605463.4594
       237.0004        209.0004
  23482540.3974     101143.39949     70797.20845  23482539.4964   23482544.4734
       215.0004        148.0004
 07  2 18  0 30 40.0000000  0  8G22G21G 3G19G18G 1G14G 9
  21043133.7594      28356.86249     20404.84247  21043133.1224   21043135.1564
       242.0004        209.0004
  22835393.9354     252966.07549    183414.77746  22835393.1364   22835397.2794
       225.0004        166.0004
  22676468.5914     132351.21149     99076.26346  22676468.5974   22676474.1164
       227.0004        181.0004
  22692417.4144     -67737.70549    -49574.26846  22692416.4474   22692419.5954
       229.0004        186.0004
  22434453.9974     140901.71349    101552.29846  22434453.1914   22434457.2664
       231.0004        182.0004
  23231414.4564    -297729.95049   -212509.04245  23231412.6784   23231419.8104
       216.0004        154.0004
  20604452.3704     -91561.13249    -65728.34347  20604451.9454   20604455.5604
       237.0004        209.0004
  23483653.3344     106997.65749     75358.95145  23483653.5554   23483659.1364
       209.0004        149.0004
 07  2 18  0 30 45.0000000  0  8G22G21G 3G19G18G 1G14G 9
  21043433.3614      29933.26449     21633.20447  21043433.3044   21043435.2154
       242.0004        209.0004
  22838061.8674     266987.63849    194340.67046  22838062.6084   22838065.8864
       223.0004        166.0004
  22677824.8284     139478.78449    104630.23346  22677824.4394   22677830.7104
       230.0004        181.0004
  22691722.2374     -71390.18349    -52420.32646  22691720.7194   22691724.2414
       228.0004        186.0004
  22435927.3664     148641.26749    107583.12546  22435925.8624   22435930.3614
       233.0004        182.0004
  23228345.3204    -313854.74749   -225073.81145  23228345.6514   23228351.3324
       217.0004        155.0004
  20603447.1054     -96844.68349    -69845.39147  20603446.4414   20603450.2154
       236.0004        209.0004
  23484770.4514     112867.96549     79933.21945  23484770.1924   23484776.1004
       213.0004        149.0004
 07  2 18  0 30 50.0000000  0  8G22G21G 3G19G18G 1G14G 9
  21043733.8674      31513.36849     22864.46547  21043733.9664   21043735.5604
       243.0004        209.0004
  22840731.8164     281017.01649    205272.65246  22840731.6314   22840735.7234
       225.0004        166.0004
  22679183.3354     146617.22749    110192.64046  22679183.2484   22679188.4784
       227.0004        181.0004
  22691029.2824     -75027.98849    -55255.01246  22691028.5284   22691031.8914
       227.0004        186.0004
  22437401.0584     156382.97549    113615.61146  22437399.6414   22437403.1274
       233.0004        183.0004
  23225279.0224    -329972.59149   -237633.17745  23225278.5344   23225284.1394
       222.0004        158.0004
  20602444.2404    -102114.82449    -73951.99447  20602443.8154   20602447.2234
       236.0004        209.0004
  23485890.9514     118754.31849     84520.00145  23485890.7564   23485895.2464
       210.0004        149.0004
 07  2 18  0 30 55.0000000  0  8G22G21G 3G19G18G 1G14G 9
  21044035.0584      33095.95549     24097.64947  21044034.9884   21044036.9624
       243.0004        209.0004
  22843402.7684     295052.95249    216209.74546  22843402.3924   22843406.5134
       224.0004        166.0004
  22680543.6014     153765.16749    115762.45846  22680543.7364   22680549.3294
       227.0004        181.0004
  22690339.3864     -78652.37849    -58079.20246  22690339.1854   22690342.2074
       230.0004        186.0004
  22438874.6264     164125.66449    119648.88246  22438873.0614   22438876.8204
       231.0004        183.0004
  23222213.2024    -346084.76449   -250188.09745  23222212.3474   23222218.4374
       221.0004        160.0004
  20601443.7224    -107372.81649    -78049.12847  20601443.0784   20601446.7214
       237.0004        209.0004
  23487014.1654     124655.52149     89118.34445  23487014.2584   23487017.8834
       212.0004        149.0004
 07  2 18  0 31  0.0000000  0  8G22G21G 3G19G18G 1G14G 9
  21044336.8724      34681.81749     25333.38647  21044336.8794   21044338.7144
       245.0004        209.0004
  22846075.1854     309096.26149    227152.57646  22846074.9814   22846078.3564
       222.0004        166.0004
  22681905.8314     160923.53049    121340.40046  22681905.4844   22681911.3174
       229.0004        180.0004
  22689652.3284     -82262.56649    -60892.34046  22689651.7614   22689655.6774
       229.0004        186.0004
  22440348.3344     171870.17449    125683.56246  22440346.8714   22440350.5824
       233.0004        183.0004
  23219148.5554    -362190.43749   -262737.96445  23219147.7784   23219153.6914
       223.0004        162.0004
  20600445.6284    -112617.83449    -82136.15047  20600444.9494   20600448.8564
       238.0004        209.0004
  23488140.3434     130572.41449     93728.91345  23488140.1894   23488145.1174
       214.0004        149.0004
 07  2 18  0 31  5.0000000  0  8G22G21G 3G19G18G 1G14G 9
  21044639.2494      36270.82249     26571.57547  21044639.0104   21044641.1044
       245.0004        210.0004
  22848748.9024     323146.83249    238101.08146  22848748.0214   22848752.6634
       226.0004        166.0004
  22683270.0024     168092.04749    126926.24546  22683270.3794   22683274.8494
       231.0004        181.0004
  22688968.0214     -85858.62449    -63694.46846  22688967.9344   22688970.8594
       227.0004        186.0004
  22441822.2384     179616.29049    131719.51546  22441820.7114   22441824.4474
       231.0004        183.0004
  23216085.0274    -378289.74349   -275282.85545  23216083.3904   23216089.7994
       218.0004        162.0004
  20599449.9994    -117850.03749    -86213.18047  20599449.6084   20599453.0274
       236.0004        209.0004
  23489269.3714     136504.72549     98351.50545  23489269.4174   23489273.8964
       214.0004        150.0004
 07  2 18  0 31 10.0000000  0  8G22G21G 3G19G18G 1G14G 9
  21044942.3554      37863.58649     27812.69247  21044942.3104   21044943.9374
       243.0004        210.0004
  22851424.1034     337205.20349    249055.63746  22851423.3994   22851428.0874
       224.0004        167.0004
  22684636.2174     175271.33249    132520.50946  22684635.9934   22684641.5214
       227.0004        181.0004
  22688286.5464     -89439.99449    -66485.12346  22688285.7274   22688288.8304
       233.0004        185.0004
  22443296.6144     187364.69349    137757.22346  22443295.1504   22443299.3574
       232.0004        182.0004
  23213022.7274    -394382.10249   -287822.34645  23213021.0104   23213027.5624
       220.0004        162.0004
  20598456.9094    -123068.82649    -90279.77647  20598456.1864   20598459.5964
       237.0004        209.0004
  23490401.4024     142453.16549    102986.65145  23490401.1344   23490405.6314
       212.0004        150.0004
 07  2 18  0 31 15.0000000  0  8G22G21G 3G19G18G 1G14G 9
  20872075.1124    -870559.98249   -680049.83647  20872075.0834   20872076.8054
       243.0004        210.0004
  22680929.9784    -558747.23249   -449089.12346  22680929.7494   22680934.2514
       222.0004        167.0004
  22512833.5754    -727557.97249   -570982.85746  22512833.3004   22512839.1124
       228.0004        181.0004
  22514436.7124   -1003027.38549   -778371.40646  22514436.0504   22514439.3304
       230.0004        186.0004
  22271600.4954    -714904.01949   -565309.31446  22271598.5234   22271601.9654
       230.0004        182.0004
  23036790.3054   -1320489.58749  -1009464.54646  23036788.9134   23036794.5334
       220.0004        163.0004
  20424295.1424   -1038295.02549   -803443.04147  20424294.3354   20424298.0964
       237.0004        209.0004
  23318365.4854    -761601.88149   -601471.81545  23318363.8834   23318369.4664
       211.0004        148.0004
 07  2 18  0 31 20.0000000  0  8G22G21G 3G19G18G 1G14G 9
  20872527.9304    -868180.50049   -678195.68947  20872527.8304   20872529.7914
       245.0004        210.0004
  22683756.4374    -543894.01749   -437515.20546  22683755.9234   22683760.5434
       223.0004        167.0004
  22514352.1414    -719577.83049   -564764.56346  22514352.1384   22514357.6504
       228.0004        180.0004
  22513909.1524   -1005800.14949   -780531.99846  22513908.5354   22513911.6784
       230.0004        186.0004
  22273223.9834    -706371.90949   -558660.91046  22273222.4694   22273225.8014
       229.0004        182.0004
  23033878.9154   -1335788.70249  -1021385.91846  23033877.3594   23033884.0314
       221.0004        164.0004
  20423455.4484   -1042707.71249   -806881.49847  20423454.7664   20423458.5494
       238.0004        209.0004
  23319651.8304    -754841.99249   -596204.36745  23319652.2714   23319656.8654
       216.0004        148.0004
 07  2 18  0 31 25.0000000  0  8G22G21G 3G19G18G 1G14G 9
  20872981.5974    -865796.66849   -676338.15247  20872981.5964   20872983.3904
       244.0004        210.0004
  22686584.4804    -529032.36449   -425934.68746  22686584.1354   22686589.1844
       227.0004        167.0004
  22515872.8854    -711586.31549   -558537.41946  22515872.7164   22515877.6284
       229.0004        180.0004
  22513384.5334   -1008557.57849   -782680.65946  22513383.9894   22513387.1564
       231.0004        187.0004
  22274848.0274    -697836.89949   -552010.26946  22274846.5654   22274850.5764
       230.0004        181.0004
  23030968.9794   -1351080.19449  -1033301.34446  23030967.2134   23030974.0984
       220.0004        165.0004
  20422618.3834   -1047106.34549   -810308.99347  20422617.8064   20422621.2094
       237.0004        209.0004
  23320941.4594    -748065.42849   -590923.92645  23320942.2484   23320946.3424
       214.0004        147.0004
 07  2 18  0 31 30.0000000  0  8G22G21G 3G19G18G 1G14G 9
  20873436.0654    -863408.54949   -674477.27547  20873436.0814   20873437.8714
       245.0004        209.0004
  22689414.1754    -514162.34549   -414347.67446  22689413.5164   22689417.6524
       225.0004        168.0004
  22517395.7884    -703583.52849   -552301.48246  22517396.3514   22517401.2594
       230.0004        180.0004
  22512862.7984   -1011299.77649   -784817.43246  22512862.5004   22512865.0564
       230.0004        187.0004
  22276472.6334    -689299.09049   -545357.43146  22276471.0804   22276475.9034
       230.0004        181.0004
  23028060.4944   -1366364.15549  -1045210.91046  23028058.9574   23028065.8074
       222.0004        164.0004
  20421784.0144   -1051490.98049   -813725.58447  20421783.5134   20421787.0724
       237.0004        209.0004
  23322234.1844    -741272.29949   -585630.58545  23322235.2234   23322237.5954
       213.0004        148.0004
 07  2 18  0 31 35.0000000  0  8G22G21G 3G19G18G 1G14G 9
  20873891.3394    -861016.00849   -672612.95547  20873891.4364   20873893.2724
       243.0004        209.0004
  22692245.4584    -499283.87349   -402754.07346  22692246.1954   22692248.7374
       228.0004        168.0004
  22518920.8904    -695569.27649   -546056.61046  22518921.0354   22518926.0954
       229.0004        180.0004
  22512343.9624   -1014026.59649   -786942.22146  22512343.3794   22512346.7684
       230.0004        187.0004
  22278097.8464    -680758.35449   -538702.31446  22278096.7654   22278100.4344
       230.0004        180.0004
  23025153.4524   -1381640.40149  -1057114.47146  23025152.5894   23025158.1264
       219.0004        164.0004
  20420952.3184   -1055861.49749   -817131.18347  20420951.6194   20420955.4924
       235.0004        208.0004
  23323530.0774    -734462.42149   -580324.19545  23323530.3264   23323534.3434
       213.0004        148.0004
 07  2 18  0 31 40.0000000  0  8G22G21G 3G19G18G 1G14G 9
  20874347.4294    -858619.38749   -670745.45947  20874347.2704   20874349.2294
       243.0004        209.0004
  22695078.3144    -484397.31749   -391154.14246  22695078.7244   22695082.4944
       223.0004        168.0004
  22520448.1274    -687543.97349   -539803.12746  22520447.8484   22520453.1634
       229.0004        180.0004
  22511827.9584   -1016738.40649   -789055.31246  22511827.1364   22511830.1534
       229.0004        187.0004
  22279723.5374    -672215.06249   -532045.18246  22279722.5094   22279726.0744
       231.0004        180.0004
  23022247.8164   -1396909.32649  -1069012.34646  23022247.0304   23022252.3534
       222.0004        165.0004
  20420123.2304   -1060218.25949   -820526.06547  20420122.5434   20420126.5924
       237.0004        208.0004
  23324829.1224    -727636.13349   -575005.00745  23324828.8474   23324833.7274
       214.0004        148.0004
 07  2 18  0 31 45.0000000  0  8G22G21G 3G19G18G 1G14G 9
  20874804.3414    -856218.25149   -668874.44547  20874804.3344   20874806.0364
       244.0004        209.0004
  22697912.8434    -469502.17149   -379547.54146  22697912.0324   22697917.5854
       222.0004        168.0004
  22521977.5424    -679507.11449   -533540.63846  22521977.5394   22521982.6324
       229.0004        180.0004
  22511314.9124   -1019434.74149   -791156.34846  22511314.0424   22511317.4574
       229.0004        187.0004
  22281349.8084    -663668.72449   -525385.70346  22281349.0634   22281352.9114
       231.0004        181.0004
  23019343.7104   -1412170.39149  -1080904.07846  23019342.4914   23019348.4824
       221.0004        165.0004
  20419296.8984   -1064560.75349   -823909.82147  20419296.2254   20419300.0494
       237.0004        209.0004
  23326131.3874    -720792.94849   -569672.63945  23326130.9064   23326136.5084
       212.0004        149.0004
 07  2 18  0 31 50.0000000  0  8G22G21G 3G19G18G 1G14G 9
  20875262.0684    -853812.91649   -667000.15647  20875261.7874   20875263.7944
       243.0004        209.0004
  22700748.8964    -454598.76249   -367934.50046  22700748.4594   22700753.6494
       222.0004        167.0004
  22523509.1034    -671459.07249   -527269.44446  22523508.7894   22523514.1094
       228.0004        180.0004
  22510804.7334   -1022115.87849   -793245.53846  22510803.8254   22510806.9204
       229.0004        187.0004
  22282976.6254    -655119.68049   -518724.10146  22282975.6174   22282979.4144
       231.0004        181.0004
  23016440.9974   -1427423.96749  -1092789.97046  23016439.6004   23016446.8624
       220.0004        166.0004
  20418473.1684   -1068889.35549   -827282.75447  20418472.6064   20418476.3434
       237.0004        209.0004
  23327436.7724    -713933.21549   -564327.38845  23327436.2624   23327441.4344
       213.0004        149.0004
 07  2 18  0 31 55.0000000  0  8G22G21G 3G19G18G 1G14G 9
  20875720.6014    -851403.34949   -665122.56947  20875720.4994   20875722.3094
       244.0004        209.0004
  22703586.4874    -439687.07649   -356315.01646  22703586.0844   22703589.6474
       221.0004        167.0004
  22525042.7434    -663399.83249   -520989.51746  22525042.6474   22525048.2724
       229.0004        180.0004
  22510297.4574   -1024781.80949   -795322.88946  22510296.8164   22510300.4644
       230.0004        187.0004
  22284603.9504    -646567.89049   -512060.36746  22284603.4604   22284606.6094
       231.0004        181.0004
  23013539.7364   -1442669.99949  -1104669.97446  23013538.1194   23013545.0814
       221.0004        166.0004
  20417652.1254   -1073204.04449   -830644.84647  20417651.5644   20417655.1874
       237.0004        209.0004
  23328745.2834    -707056.95249   -558969.24945  23328745.2464   23328749.6254
       213.0004        149.0004
 07  2 18  0 32  0.0000000  0  8G22G21G 3G19G18G 1G14G 9
  20876179.9404    -848989.46649   -663241.62147  20876179.6624   20876181.5584
       244.0004        209.0004
  22706425.6394    -424767.05149   -344689.02546  22706424.8794   22706428.2664
       221.0004        166.0004
  22526578.5534    -655329.29249   -514700.78546  22526577.8554   22526583.4194
       228.0004        180.0004
  22509793.0884   -1027432.43849   -797388.30546  22509791.9954   22509795.3714
       229.0004        187.0004
  22286231.8454    -638013.26649   -505394.43446  22286231.3334   22286234.4804
       231.0004        181.0004
  23010639.9524   -1457908.38749  -1116544.03946  23010639.0964   23010645.3324
       222.0004        167.0004
  20416833.7364   -1077504.70549   -833996.00747  20416833.1314   20416836.6994
       237.0004        209.0004
  23330056.9454    -700164.04849   -553598.16545  23330056.8984   23330061.2824
       213.0004        150.0004
 07  2 18  0 32  5.0000000  0  8G22G21G 3G19G18G 1G14G 9
  20876640.1364    -846571.13349   -661357.20347  20876640.1434   20876641.7594
       244.0004        209.0004
  22709266.4064    -409838.59249   -333056.45546  22709266.2224   22709270.4334
       223.0004        166.0004
  22528116.5134    -647247.34049   -508403.15946  22528116.4794   22528121.1834
       229.0004        180.0004
  22509291.6254   -1030067.67449   -799441.73146  22509290.6824   22509293.9474
       228.0004        187.0004
  22287860.2824    -629455.66049   -498726.17146  22287859.2664   22287863.0334
       231.0004        182.0004
  23007741.6294   -1473138.99949  -1128412.04446  23007741.0024   23007747.0874
       221.0004        167.0004
  20416018.0364   -1081791.24249   -837336.16447  20416017.6054   20416021.2624
       237.0004        209.0004
  23331371.8244    -693254.37949   -548214.00645  23331371.0684   23331376.0174
       213.0004        150.0004
 07  2 18  0 32 10.0000000  0  8G22G21G 3G19G18G 1G14G 9
  20877101.1744    -844148.45349   -659469.40047  20877100.9844   20877102.8804
       243.0004        209.0004
  22712108.7444    -394901.88549   -321417.46146  22712108.3154   22712112.5644
       222.0004        166.0004
  22529656.6004    -639154.19549   -502096.81646  22529656.3334   22529662.0914
       229.0004        179.0004
  22508793.0664   -1032687.71149   -801483.32246  22508792.4874   22508795.8214
       228.0004        187.0004
  22289489.2744    -620895.26549   -492055.73146  22289488.6384   22289492.2614
       230.0004        182.0004
  23004844.7484   -1488362.04249  -1140274.14346  23004844.1684   23004850.0704
       221.0004        167.0004
  20415204.9794   -1086063.86749   -840665.47747  20415204.4484   20415207.8774
       237.0004        210.0004
  23332689.8644    -686328.19449   -542816.98245  23332689.1054   23332694.5824
       211.0004        150.0004
 07  2 18  0 32 15.0000000  0  8G22G21G 3G19G18G 1G14G 9
  20877563.0034    -841721.47949   -657578.25447  20877562.9044   20877564.6484
       243.0004        209.0004
  22714952.7174    -379956.84549   -309771.98046  22714951.6064   22714957.0374
       221.0004        166.0004
  22531198.8524    -631049.74349   -495781.66446  22531198.4964   22531203.4304
       229.0004        179.0004
  22508297.4174   -1035292.46449   -803512.99646  22508296.4214   22508300.0694
       229.0004        187.0004
  22291118.7964    -612332.05049   -485383.09646  22291118.1304   22291121.1874
       231.0004        182.0004
  23001949.3094   -1503577.44749  -1152130.29346  23001948.3234   23001955.0204
       221.0004        167.0004
  20414394.6034   -1090322.48549   -843983.87747  20414394.0794   20414397.6234
       237.0004        210.0004
  23334010.9874    -679385.39649   -537407.00245  23334010.5614   23334015.4924
       210.0004        150.0004
 07  2 18  0 32 20.0000000  0  8G22G21G 3G19G18G 1G14G 9
  20878025.6944    -839290.16149   -655683.71547  20878025.6944   20878027.4554
       244.0004        209.0004
  22717798.2424    -365003.46849   -298120.02246  22717797.8964   22717802.2314
       223.0004        165.0004
  22532743.2374    -622934.07449   -489457.76746  22532743.1174   22532748.0184
       228.0004        179.0004
  22507804.6734   -1037881.91149   -805530.74346  22507803.6524   22507806.6914
       229.0004        187.0004
  22292748.8494    -603766.00249   -478708.23946  22292748.1624   22292751.7114
       231.0004        182.0004
  22999055.3384   -1518785.14449  -1163980.42846  22999054.5464   22999060.9394
       222.0004        168.0004
  20413586.8974   -1094567.04549   -847291.32447  20413586.4084   20413589.8684
       237.0004        210.0004
  23335335.2874    -672425.96049   -531984.06545  23335334.4744   23335339.8624
       209.0004        150.0004
 07  2 18  0 32 25.0000000  0  8G22G21G 3G19G18G 1G14G 9
  20878489.1904    -836854.43849   -653785.75047  20878488.9934   20878490.8434
       243.0004        209.0004
  22720645.4114    -350041.72249   -286461.51046  22720645.4744   22720648.6964
       224.0004        165.0004
  22534289.7224    -614807.15049   -483125.10346  22534289.4164   22534294.7834
       228.0004        179.0004
  22507314.8174   -1040456.01049   -807536.53147  22507313.7914   22507317.2084
       229.0004        188.0004
  22294379.4564    -595197.05149   -472031.14346  22294378.8534   22294381.7694
       230.0004        181.0004
  22996162.8744   -1533985.09349  -1175824.53846  22996162.1484   22996168.5234
       222.0004        168.0004
  20412781.8564   -1098797.51849   -850587.79247  20412781.1664   20412784.8464
       237.0004        210.0004
  23336662.7374    -665449.86849   -526548.14545  23336661.1764   23336667.7474
       208.0004        150.0004
 07  2 18  0 32 30.0000000  0  8G22G21G 3G19G18G 1G14G 9
  20878953.5254    -834414.38349   -651884.40447  20878953.2814   20878955.2234
       243.0004        209.0004
  22723494.1384    -335071.64949   -274796.51446  22723493.5634   22723498.0624
       223.0004        165.0004
  22535838.3664    -606669.01349   -476783.68846  22535838.7734   22535843.6584
       228.0004        179.0004
  22506827.9334   -1043014.76649   -809530.36647  22506827.0484   22506830.1114
       230.0004        188.0004
  22296010.5864    -586625.24849   -465351.81146  22296009.8744   22296013.3634
       231.0004        181.0004
  22993271.8524   -1549177.33849  -1187662.63946  22993271.2504   22993277.3684
       222.0004        168.0004
  20411979.5104   -1103013.92749   -853873.30247  20411978.8914   20411982.4304
       238.0004        210.0004
  23337993.3384    -658457.12849   -521099.26245  23337991.1754   23337997.8344
       207.0004        149.0004
 07  2 18  0 32 35.0000000  0  8G22G21G 3G19G18G 1G14G 9
  20879418.6734    -831970.05349   -649979.73447  20879418.5894   20879420.2214
       243.0004        209.0004
  22726344.4594    -320093.31249   -263125.09046  22726343.7504   22726347.8854
       221.0004        165.0004
  22537389.1224    -598519.69749   -470433.57746  22537389.0604   22537394.0764
       228.0004        179.0004
  22506343.9144   -1045558.25649   -811512.30947  22506342.8534   22506346.2664
       228.0004        188.0004
  22297642.2744    -578050.59749   -458670.27146  22297641.8844   22297644.7734
       231.0004        181.0004
  22990382.3464   -1564361.87049  -1199494.74346  22990381.6404   22990387.5874
       222.0004        168.0004
  20411179.7944   -1107216.34349   -857147.90847  20411179.4944   20411182.7324
       236.0004        210.0004
  23339327.1074    -651447.81149   -515637.45645  23339325.0714   23339331.6424
       208.0004        149.0004
 07  2 18  0 32 40.0000000  0  8G22G21G 3G19G18G 1G14G 9
  20879884.6394    -829521.39849   -648071.68847  20879884.4674   20879886.3314
       243.0004        209.0004
  22729196.3524    -305106.59349   -251447.12346  22729195.8554   22729199.9674
       223.0004        164.0004
  22538942.0164    -590359.07249   -464074.65746  22538942.1954   22538947.2864
       229.0004        179.0004
  22505862.8274   -1048086.43849   -813482.31647  22505861.8664   22505865.2664
       230.0004        188.0004
  22299274.5404    -569473.07049   -451986.47446  22299274.0444   22299277.0344
       231.0004        181.0004
  22987494.2934   -1579538.64849  -1211320.80446  22987493.7694   22987499.9664
       221.0004        168.0004
  20410382.7704   -1111404.71549   -860411.57147  20410382.2564   20410385.7814
       236.0004        210.0004
  23340664.0254    -644421.82449   -510162.66645  23340662.7454   23340667.6344
       212.0004        149.0004
 07  2 18  0 32 45.0000000  0  8G22G21G 3G19G18G 1G14G 9
  20880351.4184    -827068.47549   -646160.31647  20880351.5434   20880352.8934
       244.0004        209.0004
  22732049.7964    -290111.61349   -239762.73246  22732049.2804   22732053.8454
       221.0004        164.0004
  22540497.0884    -582187.23349   -457706.98946  22540497.3084   22540502.0164
       229.0004        179.0004
  22505384.6404   -1050599.30649   -815440.38247  22505383.3074   22505387.0694
       228.0004        188.0004
  22300907.3254    -560892.70849   -445300.47446  22300906.4444   22300909.6824
       230.0004        181.0004
  22984607.7034   -1594707.74549  -1223140.86046  22984607.0684   22984612.8364
       223.0004        169.0004
  20409588.4204   -1115579.10449   -863664.33847  20409588.0164   20409591.3054
       237.0004        210.0004
  23342004.1404    -637379.24949   -504674.95545  23342003.2074   23342009.5254
       209.0004        149.0004
 07  2 18  0 32 50.0000000  0  8G22G21G 3G19G18G 1G14G 9
  20880819.0074    -824611.26549   -644245.60547  20880818.8904   20880820.8584
       243.0004        209.0004
  22734904.8034    -275108.38949   -228071.91846  22734903.8744   22734909.0524
       222.0004        164.0004
  22542054.2384    -574004.27049   -451330.65646  22542054.1014   22542059.1074
       229.0004        179.0004
  22504909.3404   -1053096.93649   -817386.59047  22504908.6464   22504911.4134
       230.0004        188.0004
  22302540.6224    -552309.55949   -438612.31246  22302540.0734   22302543.8834
       231.0004        182.0004
  22981722.5974   -1609869.13749  -1234954.92746  22981721.8654   22981727.1014
       222.0004        169.0004
  20408796.7174   -1119739.53249   -866906.22947  20408796.1744   20408799.6214
       237.0004        210.0004
  23343347.4344    -630320.17049   -499174.37645  23343346.7874   23343352.0414
       210.0004        149.0004
 07  2 18  0 32 55.0000000  0  8G22G21G 3G19G18G 1G14G 9
  20881287.4404    -822149.75649   -642327.54847  20881287.3464   20881289.1684
       244.0004        209.0004
  22737761.3964    -260096.93149   -216374.68246  22737760.8664   22737766.1294
       223.0004        164.0004
  22543613.5284    -565810.20549   -444945.66846  22543613.4114   22543618.7134
       229.0004        179.0004
  22504436.9494   -1055579.32949   -819320.92547  22504436.1434   22504439.3604
       229.0004        188.0004
  22304174.4924    -543723.56949   -431921.92746  22304173.6124   22304177.7434
       230.0004        182.0004
  22978838.9474   -1625022.84649  -1246763.00346  22978838.1914   22978844.5164
       221.0004        169.0004
  20408007.6914   -1123885.99149   -870137.23047  20408007.2414   20408010.6854
       237.0004        210.0004
  23344693.8414    -623244.50649   -493660.87345  23344692.7364   23344698.6174
       208.0004        149.0004
 07  2 18  0 33  0.0000000  0  8G22G21G 3G19G18G 1G14G 9
  20881756.6874    -819683.92349   -640406.11447  20881756.5214   20881758.3744
       244.0004        209.0004
  22740619.5444    -245077.17549   -204670.97846  22740618.2784   22740622.4554
       222.0004        164.0004
  22545174.9644    -557604.90649   -438551.93546  22545174.9104   22545179.6224
       229.0004        179.0004
  22503967.4934   -1058046.37449   -821243.29547  22503966.4284   22503969.5484
       229.0004        188.0004
  22305808.8804    -535134.71749   -425229.31046  22305808.2304   22305812.0284
       231.0004        182.0004
  22975956.7664   -1640168.79249  -1258565.02546  22975955.4174   22975962.6614
       222.0004        169.0004
  20407221.3284   -1128018.38049   -873357.27247  20407220.8854   20407224.3134
       237.0004        210.0004
  23346043.4244    -616152.24749   -488134.43345  23346042.3714   23346047.1414
       212.0004        149.0004
 07  2 18  0 33  5.0000000  0  8G22G21G 3G19G18G 1G14G 9
  20882226.7594    -817213.63449   -638481.21447  20882226.5654   20882228.5874
       243.0004        209.0004
  22743479.3264    -230049.04949   -192960.76046  22743479.6174   22743481.9394
       223.0004        163.0004
  22546738.5274    -549388.43549   -432149.49146  22546738.4184   22546743.8794
       228.0004        180.0004
  22503500.9754   -1060497.99849   -823153.65147  22503499.9814   22503503.6134
       229.0004        188.0004
  22307443.8064    -526542.92949   -418534.41846  22307442.8794   22307446.8314
       229.0004        182.0004
  22973076.0804   -1655306.87949  -1270360.93046  22973075.9104   22973081.7634
       223.0004        169.0004
  20406437.6574   -1132136.66249   -876566.31847  20406437.2874   20406440.7314
       237.0004        210.0004
  23347396.2094    -609043.23249   -482594.93945  23347394.9454   23347400.4104
       211.0004        149.0004
 07  2 18  0 33 10.0000000  0  8G22G21G 3G19G18G 1G14G 9
  20882697.6624    -814739.15249   -636553.04447  20882697.4494   20882699.1894
       243.0004        209.0004
  22746340.6334    -215012.77049   -181244.17546  22746341.0164   22746344.5714
       224.0004        163.0004
  22548304.1924    -541160.93949   -425738.45346  22548303.8444   22548308.9334
       229.0004        180.0004
  22503037.3534   -1062934.43349   -825052.17247  22503036.2624   22503039.5794
       229.0004        188.0004
  22309079.2794    -517948.40749   -411837.39646  22309078.8464   22309082.0794
       230.0004        182.0004
  22970196.8614   -1670437.30849  -1282150.86946  22970196.0144   22970201.7214
       222.0004        169.0004
  20405656.6064   -1136241.02949   -879764.52147  20405656.2984   20405659.3144
       236.0004        210.0004
  23348752.1424    -601917.79549   -477042.64845  23348751.5064   23348756.4704
       210.0004        149.0004
 07  2 18  0 33 15.0000000  0  8G22G21G 3G19G18G 1G14G 9
  20883169.3404    -812260.40849   -634621.55447  20883169.0534   20883171.1594
       243.0004        209.0004
  22749203.5364    -199968.26649   -169521.17546  22749203.5544   22749206.1844
       222.0004        163.0004
  22549871.9634    -532922.35849   -419318.78446  22549871.5794   22549876.9814
       228.0004        180.0004
  22502576.6184   -1065355.58749   -826938.78447  22502575.6614   22502578.7544
       228.0004        188.0004
  22310715.2744    -509351.10849   -405138.19346  22310714.5144   22310718.6584
       230.0004        182.0004
  22967319.1144   -1685560.02549  -1293934.79246  22967318.8764   22967324.4644
       221.0004        169.0004
  20404878.2354   -1140331.43349   -882951.84547  20404877.6774   20404881.1494
       237.0004        210.0004
  23350111.2204    -594775.83149   -471477.47945  23350111.2444   23350115.2384
       212.0004        149.0004
 07  2 18  0 33 20.0000000  0  8G22G21G 3G19G18G 1G14G 9
  20883641.8584    -809777.33549   -632686.69347  20883641.7364   20883643.4064
       243.0004        209.0004
  22752068.0204    -184915.47249   -157791.73446  22752067.7414   22752072.7144
       220.0004        163.0004
  22551441.8374    -524672.65549   -412890.44546  22551441.1724   22551446.4094
       229.0004        180.0004
  22502118.8184   -1067761.43049   -828813.46447  22502117.7584   22502121.4884
       228.0004        188.0004
  22312351.7884    -500750.96949   -398436.79046  22312351.3214   22312354.4354
       231.0004        181.0004
  22964442.8274   -1700674.95749  -1305712.65646  22964441.8884   22964448.0964
       221.0004        169.0004
  20404102.5294   -1144407.81349   -886128.24447  20404102.0844   20404105.5254
       237.0004        210.0004
  23351473.4274    -587617.33949   -465899.43345  23351472.9024   23351478.7704
       211.0004        149.0004
 07  2 18  0 33 25.0000000  0  8G22G21G 3G19G18G 1G14G 9
  20884115.1894    -807289.97949   -630748.49147  20884114.9284   20884116.7814
       243.0004        209.0004
  22754934.0444    -169854.43149   -146055.86246  22754933.5174   22754938.0724
       221.0004        163.0004
  22553013.7754    -516411.96149   -406453.54046  22553013.9434   22553018.4734
       228.0004        180.0004
  22501663.8884   -1070151.96949   -830676.22347  22501663.0934   22501666.4644
       229.0004        188.0004
  22313988.8684    -492148.01249   -391733.18646  22313987.9484   22313991.6224
       229.0004        181.0004
  22961568.0414   -1715782.16449  -1317484.48546  22961567.7474   22961573.3574
       223.0004        169.0004
  20403329.5034   -1148470.20249   -889293.74047  20403329.1294   20403332.4034
       237.0004        210.0004
  23352838.8044    -580442.31349   -460308.52145  23352838.6664   23352843.5574
       215.0004        149.0004
 07  2 18  0 33 30.0000000  0  8G22G21G 3G19G18G 1G14G 9
  20884589.3504    -804798.26149   -628806.89147  20884589.4404   20884590.9694
       243.0004        209.0004
  22757801.6654    -154785.11049   -134313.53446  22757801.3324   22757804.6114
       222.0004        163.0004
  22554587.8644    -508140.08449   -400007.92846  22554587.7644   22554592.8204
       229.0004        180.0004
  22501211.9024   -1072527.17649   -832527.03147  22501210.9164   22501214.1744
       228.0004        188.0004
  22315626.5104    -483542.16149   -385027.33146  22315625.9544   22315629.5194
       230.0004        181.0004
  22958694.7354   -1730881.51949  -1329250.22346  22958694.0274   22958699.9774
       223.0004        169.0004
  20402559.1184   -1152518.53249   -892448.27847  20402558.6634   20402562.1094
       238.0004        210.0004
  23354207.3634    -573250.73149   -454704.68345  23354208.2384   23354211.6194
       214.0004        150.0004
 07  2 18  0 33 35.0000000  0  8G22G21G 3G19G18G 1G14G 9
  20885064.2834    -802302.40749   -626862.06747  20885064.1014   20885066.0224
       243.0004        209.0004
  22760670.8074    -139707.69749   -122564.91746  22760670.1664   22760675.4444
       221.0004        163.0004
  22556164.0464    -499857.36849   -393553.86846  22556163.7734   22556168.7134
       229.0004        180.0004
  22500762.8054   -1074887.22949   -834366.02547  22500762.0674   22500765.7654
       229.0004        188.0004
  22317264.6304    -474933.65749   -378319.39246  22317263.9304   22317267.4394
       230.0004        181.0004
  22955822.8844   -1745973.26749  -1341010.00646  22955822.0454   22955827.9984
       222.0004        169.0004
  20401791.3764   -1156553.02949   -895592.03647  20401790.8644   20401794.3244
       237.0004        210.0004
  23355579.0654    -566042.73849   -449088.05445  23355579.1894   23355583.1544
       216.0004        151.0004
 07  2 18  0 33 40.0000000  0  8G22G21G 3G19G18G 1G14G 9
  20885540.0714    -799802.10749   -624913.77947  20885539.9324   20885541.7434
       243.0004        209.0004
  22763541.5534    -124621.95049   -110809.79346  22763541.4884   22763546.0334
       223.0004        163.0004
  22557742.3314    -491563.35549   -387091.00346  22557742.5104   22557747.4604
       229.0004        180.0004
  22500316.6154   -1077231.84249   -836193.00047  22500316.1254   22500318.8154
       229.0004        188.0004
  22318903.3454    -466322.16349   -371609.14746  22318902.8954   22318906.3144
       231.0004        181.0004
  22952952.5334   -1761057.10549  -1352763.64146  22952952.0424   22952957.6734
       221.0004        169.0004
  20401026.3324   -1160573.40049   -898724.79247  20401025.8544   20401029.3624
       237.0004        210.0004
  23356953.9164    -558818.08849   -443458.45645  23356953.7974   23356958.3674
       217.0004        152.0004
 07  2 18  0 33 45.0000000  0  8G22G21G 3G19G18G 1G14G 9
  20886016.6774    -797297.52249   -622962.15047  20886016.6324   20886018.4444
       244.0004        209.0004
  22766413.8584    -109527.98849    -99048.25446  22766413.2304   22766417.3784
       220.0004        163.0004
  22559322.7644    -483258.28949   -380619.51946  22559322.9564   22559327.2354
       229.0004        180.0004
  22499873.4024   -1079561.15849   -838008.04447  22499872.7024   22499875.5934
       229.0004        188.0004
  22320542.5974    -457707.83749   -364896.68146  22320541.7704   22320545.8164
       230.0004        181.0004
  22950083.7024   -1776133.12649  -1364511.18846  22950082.9984   22950088.6804
       222.0004        169.0004
  20400263.9414   -1164579.77849   -901846.64047  20400263.3324   20400266.7234
       237.0004        210.0004
  23358331.9064    -551576.93049   -437815.99345  23358331.7034   23358336.7014
       215.0004        152.0004
 07  2 18  0 33 50.0000000  0  8G22G21G 3G19G18G 1G14G 9
  20886494.0594    -794788.96649   -621007.42747  20886493.9014   20886496.0134
       243.0004        209.0004
  22769287.6784     -94426.09049    -87280.55446  22769287.0114   22769291.8774
       219.0004        163.0004
  22560905.2374    -474942.43449   -374139.62846  22560904.9904   22560910.0034
       228.0004        180.0004
  22499433.0174   -1081875.46949   -839811.40247  22499432.2174   22499435.3504
       229.0004        188.0004
  22322182.3264    -449090.94849   -358182.21946  22322181.8454   22322184.9914
       229.0004        181.0004
  22947216.2464   -1791201.64749  -1376252.88046  22947215.8734   22947221.2314
       221.0004        169.0004
  20399504.1674   -1168572.42849   -904957.79147  20399503.6574   20399507.0224
       237.0004        210.0004
  23359712.9364    -544319.62149   -432160.94345  23359713.4474   23359717.6104
       216.0004        153.0004
 07  2 18  0 33 55.0000000  0  8G22G21G 3G19G18G 1G14G 9
  20886972.3054    -792275.82549   -619049.13447  20886972.0404   20886973.9864
       243.0004        209.0004
  22772163.1014     -79315.70749    -75506.25346  22772162.5604   22772166.6994
       222.0004        163.0004
  22562489.8454    -466615.24249   -367650.91146  22562489.1544   22562494.8434
       229.0004        180.0004
  22498995.6124   -1084174.14049   -841602.57047  22498994.2204   22498998.2484
       229.0004        188.0004
  22323822.6734    -440470.90749   -351465.29946  22323821.9204   22323825.7354
       231.0004        181.0004
  22944350.3614   -1806262.04849  -1387988.25446  22944349.7674   22944355.1634
       223.0004        169.0004
  20398747.1344   -1172550.77249   -908057.80047  20398746.8014   20398750.1564
       238.0004        210.0004
  23361097.1954    -537045.49749   -426492.79345  23361098.4584   23361102.1314
       218.0004        153.0004
 07  2 18  0 34  0.0000000  0  8G22G21G 3G19G18G 1G14G 9
  20887451.3274    -789758.57749   -617087.63947  20887451.3184   20887453.0314
       244.0004        209.0004
  22775040.0244     -64197.35249    -63725.70646  22775040.2384   22775043.4864
       221.0004        163.0004
  22564076.5344    -458277.24849   -361153.78046  22564076.2554   22564080.8404
       229.0004        180.0004
  22498561.0504   -1086457.75349   -843382.00847  22498560.2114   22498563.2064
       229.0004        188.0004
  22325463.5134    -431848.27549   -344746.36346  22325462.8044   22325466.5824
       231.0004        181.0004
  22941485.8834   -1821314.86449  -1399717.70946  22941485.3404   22941491.2524
       222.0004        169.0004
  20397992.6834   -1176515.36149   -911147.08347  20397992.1644   20397995.4684
       237.0004        210.0004
  23362484.5354    -529755.12849   -420811.98045  23362485.3584   23362489.8234
       215.0004        153.0004
 07  2 18  0 34  5.0000000  0  8G22G21G 3G19G18G 1G14G 9
  20887931.1744    -787236.90349   -615122.69947  20887931.0464   20887932.8814
       244.0004        209.0004
  22777918.5544     -49070.64849    -51938.66146  22777918.4854   22777921.7694
       222.0004        163.0004
  22565665.3244    -449928.11149   -354647.96146  22565665.0354   22565669.8074
       229.0004        180.0004
  22498129.4134   -1088725.89049   -845149.38747  22498128.2404   22498131.9114
       229.0004        188.0004
  22327104.9094    -423222.67549   -338025.12146  22327104.6174   22327108.1944
       230.0004        181.0004
  22938622.9374   -1836359.69249  -1411440.93746  22938623.0424   22938629.4174
       222.0004        169.0004
  20397240.9624   -1180465.79149   -914225.33947  20397240.3744   20397243.8344
       237.0004        210.0004
  23363875.0584    -522448.13749   -415118.22445  23363875.9754   23363879.0444
       217.0004        154.0004
 07  2 18  0 34 10.0000000  0  8G22G21G 3G19G18G 1G14G 9
  20888411.8664    -784710.96749   -613154.43747  20888411.7334   20888413.4924
       243.0004        209.0004
  22780798.6274     -33935.80949    -40145.27746  22780798.0824   22780802.0694
       220.0004        163.0004
  22567256.1944    -441568.05449   -348133.63646  22567256.0044   22567261.2624
       229.0004        180.0004
  22497700.7024   -1090978.79449   -846904.89647  22497699.9864   22497703.3094
       229.0004        188.0004
  22328746.8544    -414594.25249   -331301.67246  22328746.3414   22328749.9244
       229.0004        180.0004
  22935761.4894   -1851396.70849  -1423158.09046  22935760.1144   22935766.8864
       222.0004        169.0004
  20396491.8724   -1184402.26149   -917292.71247  20396491.4634   20396494.7964
       237.0004        210.0004
  23365268.7104    -515124.69949   -409411.64745  23365268.7514   23365273.3264
       217.0004        154.0004
 07  2 18  0 34 15.0000000  0  8G22G21G 3G19G18G 1G14G 9
  20888893.3554    -782180.80649   -611182.87847  20888893.2604   20888895.0724
       243.0004        209.0004
  22783680.2214     -18792.85949    -28345.57046  22783679.1774   22783683.7974
       220.0004        163.0004
  22568849.1414    -433197.10449   -341610.81046  22568849.1914   22568853.3864
       229.0004        180.0004
  22497274.8854   -1093216.45549   -848648.52247  22497274.1614   22497277.1884
       229.0004        188.0004
  22330389.3194    -405963.05949   -324576.06446  22330388.7544   22330391.8484
       230.0004        180.0004
  22932901.5264   -1866425.95449  -1434869.18346  22932900.9634   22932906.6444
       224.0004        170.0004
  20395745.4254   -1188324.79849   -920349.23047  20395744.8604   20395748.4434
       237.0004        210.0004
  23366665.4484    -507784.80949   -403692.24345  23366665.2144   23366669.9554
       217.0004        154.0004
 07  2 18  0 34 20.0000000  0  8G22G21G 3G19G18G 1G14G 9
  20889375.6564    -779646.30449   -609207.94347  20889375.5064   20889377.1434
       243.0004        209.0004
  22786563.3854      -3641.69449    -16539.49146  22786562.2814   22786566.8024
       218.0004        163.0004
  22570444.1934    -424815.09549   -335079.37846  22570443.8774   22570449.2904
       230.0004        180.0004
  22496852.0094   -1095438.75149   -850380.18647  22496851.2144   22496854.5224
       229.0004        188.0004
  22332032.3284    -397328.98549   -317848.22346  22332031.9464   22332034.8984
       230.0004        180.0004
  22930043.0154   -1881447.32749  -1446574.13746  22930042.5624   22930047.7344
       222.0004        170.0004
  20395001.6504   -1192233.28849   -923394.80247  20395001.1054   20395004.5064
       237.0004        210.0004
  23368065.3524    -500428.38249   -397959.95945  23368064.9154   23368069.0864
       218.0004        154.0004
 07  2 18  0 34 25.0000000  0  8G22G21G 3G19G18G 1G14G 9
  20889858.7564    -777107.56849   -607229.70747  20889858.6224   20889860.4034
       243.0004        209.0004
  22789448.0904      11517.55649     -4727.09246  22789447.7544   22789451.8434
       220.0004        163.0004
  22572041.3134    -416422.22149   -328539.47446  22572041.4114   22572046.2604
       230.0004        180.0004
  22496432.0144   -1097645.81249   -852099.97647  22496431.0854   22496434.8764
       229.0004        188.0004
  22333675.8664    -388692.14349   -311118.21346  22333675.5884   22333679.0234
       231.0004        180.0004
  22927186.0304   -1896460.88049  -1458273.01146  22927185.0604   22927191.7594
       222.0004        169.0004
  20394260.5744   -1196127.83749   -926429.51747  20394260.0484   20394263.5164
       237.0004        210.0004
  23369468.3614    -493055.57649   -392214.90645  23369468.1844   23369471.8384
       216.0004        153.0004
 07  2 18  0 34 30.0000000  0  8G22G21G 3G19G18G 1G14G 9
  20890342.7224    -774564.38949   -605248.00347  20890342.5474   20890344.3924
       243.0004        209.0004
  22792334.3244      26685.00149      7091.68246  22792334.3054   22792338.0694
       221.0004        163.0004
  22573640.5504    -408018.34049   -321990.99846  22573640.4744   22573645.5914
       229.0004        180.0004
  22496014.9704   -1099837.53749   -853807.80247  22496014.1044   22496017.5704
       229.0004        188.0004
  22335319.9894    -380052.42949   -304385.95846  22335319.2604   22335322.7924
       230.0004        180.0004
  22924330.5534   -1911466.53249  -1469965.70246  22924329.9274   22924335.7534
       222.0004        169.0004
  20393522.1114   -1200008.35749   -929453.29347  20393521.5994   20393525.0724
       237.0004        210.0004
  23370874.5234    -485666.23449   -386456.97645  23370875.2004   23370878.9404
       216.0004        154.0004
 07  2 18  0 34 35.0000000  0  8G22G21G 3G19G18G 1G14G 9
  20890827.4944    -772016.92949   -603262.97047  20890827.1914   20890829.0994
       244.0004        209.0004
  22795222.1474      41860.58549     18916.81646  22795220.9474   22795225.8104
       221.0004        163.0004
  22575241.8544    -399603.44749   -315433.94446  22575241.3664   22575246.6774
       230.0004        180.0004
  22495600.8054   -1102013.94049   -855503.70147  22495600.1804   22495603.0984
       229.0004        188.0004
  22336964.6054    -371409.91249   -297651.54346  22336963.8324   22336967.2204
       230.0004        180.0004
  22921476.5214   -1926464.30849  -1481652.27846  22921475.1834   22921482.0864
       224.0004        169.0004
  20392786.3474   -1203874.87649   -932466.16047  20392785.8784   20392789.2754
       236.0004        210.0004
  23372283.7954    -478260.43549   -380686.21445  23372283.9844   23372288.5014
       217.0004        154.0004
 07  2 18  0 34 40.0000000  0  8G22G21G 3G19G18G 1G14G 9
  20891313.0784    -769465.20149   -601274.60947  20891313.1854   20891314.5644
       244.0004        209.0004
  22798111.5334      57044.37749     30748.33946  22798111.5764   22798115.3464
       220.0004        163.0004
  22576845.2384    -391177.66149   -308868.40146  22576845.0754   22576850.1674
       230.0004        180.0004
  22495189.5624   -1104175.00749   -857187.64747  22495188.7454   22495192.4074
       230.0004        188.0004
  22338609.7724    -362764.51049   -290914.85946  22338609.1834   22338612.8324
       229.0004        180.0004
  22918624.0384   -1941454.17249  -1493332.69046  22918623.7674   22918629.4214
       221.0004        169.0004
  20392053.2324   -1207727.38349   -935468.11247  20392052.7664   20392056.2834
       237.0004        210.0004
  23373696.2154    -470838.15449   -374902.61845  23373696.4574   23373701.0284
       217.0004        154.0004
 07  2 18  0 34 45.0000000  0  8G22G21G 3G19G18G 1G14G 9
  20891799.4724    -766909.22649   -599282.94047  20891799.4184   20891801.0394
       243.0004        209.0004
  22801002.4474      72236.26349     42586.17146  22801002.0554   22801006.2434
       220.0004        163.0004
  22578450.7014    -382741.02749   -302294.40246  22578450.5844   22578455.6594
       229.0004        180.0004
  22494781.2554   -1106320.79849   -858859.69247  22494780.5474   22494783.8564
       230.0004        188.0004
  22340255.4434    -354116.30849   -284176.00246  22340255.5534   22340258.6184
       231.0004        180.0004
  22915773.0084   -1956436.19749  -1505006.98746  22915772.0214   22915778.9524
       223.0004        170.0004
  20391322.7974   -1211565.97049   -938459.21447  20391322.2314   20391325.7854
       237.0004        210.0004
  23375111.7714    -463399.44049   -369106.21545  23375111.3274   23375116.2264
       216.0004        154.0004
 07  2 18  0 34 50.0000000  0  8G22G21G 3G19G18G 1G14G 9
  20892286.6934    -764348.78949   -597287.79347  20892286.4014   20892288.2644
       243.0004        209.0004
  22803894.9344      87436.44549     54430.45846  22803894.8724   22803898.6454
       220.0004        163.0004
  22580058.2754    -374293.28449   -295711.75446  22580058.4614   22580062.7664
       229.0004        180.0004
  22494375.8874   -1108451.12049   -860519.68147  22494375.0184   22494377.8394
       230.0004        189.0004
  22341901.7204    -345465.08249   -277434.78546  22341901.2044   22341904.6304
       230.0004        180.0004
  22912923.5684   -1971410.13149  -1516674.97546  22912923.7534   22912928.7944
       224.0004        170.0004
  20390595.0304   -1215390.37549   -941439.26847  20390594.5754   20390598.0284
       237.0004        210.0004
  23376530.5164    -455944.10149   -363296.86445  23376530.4554   23376534.5994
       217.0004        154.0004
 07  2 18  0 34 55.0000000  0  8G22G21G 3G19G18G 1G14G 9
  20892774.7124    -761784.26249   -595289.45647  20892774.6134   20892776.3674
       243.0004        209.0004
  22806788.9484     102644.57649     66280.95046  22806788.2294   22806794.0504
       220.0004        163.0004
  22581667.8774    -365834.77649   -289120.70346  22581667.4474   22581672.6354
       230.0004        180.0004
  22493973.4094   -1110566.28149   -862167.85947  22493972.3974   22493975.7164
       229.0004        189.0004
  22343548.5064    -336811.15549   -270691.46646  22343548.2334   22343551.4344
       231.0004        180.0004
  22910075.5624   -1986376.32949  -1528336.93946  22910074.6154   22910081.6524
       224.0004        170.0004
  20389869.8844   -1219200.93949   -944408.53547  20389869.3474   20389872.9964
       237.0004        210.0004
  23377952.3394    -448472.43249   -357474.79745  23377952.1904   23377956.6934
       218.0004        154.0004
 07  2 18  0 35  0.0000000  0  8G22G21G 3G19G18G 1G14G 9
  20893263.5524    -759215.51549   -593287.83447  20893263.3654   20893265.2324
       243.0004        209.0004
  22809684.4944     117860.77249     78137.71946  22809683.9244   22809689.1694
       220.0004        164.0004
  22583279.5284    -357365.51549   -282521.27646  22583279.2814   22583284.7894
       229.0004        180.0004
  22493573.8234   -1112666.19749   -863804.15547  22493572.8344   22493575.8224
       230.0004        189.0004
  22345195.8524    -328154.48649   -263946.00046  22345195.5334   22345198.7504
       229.0004        180.0004
  22907229.0724   -2001334.69349  -1539992.81446  22907227.8464   22907234.4054
       224.0004        170.0004
  20389147.4064   -1222997.56749   -947366.94347  20389146.6974   20389150.4824
       237.0004        210.0004
  23379377.2634    -440984.42449   -351639.99045  23379377.9434   23379381.2374
       216.0004        154.0004
 07  2 18  0 35  5.0000000  0  8G22G21G 3G19G18G 1G14G 9
  20893753.2034    -756642.29749   -591282.72747  20893752.9864   20893754.8564
       243.0004        209.0004
  22812581.6364     133085.29449     90000.96946  22812580.1294   22812585.1664
       218.0004        163.0004
  22584893.2954    -348885.15649   -275913.21546  22584893.7534   22584898.4384
       229.0004        180.0004
  22493177.1964   -1114750.58949   -865428.35047  22493176.1184   22493179.4474
       229.0004        188.0004
  22346843.7434    -319494.77349   -257198.18546  22346843.2824   22346846.5924
       231.0004        180.0004
  22904384.1204   -2016284.92749  -1551642.33346  22904383.8954   22904389.1924
       224.0004        170.0004
  20388427.6254   -1226779.99849   -950314.29047  20388427.1364   20388430.5904
       236.0004        210.0004
  23380805.3454    -433479.79649   -345792.21745  23380805.9754   23380809.6704
       216.0004        153.0004
 07  2 18  0 35 10.0000000  0  8G22G21G 3G19G18G 1G14G 9
  20894243.6604    -754064.99549   -589274.43647  20894243.2664   20894245.2384
       243.0004        209.0004
  22815480.2364     148317.71249    101870.37646  22815479.3924   22815483.3694
       220.0004        163.0004
  22586509.1354    -340394.03849   -269296.75946  22586509.2754   22586513.9914
       230.0004        180.0004
  22492783.4144   -1116819.88849   -867040.79047  22492782.7314   22492785.7604
       228.0004        188.0004
  22348492.1454    -310832.45249   -250448.31946  22348491.3914   22348495.2134
       230.0004        180.0004
  22901540.6264   -2031227.46449  -1563285.85346  22901539.9744   22901545.8684
       223.0004        169.0004
  20387710.4744   -1230548.64849   -953250.89647  20387709.9424   20387713.4394
       237.0004        210.0004
  23382236.5234    -425958.90349   -339931.76245  23382236.6744   23382239.7994
       217.0004        153.0004
 07  2 18  0 35 15.0000000  0  8G22G21G 3G19G18G 1G14G 9
  20894734.9424    -751483.31849   -587262.74047  20894734.6864   20894736.7184
       243.0004        209.0004
  22818380.4344     163558.36249    113746.21846  22818380.1244   22818383.6154
       219.0004        163.0004
  22588127.0454    -331891.89949   -262671.71546  22588126.6854   22588132.4044
       228.0004        180.0004
  22492392.5524   -1118873.73249   -868641.18247  22492391.5614   22492394.6184
       230.0004        188.0004
  22350141.0984    -302167.19449   -243696.18446  22350140.7604   22350143.1184
       231.0004        180.0004
  22898698.6954   -2046161.93949  -1574923.09846  22898698.6614   22898703.8134
       223.0004        169.0004
  20386995.9904   -1234303.22049   -956176.53147  20386995.4474   20386998.9874
       237.0004        210.0004
  23383670.8424    -418421.49549   -334058.45745  23383670.8524   23383675.7464
       215.0004        153.0004
 07  2 18  0 35 20.0000000  0  8G22G21G 3G19G18G 1G14G 9
  20895227.0244    -748897.41149   -585247.74247  20895226.9454   20895228.7834
       243.0004        209.0004
  22821282.1674     178807.05449    125628.30846  22821281.2464   22821285.5074
       219.0004        163.0004
  22589747.0014    -323379.03849   -256038.31846  22589746.5844   22589751.9644
       228.0004        180.0004
  22492004.6104   -1120912.32549   -870229.69947  22492003.5704   22492006.3694
       230.0004        188.0004
  22351790.5984    -293499.16649   -236941.86146  22351789.9784   22351793.6564
       230.0004        180.0004
  22895858.2594   -2061088.51149  -1586554.18246  22895857.4684   22895863.5924
       226.0004        169.0004
  20386284.1584   -1238043.85149   -959091.30647  20386283.7094   20386287.3464
       237.0004        210.0004
  23385108.2954    -410867.71649   -328172.39445  23385108.2664   23385112.6474
       214.0004        153.0004
 07  2 18  0 35 25.0000000  0  8G22G21G 3G19G18G 1G14G 9
  20895719.9084    -746307.28949   -583229.46447  20895719.7144   20895721.3844
       243.0004        209.0004
  22824185.3994     194063.71749    137516.60946  22824184.4364   22824190.2324
       220.0004        163.0004
  22591368.9704    -314855.48049   -249396.58546  22591369.0314   22591373.7204
       229.0004        180.0004
  22491619.5904   -1122935.71549   -871806.37047  22491618.7564   22491622.1124
       230.0004        188.0004
  22353440.6044    -284828.35049   -230185.39446  22353439.7964   22353443.1814
       229.0004        180.0004
  22893019.3084   -2076007.23949  -1598179.16546  22893018.1634   22893024.1794
       225.0004        169.0004
  20385574.9974   -1241770.57249   -961995.24147  20385574.4904   20385577.9454
       237.0004        210.0004
  23386548.8504    -403297.64449   -322273.63745  23386548.7394   23386553.3164
       218.0004        153.0004
 07  2 18  0 35 30.0000000  0  8G22G21G 3G19G18G 1G14G 9
  20896213.5974    -743712.81149   -581207.79347  20896213.2934   20896215.1044
       243.0004        209.0004
  22827090.1774     209328.53349    149411.26645  22827089.4554   22827094.2354
       220.0004        162.0004
  22592993.0034    -306320.97349   -242746.32746  22592992.6174   22592997.8614
       229.0004        180.0004
  22491237.4864   -1124943.68449   -873371.02147  22491236.9414   22491239.3814
       230.0004        188.0004
  22355091.1424    -276154.62849   -223426.63646  22355090.5434   22355093.9504
       229.0004        180.0004
  22890181.9034   -2090917.93149  -1609797.87046  22890180.7784   22890187.1224
       224.0004        170.0004
  20384868.4914   -1245483.32449   -964888.29047  20384867.9404   20384871.5124
       236.0004        210.0004
  23387992.5464    -395711.13649   -316362.06645  23387991.7904   23387996.6864
       214.0004        153.0004
 07  2 18  0 35 35.0000000  0  8G22G21G 3G19G18G 1G14G 9
  20896708.1334    -741114.06649   -579182.79347  20896707.9804   20896709.6684
       243.0004        209.0004
  22829996.5304     224601.42149    161312.21245  22829996.0934   22829999.8354
       221.0004        162.0004
  22594619.1154    -297775.64949   -236087.63046  22594618.4214   22594623.8814
       230.0004        180.0004
  22490858.3074   -1126936.34449   -874923.73847  22490857.6134   22490860.3914
       230.0004        188.0004
  22356742.2234    -267478.07149   -216665.69346  22356741.8004   22356744.9274
       230.0004        180.0004
  22887346.0104   -2105820.64449  -1621410.36846  22887345.3114   22887351.9004
       226.0004        170.0004
  20384164.6444   -1249182.07449   -967770.43147  20384164.2074   20384167.7054
       237.0004        210.0004
  23389439.3204    -388108.19749   -310437.69945  23389439.1284   23389443.3584
       216.0004        153.0004
 07  2 18  0 35 40.0000000  0  8G22G21G 3G19G18G 1G14G 9
  20897203.5214    -738510.83449   -577154.29947  20897203.4774   20897205.0484
       243.0004        209.0004
  22832904.4444     239882.58849    173219.60845  22832904.1694   22832907.9664
       220.0004        162.0004
  22596247.3314    -289219.28949   -229420.34246  22596247.1344   22596251.5714
       229.0004        180.0004
  22490482.0554   -1128913.49749   -876464.37947  22490481.2844   22490484.5564
       229.0004        188.0004
  22358393.8894    -258798.48749   -209902.36546  22358392.9974   22358397.2284
       230.0004        180.0004
  22884511.6804   -2120715.22549  -1633016.51646  22884510.9534   22884516.9814
       226.0004        170.0004
  20383463.4734   -1252866.64249   -970641.52047  20383463.0224   20383466.5214
       237.0004        210.0004
  23390889.2284    -380488.74149   -304500.45345  23390889.1944   23390894.2034
       214.0004        154.0004
 07  2 18  0 35 45.0000000  0  8G22G21G 3G19G18G 1G14G 9
  20897699.6474    -735903.68949   -575122.75547  20897699.4244   20897701.3054
       243.0004        209.0004
  22835813.8324     255171.47949    185133.02545  22835813.4454   22835818.1384
       220.0004        162.0004
  22597877.5384    -280652.51549   -222744.93846  22597877.4654   22597882.2094
       229.0004        180.0004
  22490108.6874   -1130875.66549   -877993.33247  22490107.5034   22490110.6624
       229.0004        188.0004
  22360046.0404    -250116.39549   -203137.10946  22360045.8724   22360048.6624
       229.0004        180.0004
  22881678.7894   -2135602.13349  -1644616.70446  22881678.3344   22881683.7204
       226.0004        170.0004
  20382764.9114   -1256537.58249   -973501.98847  20382764.2664   20382767.8114
       236.0004        210.0004
  23392342.1904    -372853.18649   -298550.67245  23392341.7494   23392346.6604
       217.0004        154.0004
 07  2 18  0 35 50.0000000  0  8G22G21G 3G19G18G 1G14G 9
  20898196.6044    -733292.04549   -573087.70647  20898196.4204   20898198.1344
       243.0004        209.0004
  22838724.8124     270468.61349    197052.86245  22838724.7904   22838729.2624
       221.0004        162.0004
  22599509.8414    -272074.79849   -216060.99746  22599509.3554   22599514.5544
       228.0004        180.0004
  22489738.2484   -1132822.32649   -879510.20847  22489737.4394   22489740.4924
       230.0004        188.0004
  22361698.7424    -241431.28949   -196369.49446  22361698.2984   22361701.2814
       230.0004        180.0004
  22878847.4814   -2150480.87549  -1656210.52046  22878847.3944   22878852.5004
       225.0004        170.0004
  20382069.0634   -1260194.34149   -976351.41147  20382068.6574   20382071.9484
       236.0004        210.0004
  23393798.3574    -365201.03949   -292587.97045  23393798.7704   23393802.8544
       216.0004        154.0004
 07  2 18  0 35 55.0000000  0  8G22G21G 3G19G18G 1G14G 9
  20898694.3864    -730676.20249   -571049.38447  20898694.2554   20898696.0974
       243.0004        209.0004
  22841637.3014     285773.73949    208978.93245  22841636.5844   22841641.3454
       219.0004        162.0004
  22601144.1384    -263486.42549   -209368.75846  22601143.7944   22601149.3324
       229.0004        180.0004
  22489370.7224   -1134753.75849   -881015.22547  22489370.0134   22489373.0354
       230.0004        188.0004
  22363351.9884    -232743.43949   -189599.73846  22363351.5944   22363354.9304
       229.0004        180.0004
  22876017.6444   -2165351.68349  -1667798.15746  22876017.0234   22876023.4254
       225.0004        170.0004
  20381375.8454   -1263837.17449   -979189.97647  20381375.3574   20381378.9304
       237.0004        210.0004
  23395257.5864    -357532.63749   -286612.59045  23395257.5004   23395262.4594
       215.0004        154.0004
 07  2 18  0 36  0.0000000  0  8G22G21G 3G19G18G 1G14G 9
  20899192.9924    -728056.01049   -569007.67247  20899192.7504   20899194.6734
       243.0004        209.0004
  22844551.3254     301086.97849    220911.31745  22844550.3574   22844555.5354
       220.0004        162.0004
  22602780.4914    -254887.27649   -202668.12646  22602780.2414   22602785.3294
       229.0004        180.0004
  22489006.0994   -1136669.81549   -882508.25247  22489005.4364   22489008.2054
       231.0004        188.0004
  22365005.8024    -224052.67049   -182827.70846  22365005.4894   22365008.8154
       231.0004        180.0004
  22873189.3624   -2180214.45749  -1679379.52346  22873188.8114   22873194.8744
       226.0004        170.0004
  20380685.3054   -1267465.95749   -982017.59647  20380684.6964   20380688.3334
       237.0004        210.0004
  23396719.9594    -349847.83549   -280624.43145  23396720.2784   23396724.8734
       216.0004        153.0004
 07  2 18  0 36  5.0000000  0  8G22G21G 3G19G18G 1G14G 9
  20899692.3994    -725431.63749   -566962.70247  20899692.0544   20899694.1024
       243.0004        209.0004
  22847466.8264     316408.14949    232849.88845  22847466.7084   22847470.6584
       220.0004        162.0004
  22604418.8984    -246277.49149   -195959.20146  22604418.6974   22604424.1654
       229.0004        179.0004
  22488644.4274   -1138570.61649   -883989.39147  22488643.5264   22488645.9614
       229.0004        188.0004
  22366660.1574    -215359.16449   -176053.54746  22366659.5944   22366663.1004
       230.0004        180.0004
  22870362.5514   -2195069.27649  -1690954.70746  22870362.9074   22870367.9964
       227.0004        170.0004
  20379997.4024   -1271080.86049   -984834.39947  20379996.7924   20380000.2094
       237.0004        210.0004
  23398185.4474    -342146.72449   -274623.55245  23398185.2434   23398189.9784
       216.0004        153.0004
 07  2 18  0 36 10.0000000  0  8G22G21G 3G19G18G 1G14G 9
  20900192.6034    -722802.98449   -564914.40147  20900192.5284   20900194.2864
       243.0004        209.0004
  22850383.8914     331737.35449    244794.72245  22850383.5694   22850388.7714
       219.0004        162.0004
  22606059.3284    -237656.98249   -189241.92346  22606059.2514   22606064.2054
       229.0004        179.0004
  22488285.6294   -1140456.10849   -885458.60347  22488284.3154   22488287.7114
       229.0004        188.0004
  22368315.0364    -206662.81349   -169277.17746  22368314.5384   22368317.5504
       230.0004        180.0004
  22867537.3284   -2209916.10549  -1702523.66346  22867536.4944   22867542.8794
       224.0004        171.0004
  20379312.1874   -1274681.77649   -987640.30647  20379311.8264   20379315.2114
       236.0004        210.0004
  23399654.0194    -334429.25349   -268609.93745  23399653.2974   23399659.0954
       216.0004        153.0004
 07  2 18  0 36 15.0000000  0  8G22G21G 3G19G18G 1G14G 9
  20900693.6444    -720170.03949   -562862.75647  20900693.3914   20900695.2134
       243.0004        209.0004
  22853302.4594     347074.60049    256745.82145  22853301.8384   22853306.4934
       219.0004        162.0004
  22607701.8284    -229025.71249   -182516.25946  22607701.2444   22607706.9204
       229.0004        179.0004
  22487929.7504   -1142326.26149   -886915.86347  22487928.3414   22487931.9044
       230.0004        188.0004
  22369970.4414    -197963.66149   -162498.60946  22369969.7524   22369973.2654
       230.0004        180.0004
  22864713.6144   -2224754.88149  -1714086.33246  22864712.8994   22864718.6304
       225.0004        171.0004
  20378629.6044   -1278268.70849   -990435.31347  20378629.1094   20378632.6724
       236.0004        210.0004
  23401125.7334    -326695.41649   -262583.57245  23401125.5784   23401129.9164
       216.0004        153.0004
 07  2 18  0 36 20.0000000  0  8G22G21G 3G19G18G 1G14G 9
  20901195.4844    -717532.91149   -560807.84947  20901195.3044   20901197.1994
       243.0004        209.0004
  22856222.5544     362419.81449    268703.12145  22856221.7574   22856226.4064
       218.0004        161.0004
  22609346.3664    -220383.75549   -175782.27746  22609346.2654   22609351.3934
       229.0004        179.0004
  22487576.7694   -1144181.17949   -888361.25647  22487576.1454   22487579.4304
       230.0004        188.0004
  22371626.3714    -189261.71749   -155717.88846  22371626.5554   22371629.3984
       232.0004        180.0004
  22861891.3834   -2239585.71349  -1725642.81946  22861890.8924   22861896.4684
       225.0004        171.0004
  20377949.6614   -1281841.77949   -993219.52247  20377949.1194   20377952.7854
       237.0004        210.0004
  23402600.5174    -318945.32849   -256544.54345  23402601.0364   23402604.9934
       217.0004        153.0004
 07  2 18  0 36 25.0000000  0  8G22G21G 3G19G18G 1G14G 9
  20901698.1434    -714891.40149   -558749.52947  20901697.9364   20901699.5934
       244.0004        209.0004
  22859144.1924     377773.11949    280666.73145  22859143.3244   22859147.9074
       220.0004        161.0004
  22610992.9494    -211730.94749   -169039.82446  22610992.7554   22610997.7784
       229.0004        179.0004
  22487226.7164   -1146020.68549   -889794.64047  22487225.8974   22487229.0974
       230.0004        188.0004
  22373282.8744    -180556.81849   -148934.83746  22373281.5894   22373285.2854
       230.0004        180.0004
  22859070.7354   -2254408.40349  -1737192.96146  22859070.2954   22859076.5414
       226.0004        171.0004
  20377272.3984   -1285400.78249   -995992.76647  20377271.8584   20377275.5044
       236.0004        210.0004
  23404078.4624    -311178.77449   -250492.67445  23404077.7844   23404083.2744
       215.0004        153.0004
 07  2 18  0 36 30.0000000  0  8G22G21G 3G19G18G 1G14G 9
  20902201.5914    -712245.70549   -556687.94247  20902201.4374   20902203.2604
       243.0004        209.0004
  22862067.3444     393134.37349    292636.53545  22862067.2604   22862070.7554
       220.0004        161.0004
  22612641.5794    -203067.54549   -162289.12546  22612641.2844   22612647.1914
       229.0004        179.0004
  22486879.5804   -1147844.97949   -891216.16647  22486878.8884   22486881.8534
       229.0004        188.0004
  22374939.8944    -171849.14849   -142149.64846  22374939.2624   22374942.6014
       230.0004        180.0004
  22856251.6154   -2269223.13749  -1748736.90146  22856251.5264   22856256.5674
       225.0004        171.0004
  20376597.7934   -1288945.90949   -998755.20047  20376597.1154   20376600.7334
       237.0004        210.0004
  23405559.4834    -303396.01449   -244428.18145  23405558.4894   23405563.6324
       216.0004        153.0004
 07  2 18  0 36 35.0000000  0  8G22G21G 3G19G18G 1G14G 9
  20902705.8954    -709595.62249   -554622.94547  20902705.6884   20902707.3684
       244.0004        209.0004
  22864992.0254     408503.65549    304612.60345  22864992.2154   22864995.5124
       221.0004        161.0004
  22614292.2064    -194393.38249   -155530.04446  22614292.1814   22614297.5404
       229.0004        179.0004
  22486535.3514   -1149653.90049   -892625.71447  22486534.0364   22486537.4914
       228.0004        188.0004
  22376597.4314    -163138.64649   -135362.23946  22376597.1744   22376599.9234
       230.0004        180.0004
  22853434.0044   -2284029.77549  -1760274.53346  22853433.1474   22853439.4374
       225.0004        171.0004
  20375925.8384   -1292477.04649  -1001506.73547  20375925.4304   20375928.9544
       237.0004        210.0004
  23407043.6054    -295596.87449   -238350.91945  23407042.7914   23407048.5864
       215.0004        153.0004
 07  2 18  0 36 40.0000000  0  8G22G21G 3G19G18G 1G14G 9
  20903211.0194    -706941.29149   -552554.62947  20903210.8084   20903212.4834
       243.0004        209.0004
  22867918.2184     423880.83849    316594.82445  22867918.6994   22867921.7834
       221.0004        160.0004
  22615944.8714    -185708.70449   -148762.76546  22615944.8774   22615950.4044
       229.0004        180.0004
  22486193.9904   -1151447.56949   -894023.38047  22486192.9334   22486195.7934
       229.0004        188.0004
  22378255.5284    -154425.37549   -128572.67646  22378255.0564   22378258.6344
       230.0004        180.0004
  22850617.9094   -2298828.39349  -1771805.92546  22850617.9164   22850623.8154
       225.0004        171.0004
  20375256.5414   -1295994.29749  -1004247.44147  20375256.1444   20375259.4544
       237.0004        210.0004
  23408530.8314    -287781.43049   -232260.96645  23408530.4824   23408536.2464
       216.0004        153.0004
 07  2 18  0 36 45.0000000  0  8G22G21G 3G19G18G 1G14G 9
  20903716.9424    -704282.67149   -550482.97647  20903716.8284   20903718.4194
       243.0004        209.0004
  22870845.9684     439266.10149    328583.33945  22870846.1134   22870851.1594
       220.0004        160.0004
  22617599.5614    -177013.34549   -141987.15746  22617599.1624   22617604.8634
       228.0004        180.0004
  22485855.5904   -1153225.85849   -895409.06347  22485854.4074   22485857.5804
       229.0004        188.0004
  22379914.1574    -145709.21249   -121780.86146  22379913.9884   22379917.1104
       230.0004        180.0004
  22847803.3614   -2313618.90649  -1783330.98246  22847802.4164   22847808.6204
       226.0004        171.0004
  20374589.9014   -1299497.53349  -1006977.23547  20374589.4354   20374592.9274
       237.0004        210.0004
  23410021.1654    -279949.67649   -226158.29845  23410021.3494   23410026.0334
       213.0004        153.0004
 07  2 18  0 36 50.0000000  0  8G22G21G 3G19G18G 1G14G 9
  20904223.6614    -701619.83349   -548408.03647  20904223.5374   20904225.3884
       243.0004        209.0004
  22873775.2034     454659.30449    340578.03045  22873774.8454   22873779.3064
       219.0004        160.0004
  22619256.2514    -168307.32249   -135203.24046  22619255.8754   22619261.1534
       228.0004        179.0004
  22485520.0844   -1154988.86849   -896782.83347  22485518.7294   22485521.9634
       229.0004        188.0004
  22381573.3394    -136990.17349   -114986.80746  22381572.6504   22381576.1194
       229.0004        180.0004
  22844990.3204   -2328401.36349  -1794849.78246  22844989.1334   22844995.2074
       226.0004        171.0004
  20373925.9144   -1302986.83749  -1009696.17147  20373925.3654   20373928.8584
       236.0004        210.0004
  23411514.5914    -272101.60949   -220042.93745  23411513.9564   23411519.0364
       215.0004        153.0004
 07  2 18  0 36 55.0000000  0  8G22G21G 3G19G18G 1G14G 9
  20904731.1694    -698952.80649   -546329.82947  20904730.9964   20904732.7214
       243.0004        209.0004
  22876705.9584     470060.42249    352578.89245  22876706.3664   22876709.4714
       221.0004        160.0004
  22620914.9724    -159590.67249   -128411.04546  22620914.4774   22620920.1454
       228.0004        179.0004
  22485187.5054   -1156736.66049   -898144.74747  22485186.2294   22485190.1384
       228.0004        188.0004
  22383233.0674    -128268.31649   -108190.56446  22383232.3614   22383236.1224
       230.0004        180.0004
  22842178.8494   -2343175.79949  -1806362.31246  22842178.4594   22842183.1134
       225.0004        171.0004
  20373264.5594   -1306462.24749  -1012404.27647  20373263.8734   20373267.4044
       237.0004        210.0004
  23413011.0874    -264237.31249   -213914.90945  23413010.0704   23413014.9874
       217.0004        153.0004
 07  2 18  0 37  0.0000000  0  8G22G21G 3G19G18G 1G14G 9
  20905239.5064    -696281.51449   -544248.30347  20905239.3844   20905241.1154
       244.0004        209.0004
  22879638.2324     485469.50549    364585.97445  22879637.9464   22879641.3434
       220.0004        160.0004
  22622575.7184    -150863.38149   -121610.56546  22622575.0874   22622581.6504
       229.0004        179.0004
  22484857.7994   -1158469.12749   -899494.72147  22484856.7284   22484860.1984
       229.0004        188.0004
  22384893.3154    -119543.63049   -101392.09546  22384893.6914   22384896.1164
       230.0004        180.0004
  22839368.9254   -2357942.16249  -1817868.56546  22839369.3444   22839374.1924
       226.0004        172.0004
  20372605.8484   -1309923.69649  -1015101.50647  20372605.3194   20372608.7794
       237.0004        210.0004
  23414510.6804    -256356.73149   -207774.19645  23414511.1914   23414515.0694
       216.0004        152.0004
 07  2 18  0 37  5.0000000  0  8G22G21G 3G19G18G 1G14G 9
  20905748.6494    -693605.90749   -542163.41247  20905748.4614   20905750.2574
       243.0004        209.0004
  22882571.9904     500886.60349    376599.30245  22882570.8764   22882574.8084
       219.0004        159.0004
  22624238.4884    -142125.51249   -114801.83746  22624238.2764   22624243.3534
       230.0004        179.0004
  22484531.0424   -1160186.19049   -900832.69447  22484530.0144   22484533.1594
       228.0004        188.0004
  22386554.1124    -110816.03449    -94591.37946  22386553.4324   22386556.7624
       230.0004        180.0004
  22836560.5474   -2372700.37749  -1829368.45846  22836561.0684   22836566.5694
       226.0004        172.0004
  20371949.8174   -1313371.14049  -1017787.82447  20371949.4934   20371952.7674
       237.0004        210.0004
  23416013.4074    -248459.86249   -201620.79145  23416012.8824   23416018.0984
       214.0004        152.0004
 07  2 18  0 37 10.0000000  0  8G22G21G 3G19G18G 1G14G 9
  20906258.6364    -690926.07849   -540075.23447  20906258.4984   20906260.2744
       244.0004        209.0004
  22885507.2404     516311.58549    388618.75745  22885507.0734   22885510.9644
       220.0004        159.0004
  22625903.2504    -133377.13849   -107984.92846  22625902.9034   22625908.3644
       230.0004        179.0004
  22484207.1854   -1161887.99649   -902158.76947  22484205.5184   22484208.8024
       229.0004        188.0004
  22388215.4584    -102085.68849    -87788.49346  22388215.2114   22388218.7434
       229.0004        180.0004
  22833753.6904   -2387450.54149  -1840862.08446  22833753.6314   22833759.2834
       226.0004        172.0004
  20371296.4474   -1316804.67749  -1020463.30447  20371296.0054   20371299.4304
       237.0004        210.0004
  23417519.2014    -240546.82849   -195454.78845  23417518.4994   23417524.0194
       215.0004        152.0004
 07  2 18  0 37 15.0000000  0  8G22G21G 3G19G18G 1G14G 9
  20906769.3964    -688241.90249   -537983.66447  20906769.1654   20906770.7604
       243.0004        209.0004
  22888444.0394     531744.59349    400644.47945  22888443.7804   22888446.9034
       221.0004        159.0004
  22627570.0574    -124618.12649   -101159.72646  22627569.5104   22627574.6934
       229.0004        179.0004
  22483886.2654   -1163574.41249   -903472.86447  22483885.1904   22483888.3454
       229.0004        188.0004
  22389877.3264     -93352.39649    -80983.34546  22389875.9114   22389880.4304
       230.0004        180.0004
  22830948.4194   -2402192.50049  -1852349.31746  22830948.0844   22830954.0074
       225.0004        172.0004
  20370645.7654   -1320224.14349  -1023127.82047  20370645.3664   20370648.8124
       237.0004        210.0004
  23419028.1164    -232617.38149   -189275.98745  23419028.8244   23419031.4244
       214.0004        152.0004
 07  2 18  0 37 20.0000000  0  8G22G21G 3G19G18G 1G14G 9
  20907280.9834    -685553.51649   -535888.81847  20907280.7314   20907282.6374
       243.0004        209.0004
  22891382.3394     547185.48749    412676.34645  22891381.4464   22891385.1814
       221.0004        159.0004
  22629238.8784    -115848.56549    -94326.30746  22629238.5444   22629243.8624
       229.0004        179.0004
  22483568.2494   -1165245.55249   -904775.04947  22483567.2004   22483570.2814
       229.0004        188.0004
  22391539.7534     -84616.31449    -74176.00446  22391539.5804   22391542.5104
       230.0004        180.0004
  22828144.6454   -2416926.38149  -1863830.24646  22828143.7954   22828149.6844
       226.0004        172.0004
  20369997.7024   -1323629.70949  -1025781.50547  20369997.2744   20370000.8714
       237.0004        210.0004
  23420540.0864    -224671.75049   -183084.58745  23420539.9284   23420544.7184
       214.0004        152.0004
 07  2 18  0 37 25.0000000  0  8G22G21G 3G19G18G 1G14G 9
  20907793.3864    -682860.91749   -533790.68547  20907793.1364   20907795.0054
       243.0004        209.0004
  22894322.1554     562634.23249    424714.32945  22894322.2014   22894325.4024
       221.0004        159.0004
  22630909.6704    -107068.51249    -87484.70446  22630909.0184   22630914.9744
       229.0004        179.0004
  22483253.1304   -1166901.53549   -906065.42147  22483252.0294   22483255.3604
       229.0004        188.0004
  22393202.7134     -75877.46849    -67366.51646  22393202.3194   22393205.5924
       230.0004        180.0004
  22825342.4234   -2431652.20449  -1875304.90346  22825341.3954   22825347.3484
       225.0004        172.0004
  20369352.2764   -1327021.40349  -1028424.37947  20369351.7914   20369355.1764
       237.0004        210.0004
  23422055.1744    -216709.96549   -176880.60045  23422055.4684   23422059.0084
       213.0004        152.0004
 07  2 18  0 37 30.0000000  0  8G22G21G 3G19G18G 1G14G 9
  20908306.5984    -680163.91049   -531689.11847  20908306.6214   20908308.2044
       244.0004        209.0004
  22897263.4904     578091.06049    436758.61845  22897262.7154   22897267.4354
       220.0004        159.0004
  22632582.4984     -98277.71249    -80634.73846  22632581.9804   22632586.8664
       229.0004        179.0004
  22482940.9434   -1168541.99649   -907343.70747  22482939.6154   22482943.2884
       229.0004        188.0004
  22394866.2154     -67135.65049    -60554.71646  22394865.7774   22394869.1824
       230.0004        180.0004
  22822541.7584   -2446369.75049  -1886773.11446  22822541.4834   22822546.9804
       225.0004        172.0004
  20368709.5444   -1330398.98549  -1031056.26147  20368709.1864   20368712.5934
       237.0004        210.0004
  23423573.3654    -208731.74549   -170663.81045  23423572.3884   23423578.3714
       213.0004        152.0004
 07  2 18  0 37 35.0000000  0  8G22G21G 3G19G18G 1G14G 9
  20908820.6204    -677462.73549   -529584.30547  20908820.4954   20908822.2034
       244.0004        209.0004
  22900206.3104     593555.76549    448809.03045  22900204.9984   22900209.8824
       220.0004        159.0004
  22634257.3214     -89476.41349    -73776.58246  22634256.8304   22634262.5414
       229.0004        179.0004
  22482631.6774   -1170167.17149   -908610.07547  22482630.9484   22482633.9854
       230.0004        188.0004
  22396530.2634     -58391.03049    -53740.71446  22396529.8654   22396533.4654
       229.0004        180.0004
  22819742.6414   -2461079.21149  -1898235.02646  22819741.9914   22819747.6264
       225.0004        172.0004
  20368069.4874   -1333762.67849  -1033677.31647  20368069.0094   20368072.2634
       237.0004        210.0004
  23425094.6284    -200737.35649   -164434.41545  23425094.2854   23425099.3324
       215.0004        152.0004
 07  2 18  0 37 40.0000000  0  8G22G21G 3G19G18G 1G14G 9
  20909335.4224    -674757.36049   -527476.21947  20909335.2684   20909336.8974
       243.0004        209.0004
  22903150.6194     609028.40949    460865.62545  22903150.9984   22903154.7874
       221.0004        159.0004
  22635934.1504     -80664.74849    -66910.34946  22635933.4794   22635939.4164
       229.0004        179.0004
  22482325.3514   -1171777.10649   -909864.57147  22482324.5914   22482327.7394
       230.0004        188.0004
  22398194.8604     -49643.63449    -46924.56546  22398193.5934   22398197.1744
       230.0004        180.0004
  22816945.0564   -2475780.62649  -1909690.65246  22816944.0584   22816949.9244
       225.0004        172.0004
  20367432.0354   -1337112.50949  -1036287.57147  20367431.6504   20367434.9964
       237.0004        210.0004
  23426618.9704    -192726.73849   -158192.38345  23426619.2994   23426623.2694
       216.0004        152.0004
 07  2 18  0 37 45.0000000  0  8G22G21G 3G19G18G 1G14G 9
  20909851.0444    -672047.68049   -525364.77947  20909850.7924   20909852.6684
       243.0004        209.0004
  22906096.4804     624508.96449    472928.39045  22906096.9994   22906099.9234
       221.0004        159.0004
  22637612.9784     -71842.50549    -60035.87646  22637612.3474   22637618.2074
       229.0004        179.0004
  22482021.8984   -1173371.68749   -911107.10347  22482021.3214   22482024.2224
       230.0004        188.0004
  22399860.0114     -40893.36749    -40106.17846  22399859.7804   22399862.4774
       229.0004        180.0004
  22814148.9894   -2490473.84549  -1921139.90346  22814147.3844   22814154.8564
       224.0004        172.0004
  20366797.2474   -1340448.35049  -1038886.92447  20366796.6604   20366800.3514
       237.0004        210.0004
  23428146.4134    -184699.87749   -151937.68545  23428146.1724   23428150.5674
       215.0004        152.0004
 07  2 18  0 37 50.0000000  0  8G22G21G 3G19G18G 1G14G 9
  20910367.4944    -669333.77949   -523250.05247  20910367.3344   20910369.0704
       244.0004        209.0004
  22909043.8254     639997.35149    484997.26745  22909043.5394   22909047.4914
       220.0004        160.0004
  22639293.7944     -63009.71249    -53153.18946  22639293.8534   22639298.1004
       229.0004        179.0004
  22481721.3844   -1174950.98549   -912337.73047  22481720.7194   22481723.5834
       230.0004        188.0004
  22401525.6714     -32140.27649    -33285.58746  22401525.4574   22401528.4224
       229.0004        180.0004
  22811354.4854   -2505158.91749  -1932582.81146  22811353.7984   22811359.6624
       226.0004        172.0004
  20366165.0884   -1343770.27849  -1041475.43947  20366164.6084   20366168.0864
       237.0004        210.0004
  23429676.9274    -176656.80649   -145670.34745  23429676.0434   23429681.9404
       214.0004        152.0004
 07  2 18  0 37 55.0000000  0  8G22G21G 3G19G18G 1G14G 9
  20910884.7374    -666615.68349   -521132.05247  20910884.4764   20910886.2684
       243.0004        209.0004
  22911992.6794     655493.51749    497072.19445  22911992.3584   22911995.6954
       220.0004        160.0004
  22640976.6104     -54166.56349    -46262.41846  22640976.2884   22640982.3424
       228.0004        179.0004
  22481423.7694   -1176515.02149   -913556.45547  22481423.0254   22481425.8774
       230.0004        188.0004
  22403191.8694     -23384.42149    -26462.84246  22403191.1634   22403194.4884
       230.0004        180.0004
  22808561.5154   -2519835.90849  -1944019.41246  22808560.9024   22808566.0574
       226.0004        172.0004
  20365535.5774   -1347078.35249  -1044053.15547  20365535.1034   20365538.4214
       237.0004        210.0004
  23431210.5574    -168597.60949   -139390.45445  23431210.7104   23431215.5904
       218.0004        152.0004
 07  2 18  0 38  0.0000000  0  8G22G21G 3G19G18G 1G14G 9
  20911402.7884    -663893.22449   -519010.65347  20911402.3674   20911404.3504
       243.0004        209.0004
  22914943.0054     670997.59149    509153.29945  22914942.7954   22914946.5624
       222.0004        160.0004
  22642661.4094     -45312.91049    -39363.47046  22642661.1524   22642666.1414
       229.0004        179.0004
  22481129.0964   -1178063.69749   -914763.21247  22481128.6884   22481131.4194
       230.0004        188.0004
  22404858.5904     -14625.67149    -19637.84946  22404857.3504   22404861.2764
       229.0004        180.0004
  22805770.1314   -2534504.68349  -1955449.62346  22805769.6244   22805775.0694
       226.0004        172.0004
  20364908.7564   -1350372.43349  -1046619.96747  20364908.1174   20364911.7684
       237.0004        210.0004
  23432747.2484    -160522.17249   -133097.89645  23432746.9074   23432752.2284
       215.0004        152.0004
 07  2 18  0 38  5.0000000  0  8G22G21G 3G19G18G 1G14G 9
  20911921.6304    -661166.66649   -516886.06047  20911921.3384   20911923.2264
       243.0004        209.0004
  22917894.8424     686509.40349    521240.42645  22917895.3614   22917898.9554
       221.0004        160.0004
  22644348.1584     -36448.82549    -32456.39446  22644347.3054   22644353.5214
       228.0004        179.0004
  22480837.2874   -1179597.23049   -915958.17347  22480836.6314   22480839.6104
       230.0004        188.0004
  22406525.8264      -5864.23449    -12810.74746  22406524.6164   22406528.1594
       230.0004        180.0004
  22802980.2954   -2549165.42149  -1966873.56946  22802979.5764   22802985.0724
       225.0004        172.0004
  20364284.5244   -1353652.74949  -1049176.05647  20364284.0404   20364287.5944
       237.0004        210.0004
  23434287.0114    -152430.65949   -126792.82045  23434287.3304   23434290.9854
       217.0004        153.0004
 07  2 18  0 38 10.0000000  0  8G22G21G 3G19G18G 1G14G 9
  20912441.3244    -658435.68149   -514758.01747  20912441.1184   20912442.7294
       243.0004        209.0004
  22920848.1974     702029.31149    533333.84845  22920847.2984   22920852.0214
       219.0004        160.0004
  22646036.9634     -27574.10349    -25541.02446  22646036.0354   22646041.7784
       229.0004        179.0004
  22480548.4314   -1181115.27649   -917141.06447  22480547.5714   22480550.4634
       230.0004        188.0004
  22408193.6574       2900.20349     -5981.31246  22408192.8414   22408196.6834
       230.0004        179.0004
  22800192.0454   -2563817.80149  -1978290.98346  22800191.5664   22800196.7274
       227.0004        173.0004
  20363662.9834   -1356918.96049  -1051721.15047  20363662.6004   20363666.0774
       237.0004        210.0004
  23435829.9204    -144322.75149   -120474.98045  23435829.5234   23435834.4774
       216.0004        153.0004
 07  2 18  0 38 15.0000000  0  8G22G21G 3G19G18G 1G14G 9
  20912961.8354    -655700.36149   -512626.59947  20912961.5884   20912963.2694
       243.0004        209.0004
  22923803.0694     717557.13949    545433.43945  22923802.4724   22923807.7784
       220.0004        160.0004
  22647727.7484     -18688.87749    -18617.48146  22647727.2854   22647733.0454
       229.0004        179.0004
  22480262.4734   -1182617.92549   -918311.95847  22480261.9294   22480264.7574
       229.0004        188.0004
  22409862.0054      11667.56649       850.39146  22409861.6064   22409864.7594
       230.0004        179.0004
  22797405.3714   -2578461.91349  -1989701.98446  22797405.1154   22797410.4154
       226.0004        173.0004
  20363044.0954   -1360171.14249  -1054255.31747  20363043.7384   20363047.1704
       236.0004        210.0004
  23437375.8954    -136198.61349   -114144.47445  23437375.5534   23437379.7694
       215.0004        152.0004
 07  2 18  0 38 20.0000000  0  8G22G21G 3G19G18G 1G14G 9
  20913483.1004    -652961.03749   -510492.05947  20913482.9274   20913484.5674
       244.0004        209.0004
  22926759.3574     733092.58749    557538.97745  22926759.5054   22926763.5434
       221.0004        160.0004
  22649420.4754      -9793.44449    -11685.97046  22649420.0034   22649425.6514
       228.0004        179.0004
  22479979.4164   -1184105.52049   -919471.12247  22479978.0854   22479981.3704
       230.0004        188.0004
  22411530.8764      20437.48849      7684.09646  22411529.7714   22411533.9924
       229.0004        179.0004
  22794620.1984   -2593098.04349  -2001106.74746  22794620.0134   22794625.8014
       226.0004        173.0004
  20362427.8474   -1363409.63349  -1056778.81347  20362427.2454   20362430.7974
       237.0004        210.0004
  23438924.9154    -128058.51549   -107801.53445  23438924.9404   23438928.9824
       217.0004        152.0004
 07  2 18  0 38 25.0000000  0  8G22G21G 3G19G18G 1G14G 9
  20914005.2294    -650217.27349   -508354.06047  20914005.1954   20914006.5794
       243.0004        209.0004
  22929717.2134     748636.07049    569650.77845  22929717.5874   22929721.3904
       219.0004        160.0004
  22651115.2374       -887.40449     -4746.20046  22651114.4604   22651120.7184
       228.0004        178.0004
  22479699.2824   -1185577.58349   -920618.18547  22479698.1694   22479701.5874
       230.0004        188.0004
  22413200.3314      29210.44449     14520.17046  22413199.5854   22413202.8084
       231.0004        179.0004
  22791836.6414   -2607725.79949  -2012504.98846  22791836.2004   22791841.7984
       226.0004        173.0004
  20361814.2574   -1366634.00749  -1059291.31047  20361813.7504   20361817.0234
       237.0004        210.0004
  23440477.0634    -119902.07349   -101445.85945  23440476.7264   23440481.3264
       215.0004        152.0004
 07  2 18  0 38 30.0000000  0  8G22G21G 3G19G18G 1G14G 9
  20914528.0824    -647469.56649   -506212.98647  20914527.9144   20914529.5934
       243.0004        209.0004
  22932676.5254     764187.10949    581768.47845  22932676.4484   22932680.0794
       219.0004        161.0004
  22652811.8984       8028.64249      2201.35746  22652811.1954   22652816.1584
       228.0004        178.0004
  22479422.0144   -1187034.63849   -921753.55247  22479420.8314   22479423.9264
       229.0004        188.0004
  22414870.2644      37985.93149     21358.21746  22414868.8894   22414872.9404
       228.0004        179.0004
  22789054.5794   -2622345.65149  -2023897.08146  22789054.6964   22789059.3864
       227.0004        173.0004
  20361203.2754   -1369844.75949  -1061793.19047  20361202.6234   20361206.2504
       236.0004        210.0004
  23442032.2104    -111729.78149    -95077.83845  23442032.5594   23442036.5694
       217.0004        152.0004
 07  2 18  0 38 35.0000000  0  8G22G21G 3G19G18G 1G14G 9
  20915051.7944    -644717.47649   -504068.50047  20915051.8314   20915053.2364
       244.0004        209.0004
  22935637.3324     779746.11549    593892.36945  22935636.2094   22935642.1744
       220.0004        161.0004
  22654510.5364      16955.20849      9157.12246  22654510.4194   22654515.6594
       228.0004        178.0004
  22479147.6714   -1188476.26949   -922876.90347  22479146.7314   22479149.7624
       229.0004        188.0004
  22416540.7294      46764.36849     28198.54746  22416540.1124   22416543.3924
       229.0004        179.0004
  22786274.0904   -2636957.14649  -2035282.64346  22786273.3414   22786279.1254
       227.0004        173.0004
  20360594.9444   -1373041.46849  -1064284.12947  20360594.3144   20360597.8604
       236.0004        210.0004
  23443590.4744    -103541.15549    -88697.10045  23443591.3294   23443594.0064
       216.0004        152.0004
 07  2 18  0 38 40.0000000  0  8G22G21G 3G19G18G 1G14G 9
  20915576.3144    -641961.12049   -501920.68647  20915576.1984   20915578.0034
       243.0004        209.0004
  22938599.6064     795312.94849    606022.36645  22938599.3884   22938603.3404
       220.0004        161.0004
  22656211.1784      25892.16349     16120.98446  22656210.9924   22656216.5574
       229.0004        178.0004
  22478876.2274   -1189902.56849   -923988.30247  22478875.3284   22478878.6914
       229.0004        188.0004
  22418211.7644      55545.68249     35041.13546  22418211.1254   22418215.2034
       230.0004        179.0004
  22783495.1794   -2651560.38949  -2046661.78746  22783494.8354   22783500.0864
       225.0004        173.0004
  20359989.2974   -1376224.23949  -1066764.20847  20359988.8534   20359992.1134
       237.0004        210.0004
  23445151.7754     -95336.34949    -82303.74445  23445152.0194   23445155.5574
       215.0004        152.0004
 07  2 18  0 38 45.0000000  0  8G22G21G 3G19G18G 1G14G 9
  20916101.6084    -639200.67849   -499769.69347  20916101.4944   20916103.1134
       243.0004        209.0004
  22941563.3684     810887.47449    618158.35245  22941562.1474   22941566.9884
       218.0004        160.0004
  22657913.7674      34839.34949     23092.81746  22657913.3034   22657918.7744
       228.0004        178.0004
  22478607.6654   -1191313.70949   -925087.88747  22478606.8644   22478610.0604
       230.0004        188.0004
  22419883.2874      64329.65149     41885.77946  22419882.4084   22419885.8354
       229.0004        179.0004
  22780717.8254   -2666155.55049  -2058034.62546  22780717.0184   22780723.6184
       226.0004        173.0004
  20359386.2464   -1379393.22849  -1069233.54747  20359385.8204   20359389.0644
       236.0004        210.0004
  23446716.1654     -87115.53749    -75897.90545  23446717.0564   23446720.0504
       216.0004        152.0004
 07  2 18  0 38 50.0000000  0  8G22G21G 3G19G18G 1G14G 9
  20916627.7544    -636435.72849   -497615.18347  20916627.6904   20916629.4414
       243.0004        209.0004
  22944528.6294     826470.04649    630300.61045  22944528.8634   22944532.3544
       218.0004        160.0004
  22659618.3834      43797.16449     30072.93046  22659618.2234   22659623.3914
       229.0004        178.0004
  22478342.0774   -1192709.33949   -926175.39247  22478341.3684   22478344.3374
       230.0004        188.0004
  22421555.4274      73116.69349     48732.83046  22421554.4114   22421558.5404
       229.0004        179.0004
  22777942.0484   -2680742.23849  -2069400.87046  22777941.7494   22777947.6594
       227.0004        173.0004
  20358785.8994   -1382548.06349  -1071691.85747  20358785.3964   20358788.9034
       236.0004        210.0004
  23448283.6544     -78878.33449    -69479.30445  23448283.4714   23448288.6164
       216.0004        152.0004
 07  2 18  0 38 55.0000000  0  8G22G21G 3G19G18G 1G14G 9
  20917154.6964    -633666.62549   -495457.44547  20917154.6954   20917156.3364
       243.0004        209.0004
  22947495.3794     842060.32349    642448.87845  22947494.9504   22947498.0584
       220.0004        160.0004
  22661324.9884      52765.32149     37061.09646  22661324.1924   22661329.7084
       228.0004        178.0004
  22478079.4134   -1194089.72949   -927251.02847  22478078.8404   22478081.6704
       230.0004        188.0004
  22423228.0574      81906.52149     55582.04346  22423227.4334   22423230.8984
       228.0004        179.0004
  22775167.8424   -2695320.74749  -2080760.73246  22775167.8594   22775172.9664
       226.0004        173.0004
  20358188.1784   -1385689.09249  -1074139.41147  20358187.7004   20358191.1154
       236.0004        210.0004
  23449854.1704     -70625.08749    -63048.20745  23449853.6644   23449858.6274
       217.0004        153.0004
 07  2 18  0 39  0.0000000  0  8G22G21G 3G19G18G 1G14G 9
  20917682.4374    -630893.40249   -493296.48747  20917682.2104   20917683.8724
       243.0004        209.0004
  22950463.5654     857658.31149    654603.16445  22950462.7454   22950468.4244
       220.0004        160.0004
  22663033.5054      61743.70449     44057.24346  22663033.1594   22663038.5644
       229.0004        178.0004
  22477819.6264   -1195454.92249   -928314.81047  22477819.0404   22477821.8084
       230.0004        188.0004
  22424901.2174      90699.05049     62433.36546  22424900.4844   22424903.8504
       229.0004        179.0004
  22772395.1934   -2709891.13149  -2092114.26146  22772393.8804   22772399.9794
       225.0004        173.0004
  20357593.0844   -1388816.30649  -1076576.19847  20357592.6424   20357595.9694
       236.0004        210.0004
  23451427.7934     -62355.81949    -56604.62445  23451427.9944   23451432.3714
       217.0004        153.0004
 07  2 18  0 39  5.0000000  0  8G22G21G 3G19G18G 1G14G 9
  20918210.9864    -628115.93949   -491132.22947  20918210.7744   20918212.4294
       243.0004        208.0004
  22953433.2774     873264.08249    666763.49745  22953433.2994   22953436.9444
       218.0004        160.0004
  22664743.9884      70732.35049     51061.37346  22664743.3254   22664749.4314
       228.0004        178.0004
  22477562.7454   -1196804.86349   -929366.71847  22477562.0584   22477564.2234
       230.0004        188.0004
  22426574.9464      99494.40449     69286.89446  22426574.8854   22426578.6194
       229.0004        179.0004
  22769624.0734   -2724453.29949  -2103461.39746  22769623.5884   22769629.2514
       226.0004        173.0004
  20357000.6374   -1391929.64249  -1079002.17047  20356999.9824   20357003.5404
       237.0004        210.0004
  23453004.4544     -54070.49049    -50148.50445  23453004.6034   23453008.6364
       217.0004        153.0004
 07  2 18  0 39 10.0000000  0  8G22G21G 3G19G18G 1G14G 9
  20918740.3604    -625334.10349   -488964.56247  20918740.0284   20918741.9244
       243.0004        208.0004
  22956404.4534     888877.71749    678929.95145  22956403.7024   22956408.8124
       220.0004        160.0004
  22666456.4414      79731.39949     58073.62946  22666456.1594   22666461.6044
       229.0004        178.0004
  22477308.8094   -1198139.38449   -930406.60147  22477308.1334   22477310.7544
       230.0004        188.0004
  22428249.2094     108292.74649     76142.73646  22428248.2674   22428252.0264
       229.0004        179.0004
  22766854.5704   -2739007.05649  -2114801.98446  22766854.5854   22766859.5194
       227.0004        173.0004
  20356410.8414   -1395028.95649  -1081417.21847  20356410.4104   20356413.8194
       236.0004        210.0004
  23454584.1824     -45768.96449    -43679.78445  23454583.7304   23454589.7074
       217.0004        153.0004
 07  2 18  0 39 15.0000000  0  8G22G21G 3G19G18G 1G14G 9
  20919270.4964    -622548.14349   -486793.68447  20919270.3904   20919272.1334
       243.0004        208.0004
  22959377.0764     904499.03749    691102.40945  22959375.8154   22959381.4434
       218.0004        160.0004
  22668170.8514      88740.65349     65093.81746  22668170.4024   22668175.7674
       228.0004        178.0004
  22477057.7624   -1199458.70349   -931434.64147  22477056.8474   22477060.0264
       229.0004        188.0004
  22429923.9804     117093.79049     83000.70346  22429923.1774   22429926.8454
       229.0004        179.0004
  22764086.6454   -2753552.64649  -2126136.19246  22764086.2714   22764091.9964
       226.0004        173.0004
  20355823.7124   -1398114.46649  -1083821.50947  20355823.2374   20355826.7634
       236.0004        210.0004
  23456166.9694     -37451.47949    -37198.62745  23456166.0944   23456171.3104
       215.0004        153.0004
 07  2 18  0 39 20.0000000  0  8G22G21G 3G19G18G 1G14G 9
  20919801.5074    -619757.73149   -484619.33647  20919801.3534   20919803.1104
       243.0004        208.0004
  22962351.2294     920128.35549    703281.08845  22962349.9664   22962355.1404
       219.0004        160.0004
  22669887.2544      97760.45449     72122.23046  22669886.9244   22669892.1244
       228.0004        178.0004
  22476809.6734   -1200762.49749   -932450.58047  22476808.7394   22476811.4434
       230.0004        189.0004
  22431599.3664     125897.93149     89861.05946  22431598.5674   22431602.7144
       228.0004        179.0004
  22761320.3244   -2768089.74849  -2137463.78746  22761319.7864   22761325.9454
       226.0004        173.0004
  20355239.2224   -1401185.85649  -1086214.79847  20355238.7914   20355242.1314
       237.0004        210.0004
  23457752.8374     -29117.68749    -30704.76245  23457752.3264   23457755.3744
       218.0004        153.0004
 07  2 18  0 39 25.0000000  0  8G22G21G 3G19G18G 1G14G 9
  20920333.2604    -616963.22849   -482441.80147  20920333.1254   20920334.7924
       243.0004        208.0004
  22965326.8304     935765.30649    715465.71945  22965326.4254   22965330.3334
       220.0004        160.0004
  22671605.6164     106790.45349     79158.59646  22671605.6644   22671610.8334
       228.0004        178.0004
  22476564.4574   -1202051.13049   -933454.71347  22476564.1684   22476566.8824
       230.0004        189.0004
  22433275.2074     134704.74749     96723.52646  22433274.1074   22433277.8884
       229.0004        179.0004
  22758555.5924   -2782618.70449  -2148785.03646  22758554.4114   22758561.0984
       227.0004        173.0004
  20354657.3844   -1404243.49149  -1088597.36547  20354656.9244   20354660.1214
       236.0004        210.0004
  23459341.7374     -20767.94649    -24198.46445  23459340.7764   23459345.4574
       217.0004        153.0004
 07  2 18  0 39 30.0000000  0  8G22G21G 3G19G18G 1G14G 9
  20920865.8364    -614164.56549   -480261.01947  20920865.4064   20920867.2744
       243.0004        208.0004
  22968303.8794     951409.94849    727656.35445  22968303.3944   22968307.8154
       219.0004        160.0004
  22673325.8744     115830.62449     86202.88146  22673325.6934   22673330.7294
       228.0004        178.0004
  22476322.1434   -1203324.51349   -934446.96247  22476321.2474   22476323.7624
       230.0004        189.0004
  22434951.6254     143514.34749    103588.14246  22434950.8774   22434954.9834
       229.0004        179.0004
  22755792.4024   -2797139.40349  -2160099.86346  22755791.3734   22755796.1034
       227.0004        173.0004
  20354078.1834   -1407287.24149  -1090969.11847  20354077.6054   20354080.9784
       236.0004        210.0004
  23460933.6774     -12402.17049    -17679.68945  23460932.9744   23460938.3194
       217.0004        153.0004
 07  2 18  0 39 35.0000000  0  8G22G21G 3G19G18G 1G14G 9
  20921399.2214    -611361.64049   -478076.92247  20921399.0974   20921400.6144
       243.0004        208.0004
  22971282.3994     967062.35749    739853.03645  22971282.1324   22971286.1474
       219.0004        160.0004
  22675048.1044     124881.00749     93255.12646  22675048.0014   22675053.3954
       228.0004        178.0004
  22476082.7664   -1204582.56549   -935427.25747  22476081.8324   22476085.3404
       230.0004        189.0004
  22436628.5534     152326.80849    110454.99646  22436627.3764   22436631.7594
       229.0004        178.0004
  22753030.7794   -2811651.77449  -2171408.19046  22753029.8954   22753035.5564
       226.0004        173.0004
  20353501.6314   -1410317.05649  -1093330.00647  20353501.0444   20353504.6194
       236.0004        210.0004
  23462528.7204      -4020.26849    -11148.31445  23462527.8104   23462533.8004
       215.0004        153.0004
 07  2 18  0 39 40.0000000  0  8G22G21G 3G19G18G 1G14G 9
  20921933.3994    -608554.46349   -475889.51047  20921933.3574   20921934.9594
       243.0004        208.0004
  22974262.4084     982722.49849    752055.72545  22974261.7404   22974265.9754
       219.0004        160.0004
  22676772.2764     133941.66949    100315.37746  22676772.0774   22676777.5244
       228.0004        178.0004
  22475846.3024   -1205825.28749   -936395.61047  22475845.3264   22475848.7584
       230.0004        189.0004
  22438306.0584     161142.13449    117324.07946  22438305.1054   22438308.2094
       228.0004        179.0004
  22750270.7634   -2826155.81049  -2182710.03146  22750270.2764   22750276.0024
       226.0004        173.0004
  20352927.7064   -1413332.95749  -1095680.05947  20352927.2124   20352930.6674
       237.0004        211.0004
  23464126.7854       4377.74249     -4604.41945  23464127.4134   23464132.2044
       217.0004        153.0004
 07  2 18  0 39 45.0000000  0  8G22G21G 3G19G18G 1G14G 9
  20922468.3844    -605743.19149   -473698.90647  20922468.2174   20922469.8954
       243.0004        208.0004
  22977243.8784     998390.24049    764264.35445  22977242.5464   22977248.3924
       218.0004        160.0004
  22678498.3544     143012.39149    107383.47246  22678497.7734   22678503.6214
       227.0004        178.0004
  22475612.6904   -1207052.87449   -937352.17847  22475611.9684   22475615.2414
       230.0004        189.0004
  22439984.0394     169960.11449    124195.23146  22439983.2234   22439986.0734
       229.0004        178.0004
  22747512.2754   -2840651.71049  -2194005.52646  22747511.4364   22747516.9554
       226.0004        173.0004
  20352356.4034   -1416335.14049  -1098019.42047  20352355.8974   20352359.3194
       237.0004        211.0004
  23465727.8854      12791.66049      1951.88145  23465728.2444   23465731.2294
       216.0004        153.0004
 07  2 18  0 39 50.0000000  0  8G22G21G 3G19G18G 1G14G 9
  20923004.2064    -602927.46149   -471504.83247  20923004.1564   20923005.6904
       243.0004        208.0004
  22980226.8784    1014065.91749    776479.16045  22980227.0704   22980230.5774
       220.0004        160.0004
  22680226.4344     152093.55049    114459.69346  22680225.9564   22680232.0184
       227.0004        178.0004
  22475382.0344   -1208264.94949   -938296.64747  22475381.3674   22475384.4164
       231.0004        189.0004
  22441662.6144     178781.12349    131068.74446  22441662.2704   22441665.2174
       229.0004        178.0004
  22744755.4014   -2855139.08249  -2205294.37046  22744754.6044   22744760.0154
       226.0004        173.0004
  20351787.7974   -1419323.23749  -1100347.80547  20351787.4014   20351790.6314
       237.0004        211.0004
  23467332.0944      21221.86949      8520.88545  23467331.3254   23467336.3294
       216.0004        153.0004
 07  2 18  0 39 55.0000000  0  8G22G21G 3G19G18G 1G14G 9
  20923540.7674    -600107.81349   -469307.70247  20923540.4844   20923542.2644
       243.0004        208.0004
  22983211.2824    1029749.00949    788699.75245  22983211.4744   22983215.8064
       220.0004        160.0004
  22681956.4124     161184.67149    121543.68246  22681955.8794   22681961.5254
       227.0004        178.0004
  22475154.2674   -1209462.01249   -939229.42147  22475153.5554   22475156.3354
       232.0004        189.0004
  22443341.6884     187604.68149    137944.25046  22443341.0184   22443344.1984
       230.0004        178.0004
  22742000.0694   -2869618.41849  -2216576.95246  22741999.5114   22742005.4504
       225.0004        173.0004
  20351221.7474   -1422297.72549  -1102665.58147  20351221.2434   20351224.6694
       236.0004        211.0004
  23468939.3124      29667.87749     15102.19045  23468939.3214   23468943.1014
       217.0004        153.0004
 07  2 18  0 40  0.0000000  0  8G22G21G 3G19G18G 1G14G 9
  20924078.1814    -597283.70549   -467107.09747  20924077.9824   20924079.6144
       243.0004        208.0004
  22986197.2064    1045440.03549    800926.52545  22986196.4774   22986201.0794
       220.0004        160.0004
  22683688.3664     170286.20549    128635.78646  22683687.0904   22683693.1064
       227.0004        178.0004
  22474929.4424   -1210643.58549   -940150.13247  22474928.8614   22474931.7294
       230.0004        189.0004
  22445021.3284     196431.30349    144822.13746  22445020.9354   22445023.6294
       227.0004        178.0004
  22739246.3184   -2884089.20049  -2227852.88146  22739244.8384   22739252.1264
       226.0004        173.0004
  20350658.4244   -1425258.13049  -1104972.38647  20350658.0534   20350661.4084
       236.0004        211.0004
  23470549.6194      38130.12749     21696.15445  23470549.8064   23470554.5464
       216.0004        153.0004
 07  2 18  0 40  5.0000000  0  8G22G21G 3G19G18G 1G14G 9
  20924616.3824    -594455.31149   -464903.15447  20924616.0804   20924617.8594
       243.0004        208.0004
  22989184.6134    1061138.83449    813159.34845  22989184.1494   22989188.4324
       219.0004        160.0004
  22685422.2734     179397.95849    135735.84846  22685422.0494   22685427.7174
       227.0004        177.0004
  22474707.5364   -1211809.84149   -941058.90047  22474706.7144   22474709.8164
       230.0004        189.0004
  22446701.5444     205260.81649    151702.26546  22446700.6434   22446704.5464
       229.0004        178.0004
  22736494.2044   -2898551.59849  -2239122.27646  22736493.6434   22736498.8744
       226.0004        173.0004
  20350097.7154   -1428204.61549  -1107268.35047  20350097.2614   20350100.7664
       237.0004        211.0004
  23472162.9644      46608.43049     28302.62445  23472163.0804   23472167.8774
       217.0004        153.0004
 07  2 18  0 40 10.0000000  0  8G22G21G 3G19G18G 1G14G 9
  20925155.4014    -591622.83249   -462696.02547  20925155.1674   20925156.8424
       243.0004        208.0004
  22992173.4504    1076845.17149    825398.05145  22992173.1404   22992177.4774
       220.0004        159.0004
  22687158.0734     188519.67749    142843.68146  22687158.0574   22687163.1894
       228.0004        177.0004
  22474488.5134   -1212960.94349   -941955.85447  22474487.3864   22474490.6474
       229.0004        189.0004
  22448382.2594     214093.02349    158584.50946  22448381.6994   22448385.8714
       229.0004        178.0004
  22733743.6164   -2913005.82149  -2250385.28946  22733743.0174   22733748.4454
       225.0004        173.0004
  20349539.6434   -1431137.37649  -1109553.61447  20349539.0774   20349542.5314
       237.0004        211.0004
  23473779.3284      55102.59049     34921.45645  23473778.3014   23473784.7264
       217.0004        152.0004
 07  2 18  0 40 15.0000000  0  8G22G21G 3G19G18G 1G14G 9
  20925695.2174    -588786.08149   -460485.56647  20925695.0634   20925696.9364
       243.0004        208.0004
  22995163.7474    1092559.27049    837642.80845  22995163.0004   22995167.2154
       220.0004        159.0004
  22688895.8144     197651.68449    149959.53046  22688895.2054   22688900.7174
       228.0004        177.0004
  22474272.3744   -1214096.69649   -942840.85847  22474271.4764   22474274.8654
       229.0004        189.0004
  22450063.5474     222928.13249    165469.01746  22450063.1154   22450066.2774
       229.0004        178.0004
  22730994.6334   -2927451.63249  -2261641.75746  22730993.5014   22730999.1054
       226.0004        173.0004
  20348984.1834   -1434056.21349  -1111828.02747  20348983.6224   20348987.2574
       237.0004        211.0004
  23475398.8044      63612.82549     41552.80645  23475399.1294   23475403.2624
       215.0004        152.0004
 07  2 18  0 40 20.0000000  0  8G22G21G 3G19G18G 1G14G 9
  20926235.8444    -585944.97149   -458271.71347  20926235.6784   20926237.2754
       243.0004        208.0004
  22998155.5104    1108281.15149    849893.61445  22998156.0984   22998159.8894
       221.0004        159.0004
  22690635.5374     206793.93049    157083.35346  22690635.9504   22690640.9164
       229.0004        177.0004
  22474059.2074   -1215217.02749   -943713.84547  22474058.7434   22474061.3484
       230.0004        189.0004
  22451745.3794     231766.21849    172355.83746  22451744.8304   22451748.6464
       229.0004        178.0004
  22728247.2644   -2941888.95649  -2272891.61446  22728246.0534   22728252.1094
       226.0004        173.0004
  20348431.4084   -1436961.04249  -1114091.52947  20348430.9244   20348434.2024
       236.0004        211.0004
  23477021.3004      72139.17049     48196.71545  23477020.9174   23477025.8844
       217.0004        153.0004
 07  2 18  0 40 25.0000000  0  8G22G21G 3G19G18G 1G14G 9
  20926777.2464    -583099.83149   -456054.72047  20926776.9844   20926778.8914
       243.0004        208.0004
  23001148.7414    1124010.53549    862150.27645  23001149.0164   23001152.4064
       221.0004        159.0004
  22692377.1704     215946.13949    164214.94146  22692376.9344   22692381.6764
       228.0004        177.0004
  22473848.8894   -1216322.26349   -944575.07247  22473847.9294   22473850.9354
       230.0004        189.0004
  22453427.7604     240606.98449    179244.73646  22453427.0864   22453430.3444
       229.0004        178.0004
  22725501.4704   -2956318.10149  -2284135.09146  22725500.4034   22725506.3174
       226.0004        173.0004
  20347881.2454   -1439852.18049  -1116344.36147  20347880.7154   20347884.2304
       236.0004        211.0004
  23478646.8404      80681.34549     54852.94045  23478646.3914   23478651.1944
       217.0004        153.0004
 07  2 18  0 40 30.0000000  0  8G22G21G 3G19G18G 1G14G 9
  20927319.4964    -580250.35249   -453834.34747  20927319.3984   20927321.1284
       243.0004        208.0004
  23004143.4174    1139747.70749    874413.01045  23004143.4934   23004147.0504
       221.0004        159.0004
  22694120.7554     225108.61549    171354.54046  22694120.1684   22694126.7304
       228.0004        177.0004
  22473641.4874   -1217412.10849   -945424.29747  22473640.5024   22473643.7484
       230.0004        189.0004
  22455110.6434     249450.68549    186135.93746  22455109.9414   22455112.6494
       231.0004        178.0004
  22722757.2654   -2970738.75049  -2295371.95346  22722757.3024   22722762.5204
       226.0004        173.0004
  20347333.7314   -1442729.31049  -1118586.27947  20347333.2044   20347336.7714
       236.0004        211.0004
  23480275.4474      89239.67249     61521.78245  23480274.5944   23480281.0724
       217.0004        153.0004
 07  2 18  0 40 35.0000000  0  8G22G21G 3G19G18G 1G14G 9
  20927862.4704    -577396.87049   -451610.84947  20927862.2624   20927864.1304
       243.0004        208.0004
  23007139.5424    1155492.32149    886681.53145  23007137.7904   23007143.7094
       218.0004        159.0004
  22695866.2104     234280.97149    178501.82146  22695866.4894   22695871.5804
       228.0004        177.0004
  22473436.9634   -1218486.91649   -946261.80747  22473435.8344   22473439.0634
       229.0004        189.0004
  22456794.0594     258297.01849    193029.17846  22456794.2054   22456796.6414
       228.0004        178.0004
  22720014.6714   -2985151.24749  -2306602.45246  22720014.2014   22720019.6774
       226.0004        173.0004
  20346788.8544   -1445592.77449  -1120817.54447  20346788.4814   20346791.8894
       237.0004        211.0004
  23481907.0674      97813.76049     68202.89045  23481907.6544   23481912.4754
       217.0004        154.0004
 07  2 18  0 40 40.0000000  0  8G22G21G 3G19G18G 1G14G 9
  20928406.3184    -574539.02849   -449383.96247  20928406.2064   20928408.0014
       244.0004        208.0004
  23010137.1314    1171244.72349    898956.11645  23010135.3254   23010141.6354
       219.0004        158.0004
  22697613.6034     243463.51249    185657.05146  22697613.9794   22697618.7614
       229.0004        177.0004
  22473235.3674   -1219546.30649   -947087.30347  22473234.2844   22473237.2244
       229.0004        189.0004
  22458478.0354     267146.26549    199924.70346  22458477.5994   22458481.3094
       229.0004        178.0004
  22717273.6554   -2999555.24049  -2317826.34746  22717272.6894   22717278.9574
       225.0004        173.0004
  20346246.6204   -1448442.24949  -1123037.91447  20346246.0674   20346249.6834
       237.0004        211.0004
  23483541.7374     106403.99549     74896.57245  23483540.8334   23483545.5564
       217.0004        154.0004
 07  2 18  0 40 45.0000000  0  8G22G21G 3G19G18G 1G14G 9
  20928950.9484    -571677.01349   -447153.81647  20928950.7194   20928952.5254
       243.0004        208.0004
  23013136.1454    1187004.72849    911236.64545  23013136.8474   23013139.7214
       220.0004        158.0004
  22699362.9114     252656.05749    192820.06846  22699362.8184   22699367.5304
       229.0004        177.0004
  22473036.6434   -1220590.45649   -947900.92447  22473035.8514   22473038.7504
       229.0004        188.0004
  22460162.5264     275998.31649    206822.40646  22460162.7034   22460166.1354
       229.0004        178.0004
  22714534.2374   -3013950.90649  -2329043.73046  22714533.6364   22714539.1694
       225.0004        173.0004
  20345706.9894   -1451277.92349  -1125247.52747  20345706.3514   20345710.0034
       236.0004        211.0004
  23485179.4364     115010.16549     81602.68845  23485179.0494   23485183.3854
       217.0004        153.0004
 07  2 18  0 40 50.0000000  0  8G22G21G 3G19G18G 1G14G 9
  20929496.3654    -568810.72249   -444920.34347  20929496.1914   20929497.9964
       243.0004        208.0004
  23016136.6184    1202772.38149    923523.13245  23016135.6114   23016139.2024
       220.0004        158.0004
  22701114.1514     261858.73149    199990.98346  22701113.8464   22701118.9064
       230.0004        177.0004
  22472840.8524   -1221619.29149   -948702.61847  22472840.2064   22472843.2724
       229.0004        188.0004
  22461847.5624     284853.24349    213722.34346  22461846.6374   22461850.1954
       229.0004        178.0004
  22711796.4394   -3028338.11649  -2340254.54246  22711795.9014   22711801.7804
       226.0004        173.0004
  20345170.0274   -1454099.69549  -1127446.30947  20345169.5424   20345172.9404
       236.0004        211.0004
  23486820.1894     123632.29749     88321.24245  23486820.7424   23486823.9564
       219.0004        154.0004
 07  2 18  0 40 55.0000000  0  9G22G21G 3G19G18G 1G14G31G 9
  20930042.6024    -565940.29649   -442683.64647  20930042.5034   20930044.1874
       243.0004        209.0004
  23019138.5344    1218547.56549    935815.49845  23019137.8224   23019140.8224
       220.0004        158.0004
  22702867.3104     271071.42349    207169.69846  22702867.6324   22702872.1294
       228.0004        177.0004
  22472647.9704   -1222632.93849   -949492.47347  22472647.1404   22472649.3914
       229.0004        188.0004
  22463533.1234     293710.91549    220624.43046  22463532.5804   22463535.8194
       228.0004        178.0004
  22709060.2054   -3042717.02949  -2351458.88546  22709060.4154   22709065.3674
       225.0004        173.0004
  20344635.7044   -1456907.68549  -1129634.34947  20344635.2524   20344638.6384
       236.0004        211.0004
                   -860189.16319     88321.242 1
       206.000
  23488463.9564     132270.30549     95052.15345  23488464.3254   23488469.4754
       219.0004        154.0004
 07  2 18  0 41  0.0000000  0  9G22G21G 3G19G18G 1G14G31G 9
  20930589.6544    -563065.65849   -440443.66447  20930589.3554   20930591.1284
       243.0004        208.0004
  23022141.9094    1234330.39049    948113.78945  23022141.5934   23022145.8474
       220.0004        157.0004
  22704622.3374     280294.11449    214356.21446  22704621.9874   22704627.7364
       228.0004        177.0004
  22472457.9944   -1223631.28349   -950270.40347  22472457.2824   22472460.1814
       230.0004        188.0004
  22465219.1964     302571.44749    227528.73746  22465218.7934   22465222.2214
       229.0004        178.0004
  22706325.5794   -3057087.53649  -2362656.65546  22706324.9284   22706330.2004
       226.0004        173.0004
  20344103.9894   -1459701.82649  -1131811.59647  20344103.6004   20344106.7824
       237.0004        211.0004
                   -877187.09949   -658242.41643
       206.0004         74.0004
  23490110.7564     140924.22649    101795.47445  23490110.6354   23490115.9724
       215.0004        153.0004
 07  2 18  0 41  5.0000000  0  9G22G21G 3G19G18G 1G14G31G 9
  20931137.5094    -560186.64449   -438200.28047  20931137.3454   20931138.9924
       243.0004        208.0004
  23025146.7494    1250120.99449    960418.15845  23025146.1134   23025150.9354
       220.0004        157.0004
  22706379.2924     289527.01749    221550.68246  22706378.5614   22706384.4934
       229.0004        177.0004
  22472270.9344   -1224614.18849   -951036.30247  22472269.9714   22472272.6644
       230.0004        188.0004
  22466905.8684     311434.94849    234435.36446  22466905.6654   22466908.3834
       229.0004        178.0004
  22703592.5724   -3071449.47949  -2373847.77946  22703591.8404   22703597.7834
       226.0004        173.0004
  20343574.9404   -1462481.97649  -1133977.94847  20343574.4064   20343577.9354
       237.0004        211.0004
                   -894186.78549   -671488.94343
       208.0004         74.0004
  23491760.5944     149594.22049    108551.31745  23491760.6334   23491763.4934
       217.0004        153.0004
 07  2 18  0 41 10.0000000  0  9G22G21G 3G19G18G 1G14G31G 9
  20931686.1414    -557303.51149   -435953.68047  20931685.8454   20931687.6894
       243.0004        208.0004
  23028153.0264    1265919.14149    972728.38145  23028153.5114   23028156.9124
       220.0004        157.0004
  22708138.1494     298769.84149    228752.88146  22708137.8934   22708143.2334
       229.0004        177.0004
  22472086.8164   -1225581.90849   -951790.37347  22472086.0194   22472088.4414
       230.0004        188.0004
  22468593.0434     320301.19049    241344.12146  22468592.5674   22468595.4204
       229.0004        178.0004
  22700861.1814   -3085803.08549  -2385032.39746  22700860.7014   22700865.6124
       226.0004        173.0004
  20343048.4904   -1465248.38949  -1136133.59247  20343048.0614   20343051.3994
       236.0004        211.0004
                   -911188.42949   -684736.97543
       209.0004         74.0004
  23493413.4454     158280.06249    115319.51345  23493413.4784   23493417.9524
       217.0004        153.0004
 07  2 18  0 41 15.0000000  0  9G22G21G 3G19G18G 1G14G31G 9
  20932235.5564    -554416.24849   -433703.86447  20932235.1854   20932237.0964
       243.0004        208.0004
  23031160.7714    1281724.77149    985044.45645  23031160.6094   23031163.6044
       220.0004        157.0004
  22709898.9164     308022.62949    235962.84646  22709898.0654   22709904.3804
       229.0004        177.0004
  22471905.5694   -1226534.43549   -952532.59647  22471904.2844   22471907.9434
       229.0004        188.0004
  22470280.7924     329170.20149    248255.04446  22470279.7694   22470283.2114
       229.0004        178.0004
  22698131.3344   -3100148.36549  -2396210.52546  22698131.5414   22698136.0154
       226.0004        173.0004
  20342524.6694   -1468001.03849  -1138278.50747  20342524.3834   20342527.5964
       237.0004        211.0004
                   -928192.04249   -697986.54143
       208.0004         74.0004
  23495069.3054     166981.67949    122099.99645  23495069.4124   23495073.3694
       216.0004        153.0004
 07  2 18  0 41 20.0000000  0  9G22G21G 3G19G18G 1G14G31G 9
  20932785.8354    -551524.51849   -431450.56547  20932785.4544   20932787.4404
       243.0004        208.0004
  23034169.9774    1297538.27349    997366.68145  23034170.3464   23034172.5094
       221.0004        157.0004
  22711661.6284     317285.73149    243180.83946  22711661.8044   22711666.6244
       227.0004        177.0004
  22471727.2724   -1227471.39749   -953262.69547  22471726.2084   22471729.1204
       229.0004        188.0004
  22471969.1084     338042.35249    255168.40046  22471968.6204   22471972.0674
       229.0004        178.0004
  22695403.1784   -3114484.90549  -2407381.84246  22695402.2904   22695408.1974
       226.0004        173.0004
  20342003.5564   -1470739.52849  -1140412.39447  20342003.1344   20342006.6244
       237.0004        211.0004
                   -945197.24049   -711237.34343
       206.0004         74.0004
  23496728.2724     175699.56049    128893.14145  23496728.3134   23496733.2134
       216.0004        153.0004
 07  2 18  0 41 25.0000000  0  9G22G21G 3G19G18G 1G14G31G 9
  20933336.8344    -548628.86549   -429194.21147  20933336.5034   20933338.3074
       244.0004        208.0004
  23037180.6254    1313359.04749   1009694.55645  23037181.5214   23037183.9794
       222.0004        157.0004
  22713426.1654     326558.46149    250406.34446  22713425.4834   22713431.2064
       228.0004        177.0004
  22471551.8284   -1228393.38549   -953981.12547  22471550.6194   22471554.0714
       229.0004        188.0004
  22473657.9064     346916.98749    262083.71646  22473657.3214   22473660.4894
       229.0004        178.0004
  22692676.5804   -3128813.32249  -2418546.83246  22692675.5884   22692681.6144
       226.0004        173.0004
  20341485.0124   -1473464.49549  -1142535.74447  20341484.6434   20341487.9344
       237.0004        211.0004
                   -962204.60449   -724490.13543
       209.0004         74.0004
  23498390.1844     184432.99149    135698.42345  23498390.2434   23498393.8734
       217.0004        153.0004
 07  2 18  0 41 30.0000000  0  9G22G21G 3G19G18G 1G14G31G 9
  20933888.6584    -545729.00849   -426934.58447  20933888.3914   20933890.1214
       243.0004        208.0004
  23040192.6934    1329187.40649   1022028.35045  23040192.9364   23040196.0894
       220.0004        156.0004
  22715192.5924     335841.15249    257639.60846  22715192.1604   22715197.4944
       228.0004        177.0004
  22471379.2854   -1229300.14349   -954687.69247  22471377.9694   22471381.5944
       229.0004        188.0004
  22475347.2554     355794.47249    269001.22446  22475346.4414   22475350.4214
       228.0004        178.0004
  22689951.5734   -3143133.31549  -2429705.26046  22689950.5644   22689956.4044
       226.0004        174.0004
  20340969.1014   -1476175.65849  -1144648.33447  20340968.5804   20340971.9964
       237.0004        211.0004
                   -979213.79149   -737744.16543
       206.0004         74.0004
  23500055.1594     193182.36049    142516.11945  23500055.7104   23500059.6874
       216.0004        152.0004
 07  2 18  0 41 35.0000000  0  9G22G21G 3G19G18G 1G14G31G 9
  20934441.3064    -542824.79249   -424671.55447  20934441.1184   20934442.8814
       243.0004        208.0004
  23043206.2424    1345023.53249   1034368.18745  23043205.4014   23043210.1504
       219.0004        155.0004
  22716960.9084     345133.96449    264880.75446  22716960.5754   22716965.6094
       229.0004        177.0004
  22471209.6414   -1230191.50349   -955382.26047  22471208.7964   22471212.0024
       229.0004        188.0004
  22477037.1534     364674.96649    275921.09646  22477036.5514   22477039.8704
       229.0004        178.0004
  22687228.1844   -3157444.67849  -2440856.95046  22687227.5194   22687233.2404
       227.0004        174.0004
  20340455.8584   -1478872.83049  -1146750.02447  20340455.2764   20340458.9704
       237.0004        211.0004
                   -996224.64149   -750999.40543
       208.0004         74.0004
  23501723.1474     201947.74849    149346.28645  23501723.2764   23501727.0194
       215.0004        152.0004
 07  2 18  0 41 40.0000000  0  9G22G21G 3G19G18G 1G14G31G 9
  20934994.7444    -539916.48349   -422405.34247  20934994.5954   20934996.1884
       243.0004        208.0004
  23046221.1914    1360867.12349   1046713.85745  23046220.2044   23046224.6264
       218.0004        155.0004
  22718731.1364     354436.59649    272129.55046  22718731.0604   22718736.3094
       229.0004        177.0004
  22471042.8834   -1231067.74149   -956065.04247  22471041.6924   22471045.1774
       228.0004        188.0004
  22478727.5694     373558.16149    282843.06546  22478726.5114   22478730.6394
       229.0004        178.0004
  22684506.4124   -3171747.71049  -2452002.17146  22684505.1344   22684512.4744
       226.0004        174.0004
  20339945.1904   -1481556.27249  -1148841.01847  20339944.8494   20339948.1724
       236.0004        211.0004
                  -1013237.39749   -764256.07943
       208.0004         74.0004
  23503394.1724     210728.90049    156188.74345  23503393.9894   23503399.5544
       214.0004        152.0004
 07  2 18  0 41 45.0000000  0  9G22G21G 3G19G18G 1G14G31G 9
  20935549.0134    -537003.80949   -420135.72147  20935548.7314   20935550.6954
       244.0004        208.0004
  23049237.5844    1376718.39849   1059065.47945  23049236.9854   23049240.2714
       217.0004        155.0004
  22720503.2984     363749.29849    279386.19846  22720502.8334   22720508.1094
       228.0004        177.0004
  22470879.0534   -1231928.60849   -956735.84747  22470877.4654   22470881.3234
       229.0004        188.0004
  22480418.5724     382444.32949    289767.35246  22480418.3904   22480421.3744
       229.0004        178.0004
  22681786.2774   -3186042.14549  -2463140.67646  22681786.0464   22681791.7574
       227.0004        174.0004
  20339437.2324   -1484225.71949  -1150921.10147  20339436.8214   20339440.2044
       237.0004        211.0004
                  -1030251.82149   -777514.03443
       208.0004         74.0004
  23505068.1914     219526.04549    163043.66745  23505068.1804   23505072.6104
       215.0004        151.0004
 07  2 18  0 41 50.0000000  0  9G22G21G 3G19G18G 1G14G31G 9
  20936104.0724    -534086.96349   -417862.85547  20936104.0374   20936105.4834
       243.0004        208.0004
  23052255.4254    1392577.14649   1071422.94445  23052255.3564   23052259.8264
       219.0004        155.0004
  22722277.3304     373071.89049    286650.55146  22722276.9754   22722282.0104
       229.0004        177.0004
  22470718.1014   -1232774.27349   -957394.80347  22470717.0464   22470720.0204
       230.0004        188.0004
  22482110.0714     391333.28449    296693.82046  22482109.9694   22482112.5874
       229.0004        178.0004
  22679067.7394   -3200328.16049  -2474272.62246  22679067.3184   22679073.0554
       227.0004        175.0004
  20338931.8804   -1486881.39849  -1152990.45847  20338931.3714   20338934.9084
       237.0004        211.0004
                  -1047268.07149   -790773.37743
       209.0004         74.0004
  23506745.2074     228339.02749    169910.92745  23506744.0504   23506749.2054
       213.0004        151.0004
 07  2 18  0 41 55.0000000  0  9G22G21G 3G19G18G 1G14G31G 9
  20936659.9174    -531165.99749   -415586.77647  20936659.7024   20936661.3904
       243.0004        208.0004
  23055274.6394    1408443.36549   1083786.21345  23055274.7754   23055279.6954
       219.0004        156.0004
  22724053.2414     382404.34049    293922.58846  22724053.1254   22724057.9094
       228.0004        177.0004
  22470560.0534   -1233604.76049   -958041.93147  22470558.6064   22470562.0504
       229.0004        188.0004
  22483802.0994     400224.98349    303622.41846  22483801.3384   22483804.8694
       229.0004        178.0004
  22676350.7764   -3214605.76649  -2485398.03146  22676350.5994   22676355.4004
       228.0004        175.0004
  20338429.1474   -1489523.32749  -1155049.10147  20338428.7094   20338432.3434
       236.0004        211.0004
                  -1064286.18249   -804034.16243
       209.0004         74.0004
  23508425.2374     237167.76349    176790.47045  23508425.5564   23508428.7474
       214.0004        151.0004
 07  2 18  0 42  0.0000000  0  9G22G21G 3G19G18G 1G14G31G 9
  20937216.5814    -528240.72249   -413307.34247  20937216.3874   20937218.1674
       243.0004        208.0004
  23058295.3384    1424317.17549   1096155.42245  23058296.5934   23058298.2934
       220.0004        156.0004
  22725831.0604     391746.75349    301202.39646  22725830.8054   22725835.5304
       228.0004        177.0004
  22470404.9554   -1234419.88649   -958677.09747  22470404.2734   22470406.9744
       229.0004        188.0004
  22485494.6634     409119.63249    310553.31046  22485494.2064   22485497.5224
       229.0004        178.0004
  22673635.4974   -3228874.81049  -2496516.75046  22673635.4094   22673640.2944
       227.0004        175.0004
  20337929.0504   -1492151.35849  -1157096.91547  20337928.6854   20337932.1624
       237.0004        211.0004
                  -1081305.95849   -817296.25043
       209.0004         74.0004
  23510108.2884     246012.46649    183682.44745  23510108.2614   23510113.4954
       213.0004        151.0004
 07  2 18  0 42  5.0000000  0  9G22G21G 3G19G18G 1G14G31G 9
  20937774.0524    -525311.26549   -411024.64547  20937774.0314   20937775.6954
       243.0004        208.0004
  23061317.4914    1440198.45949   1108530.46045  23061317.9624   23061321.4184
       218.0004        156.0004
  22727610.7604     401099.02449    308489.87446  22727610.7624   22727615.5164
       228.0004        177.0004
  22470252.7454   -1235219.77749   -959300.38247  22470251.4994   22470254.9114
       228.0004        188.0004
  22487187.7954     418017.06649    317486.37846  22487187.2244   22487190.5274
       229.0004        178.0004
  22670921.8134   -3243135.37849  -2507628.87246  22670921.7174   22670927.0044
       228.0004        175.0004
  20337431.5734   -1494765.59849  -1159133.97947  20337431.1494   20337434.3424
       236.0004        211.0004
                  -1098327.56549   -830559.77243
       209.0004         74.0004
  23511794.3554     254872.95549    190586.72545  23511794.9834   23511798.7854
       213.0004        151.0004
 07  2 18  0 42 10.0000000  0  9G22G21G 3G19G18G 1G14G31G 9
  20938332.3144    -522377.59349   -408738.66447  20938332.1544   20938334.0324
       243.0004        208.0004
  23064341.0624    1456087.31949   1120911.37945  23064340.0504   23064345.9554
       216.0004        156.0004
  22729392.3134     410461.19949    315785.08146  22729392.3094   22729397.0894
       228.0004        177.0004
  22470103.4554   -1236004.37049   -959911.75947  22470102.3524   22470105.8244
       229.0004        188.0004
  22488881.4824     426917.33849    324421.65746  22488881.0824   22488884.0594
       230.0004        178.0004
  22668209.7604   -3257387.43249  -2518734.35446  22668208.7164   22668214.7364
       227.0004        175.0004
  20336936.7394   -1497366.01549  -1161160.27447  20336936.2824   20336939.5944
       237.0004        211.0004
                  -1115350.85849   -843824.61443
       209.0004         74.0004
  23513483.4474     263749.34649    197503.40045  23513482.6354   23513487.8924
       213.0004        151.0004
 07  2 18  0 42 15.0000000  0  9G22G21G 3G19G18G 1G14G31G 9
  20938891.3684    -519439.62849   -406449.34447  20938891.1174   20938893.1184
       243.0004        208.0004
  23067366.0554    1471983.75049   1133298.18845  23067365.1654   23067369.8064
       217.0004        155.0004
  22731175.7804     419833.31449    323088.02746  22731175.1454   22731180.0484
       229.0004        177.0004
  22469957.0274   -1236773.71849   -960511.24947  22469955.6334   22469959.0204
       228.0004        188.0004
  22490575.6684     435820.49749    331359.18046  22490575.5394   22490579.0674
       228.0004        178.0004
  22665499.3474   -3271630.88949  -2529833.14246  22665499.0424   22665504.6164
       228.0004        175.0004
  20336444.5224   -1499952.55249  -1163175.76147  20336444.1734   20336447.5014
       237.0004        211.0004
                  -1132375.81249   -857090.76844                  24473311.0174
       209.0004        106.0004
  23515175.5884     272641.62649    204432.44145  23515175.4734   23515180.0544
       215.0004        151.0004
 07  2 18  0 42 20.0000000  0  9G22G21G 3G19G18G 1G14G31G 9
  20939451.2454    -516497.44149   -404156.73047  20939451.1304   20939452.7724
       243.0004        208.0004
  23070392.4344    1487887.72349   1145690.90045  23070391.3304   23070395.3174
       216.0004        155.0004
  22732961.0994     429215.25249    330398.63146  22732960.3194   22732966.3334
       228.0004        176.0004
  22469813.5004   -1237527.81849   -961098.85447  22469812.3034   22469815.4354
       228.0004        188.0004
  22492270.4394     444726.49449    338298.91746  22492269.6364   22492273.2494
       228.0004        177.0004
  22662790.5444   -3285865.84249  -2540925.30446  22662789.7274   22662795.3434
       227.0004        175.0004
  20335954.9634   -1502525.27049  -1165180.47147  20335954.5524   20335957.8394
       236.0004        211.0004
                  -1149402.47149   -870358.26144                  24470070.6194
       209.0004        123.0004
  23516870.7584     281549.73049    211373.82845  23516871.5494   23516874.9074
       216.0004        151.0004
 07  2 18  0 42 25.0000000  0  9G22G21G 3G19G18G 1G14G31G 9
  20940011.9144    -513551.19249   -401860.94747  20940011.5924   20940013.4874
       243.0004        208.0004
  23073420.2464    1503799.02049   1158089.31845  23073420.4334   23073423.5994
       217.0004        154.0004
  22734748.2844     438606.92049    337716.80646  22734747.8624   22734753.3574
       228.0004        176.0004
  22469672.8574   -1238266.79149   -961674.67847  22469671.7904   22469675.2964
       228.0004        188.0004
  22493965.6994     453635.16249    345240.73646  22493965.3224   22493968.0504
       229.0004        177.0004
  22660083.3284   -3300092.45149  -2552010.96546  22660082.7814   22660088.9284
       228.0004        175.0004
  20335468.0054   -1505084.32049  -1167174.53247  20335467.5994   20335471.0394
       236.0004        211.0004
                  -1166431.00349   -883627.22044                  24466830.1484
       209.0004        130.0004
  23518568.9484     290473.52249    218327.44145  23518568.3744   23518574.4924
       215.0004        152.0004
 07  2 18  0 42 30.0000000  0  9G22G21G 3G19G18G 1G14G31G 9
  20940573.3884    -510600.58449   -399561.77347  20940573.4034   20940575.0564
       243.0004        208.0004
  23076449.5164    1519717.98949   1170493.70645  23076449.7164   23076454.2214
       215.0004        154.0004
  22736537.3584     448008.66049    345042.83346  22736537.3534   22736542.3324
       228.0004        176.0004
  22469535.1714   -1238990.31449   -962238.45947  22469534.3954   22469537.5614
       228.0004        188.0004
  22495661.5154     462546.83649    352184.90746  22495661.2484   22495664.4104
       229.0004        177.0004
  22657377.7374   -3314310.34649  -2563089.84846  22657377.3944   22657382.6814
       227.0004        175.0004
  20334983.6734   -1507629.36949  -1169157.68647  20334983.1044   20334986.8164
       237.0004        211.0004
                  -1183461.01649   -896897.33845                  24463589.4794
       207.0004        135.0004
  23520270.1344     299413.27149    225293.48645  23520269.8164   23520275.2104
       216.0004        152.0004
 07  2 18  0 42 35.0000000  0  9G22G21G 3G19G18G 1G14G31G 9
  20941135.6394    -507645.89349   -397259.41547  20941135.4844   20941137.2694
       243.0004        208.0004
  23079480.1954    1535644.32449   1182903.84445  23079479.5094   23079484.8994
       216.0004        154.0004
  22738328.3204     457420.13449    352376.45546  22738327.4134   22738333.3454
       228.0004        176.0004
  22469400.3774   -1239698.68349   -962790.43747  22469398.9494   22469402.6264
       228.0004        188.0004
  22497357.8634     471461.22249    359131.17946  22497357.6834   22497360.2824
       228.0004        177.0004
  22654673.7634   -3328519.85849  -2574162.17346  22654672.8164   22654678.9104
       227.0004        175.0004
  20334501.9824   -1510160.74249  -1171130.17847  20334501.3984   20334504.8614
       236.0004        211.0004
                  -1200492.89949   -910168.90945                  24460347.8484
       206.0004        138.0004
  23521974.3304     308368.70849    232271.74545  23521973.9264   23521978.8094
       214.0004        152.0004
 07  2 18  0 42 40.0000000  0  9G22G21G 3G19G18G 1G14G31G 9
  20941698.7144    -504686.96549   -394953.75647  20941698.5844   20941700.1944
       243.0004        208.0004
  23082512.2884    1551578.22949   1195319.84745  23082512.2094   23082517.4324
       216.0004        154.0004
  22740121.1194     466841.41349    359717.70346  22740120.8324   22740125.9224
       227.0004        176.0004
  22469268.4594   -1240391.76749   -963330.49747  22469267.4604   22469270.9004
       229.0004        188.0004
  22499054.7744     480378.48349    366079.68946  22499054.5394   22499057.8504
       230.0004        177.0004
  22651971.4114   -3342720.78349  -2585227.82246  22651970.0974   22651976.1334
       228.0004        175.0004
  20334022.9014   -1512678.27349  -1173091.88847  20334022.4494   20334025.5854
       237.0004        211.0004
  24457097.6124   -1217526.36949   -923441.71945  24457098.6134   24457106.3344
       207.0004        140.0004
  23523681.5314     317339.98749    239262.34745  23523681.4844   23523686.3474
       213.0004        152.0004
 07  2 18  0 42 45.0000000  0  9G22G21G 3G19G18G 1G14G31G 9
  20942262.5674    -501723.89549   -392644.87347  20942262.5834   20942264.2114
       244.0004        208.0004
  23085545.8274    1567519.50949   1207741.62845  23085545.9294   23085549.7604
       216.0004        155.0004
  22741915.7924     476272.43849    367066.55346  22741915.5104   22741920.7844
       227.0004        176.0004
  22469139.4544   -1241069.65849   -963858.72447  22469138.2494   22469141.8224
       229.0004        188.0004
  22500752.1844     489298.52749    373030.37946  22500752.1134   22500754.9374
       228.0004        177.0004
  22649270.6474   -3356913.23249  -2596286.87346  22649270.0474   22649275.0774
       226.0004        175.0004
  20333546.4254   -1515182.08949  -1175042.91447  20333545.8994   20333549.4804
       236.0004        211.0004
  24453855.7894   -1234561.55649   -936715.87145  24453857.3774   24453864.2834
       208.0004        142.0004
  23525391.6884     326326.96449    246265.19245  23525390.9614   23525395.7664
       213.0004        153.0004
 07  2 18  0 42 50.0000000  0  9G22G21G 3G19G18G 1G14G31G 9
  20942827.2114    -498756.63849   -390332.72247  20942827.1824   20942828.9524
       243.0004        209.0004
  23088580.7934    1583468.25149   1220169.21545  23088579.4994   23088584.5004
       215.0004        154.0004
  22743712.2904     485713.16549    374422.95846  22743711.3264   22743717.2784
       228.0004        176.0004
  22469013.3674   -1241732.36449   -964375.11847  22469012.0074   22469015.5304
       229.0004        188.0004
  22502450.1504     498221.34749    379983.22346  22502449.5084   22502452.9084
       229.0004        177.0004
  22646571.5184   -3371097.22549  -2607339.31146  22646570.7454   22646577.0374
       226.0004        175.0004
  20333072.5744   -1517672.18149  -1176983.24147  20333071.9874   20333075.5154
       237.0004        211.0004
  24450613.8644   -1251598.46249   -949991.35945  24450616.2614   24450621.8914
       209.0004        143.0004
  23527104.8324     335329.70149    253280.30245  23527104.1854   23527111.0754
       214.0004        153.0004
 07  2 18  0 42 55.0000000  0  9G22G21G 3G19G18G 1G14G31G 9
  20943392.6864    -495785.07149   -388017.21347  20943392.5014   20943394.1084
       244.0004        209.0004
  23091617.1994    1599424.52249   1232602.66345  23091616.2474   23091620.0764
       215.0004        154.0004
  22745510.6644     495163.70349    381787.01746  22745510.5614   22745516.3314
       228.0004        176.0004
  22468890.1584   -1242379.71549   -964879.54847  22468888.7624   22468891.8724
       228.0004        188.0004
  22504148.6804     507147.13549    386938.38846  22504147.5034   22504151.0224
       228.0004        177.0004
  22643874.0144   -3385272.52749  -2618384.99946  22643873.6324   22643878.4804
       227.0004        175.0004
  20332601.3764   -1520148.37149  -1178912.73747  20332600.8034   20332604.3274
       237.0004        211.0004
  24447371.7094   -1268636.87149   -963268.01545  24447374.1254   24447379.5164
       210.0004        144.0004
  23528820.9804     344348.33849    260307.80245  23528821.1864   23528825.2144
       215.0004        153.0004
 07  2 18  0 43  0.0000000  0  9G22G21G 3G19G18G 1G14G31G 9
  20943958.9304    -492809.35049   -385698.46947  20943958.9594   20943960.3384
       244.0004        209.0004
  23094654.9764    1615388.20749   1245041.87845  23094655.2134   23094657.9214
       214.0004        154.0004
  22747310.8824     504623.98249    389158.66046  22747310.4854   22747316.1934
       227.0004        176.0004
  22468769.8664   -1243011.83149   -965372.10547  22468768.8154   22468772.2014
       229.0004        188.0004
  22505847.7484     516075.75249    393895.75146  22505847.3864   22505850.4724
       229.0004        177.0004
  22641178.1554   -3399439.28449  -2629424.02246  22641177.3294   22641182.5204
       227.0004        175.0004
  20332132.7874   -1522610.77349  -1180831.48747  20332132.4084   20332135.7574
       236.0004        211.0004
  24444129.3284   -1285676.90149   -976545.93045  24444131.3604   24444137.0294
       212.0004        145.0004
  23530540.1594     353382.73249    267347.59945  23530540.2864   23530544.8124
       214.0004        153.0004
 07  2 18  0 43  5.0000000  0  9G22G21G 3G19G18G 1G14G31G 9
  20944526.0024    -489829.49549   -383376.50447  20944526.0764   20944527.4874
       244.0004        209.0004
  23097694.1604    1631359.25449   1257486.85645  23097693.8494   23097697.7054
       216.0004        154.0004
  22749112.9514     514093.95149    396537.85646  22749112.6274   22749118.0884
       228.0004        176.0004
  22468652.4354   -1243628.78849   -965852.84447  22468650.8774   22468654.8724
       229.0004        188.0004
  22507547.3244     525007.12549    400855.25546  22507547.2094   22507549.6164
       229.0004        177.0004
  22638483.9124   -3413597.53249  -2640456.41946  22638483.2744   22638488.8414
       227.0004        175.0004
  20331666.8094   -1525059.44949  -1182739.54347  20331666.2904   20331669.7444
       236.0004        211.0004
  24440886.6244   -1302718.61149   -989825.15845  24440888.2654   24440893.3384
       211.0004        146.0004
  23532262.3054     362432.76749    274399.57545  23532261.6644   23532267.1474
       216.0004        153.0004
 07  2 18  0 43 10.0000000  0  9G22G21G 3G19G18G 1G14G31G 9
  20945093.8304    -486845.47249   -381051.29047  20945093.6734   20945095.6034
       244.0004        209.0004
  23100734.7434    1647337.66349   1269937.56145  23100734.5844   23100738.3394
       217.0004        154.0004
  22750916.8604     523573.61449    403924.60246  22750916.5084   22750921.4674
       228.0004        176.0004
  22468537.9194   -1244230.53649   -966321.74247  22468537.4054   22468540.2864
       230.0004        188.0004
  22509247.4324     533941.26749    407816.93846  22509246.3134   22509250.6504
       228.0004        177.0004
  22635791.2994   -3427747.23949  -2651482.14946  22635790.3584   22635796.1334
       227.0004        175.0004
  20331203.4804   -1527494.35649  -1184636.87147  20331202.9314   20331206.5184
       236.0004        211.0004
  24437643.5704   -1319761.90649  -1003105.62645  24437645.1104   24437649.8394
       210.0004        146.0004
  23533987.4554     371498.51949    281463.80345  23533986.9704   23533993.2064
       217.0004        154.0004
 07  2 18  0 43 15.0000000  0  9G22G21G 3G19G18G 1G14G31G 9
  20945662.4984    -483857.15849   -378722.73347  20945662.4404   20945664.0374
       243.0004        209.0004
  23103776.7854    1663323.58749   1282394.11145  23103776.2494   23103780.3714
       217.0004        154.0004
  22752722.6314     533063.06849    411318.97846  22752722.3384   22752727.9584
       228.0004        176.0004
  22468426.3214   -1244816.97749   -966778.71347  22468425.6134   22468428.5004
       229.0004        188.0004
  22510948.1194     542878.31549    414780.86846  22510947.5454   22510951.5804
       229.0004        177.0004
  22633100.3294   -3441888.26549  -2662501.13046  22633099.7814   22633104.8304
       228.0004        175.0004
  20330742.7574   -1529915.39849  -1186523.39447  20330742.0604   20330745.7234
       236.0004        211.0004
  24434400.2284   -1336806.70849  -1016387.27245  24434401.6864   24434406.4694
       210.0004        147.0004
  23535715.6504     380580.05949    288540.32945  23535715.9334   23535720.5994
       215.0004        154.0004
 07  2 18  0 43 20.0000000  0  9G22G21G 3G19G18G 1G14G31G 9
  20946231.9234    -480864.77849   -376391.00447  20946231.7464   20946233.5014
       243.0004        208.0004
  23106820.1824    1679316.81349   1294856.36445  23106820.2514   23106824.7824
       217.0004        155.0004
  22754530.2674     542562.08249    418720.80646  22754529.9374   22754535.9104
       228.0004        176.0004
  22468317.6024   -1245388.36049   -967223.94947  22468316.9384   22468319.9534
       230.0004        188.0004
  22512649.2874     551818.10249    421746.93446  22512648.6884   22512652.1074
       228.0004        177.0004
  22630410.9934   -3456020.82749  -2673513.50246  22630409.7134   22630415.7424
       227.0004        175.0004
  20330284.6444   -1532322.80049  -1188399.29147  20330284.0674   20330287.5614
       236.0004        211.0004
  24431156.4794   -1353853.21149  -1029670.24045  24431157.9914   24431162.7024
       209.0004        147.0004
  23537446.7924     389677.20049    295629.00945  23537446.4854   23537451.0434
       216.0004        155.0004
 07  2 18  0 43 25.0000000  0  9G22G21G 3G19G18G 1G14G31G 9
  20946802.1844    -477868.05249   -374055.89147  20946802.0414   20946803.5104
       243.0004        208.0004
  23109865.0354    1695317.57749   1307324.50245  23109864.4944   23109867.5174
       216.0004        155.0004
  22756339.7654     552070.92649    426130.29846  22756339.9944   22756344.3634
       227.0004        176.0004
  22468211.7974   -1245944.42249   -967657.23747  22468211.1714   22468214.3454
       229.0004        188.0004
  22514351.0444     560760.88349    428715.34246  22514350.1304   22514353.5654
       228.0004        177.0004
  22627723.3094   -3470144.65949  -2684519.07346  22627722.4944   22627728.1744
       227.0004        175.0004
  20329829.1674   -1534716.27249  -1190264.32647  20329828.8324   20329831.9534
       236.0004        211.0004
  24427912.4264   -1370901.10449  -1042954.29045  24427913.5174   24427919.4324
       209.0004        147.0004
  23539180.9374     398790.20149    302730.05445  23539180.2454   23539186.5234
       214.0004        155.0004
 07  2 18  0 43 30.0000000  0  9G22G21G 3G19G18G 1G14G31G 9
  20947373.2154    -474867.17649   -371717.54747  20947373.1154   20947374.6394
       243.0004        208.0004
  23112911.2744    1711325.68149   1319798.33945  23112910.0254   23112915.4494
       215.0004        155.0004
  22758151.0664     561589.36049    433547.25746  22758150.9204   22758156.0414
       228.0004        176.0004
  22468108.8744   -1246485.25849   -968078.66647  22468107.8034   22468111.3184
       230.0004        188.0004
  22516053.3074     569706.46049    435685.91746  22516052.7714   22516055.7704
       228.0004        176.0004
  22625037.2304   -3484259.96749  -2695518.00746  22625036.7734   22625042.3434
       224.0004        175.0004
  20329376.3164   -1537096.04549  -1192118.69447  20329375.7864   20329379.2734
       236.0004        211.0004
  24424668.0794   -1387950.62449  -1056239.60345  24424669.1634   24424675.2164
       209.0004        147.0004
  23540918.0764     407918.83049    309843.28145  23540918.4714   23540922.3114
       215.0004        155.0004
 07  2 18  0 43 35.0000000  0  9G22G21G 3G19G18G 1G14G31G 9
  20947945.0824    -471862.03649   -369375.87847  20947944.9694   20947946.4524
       244.0004        208.0004
  23115958.9514    1727341.24849   1332277.99045  23115957.3264   23115963.0634
       216.0004        154.0004
  22759964.2314     571117.56149    440971.82146  22759963.9154   22759970.0984
       228.0004        176.0004
  22468008.8784   -1247010.78749   -968488.16947  22468008.6314   22468011.1954
       230.0004        188.0004
  22517756.1594     578654.94349    442658.76546  22517755.2924   22517758.3524
       228.0004        176.0004
  22622352.8144   -3498366.58849  -2706510.17046  22622351.7124   22622357.5634
       226.0004        175.0004
  20328926.0794   -1539461.99049  -1193962.28447  20328925.5884   20328929.1244
       237.0004        211.0004
  24421423.4044   -1405001.62449  -1069526.07045  24421424.1504   24421430.2494
       212.0004        147.0004
  23542658.1854     417063.23149    316968.79245  23542658.2274   23542663.1874
       217.0004        155.0004
 07  2 18  0 43 40.0000000  0  9G22G21G 3G19G18G 1G14G31G 9
  20948517.6924    -468852.82949   -367031.04047  20948517.6934   20948519.2134
       244.0004        208.0004
  23119007.9794    1743364.07749   1344763.30445  23119007.8644   23119011.7174
       215.0004        155.0004
  22761779.2174     580655.38149    448403.89346  22761779.3384   22761784.3844
       228.0004        176.0004
  22467911.7624   -1247521.19249   -968885.88247  22467910.8994   22467913.3484
       229.0004        188.0004
  22519459.4724     587606.11449    449633.70046  22519458.8034   22519461.7684
       228.0004        176.0004
  22619670.0414   -3512464.73949  -2717495.73846  22619669.5294   22619675.1184
       226.0004        175.0004
  20328478.4514   -1541814.28649  -1195795.23647  20328477.9384   20328481.5704
       237.0004        211.0004
  24418178.4224   -1422054.24249  -1082813.79345  24418179.4364   24418185.5584
       210.0004        147.0004
  23544401.2704     426223.19749    324106.42045  23544401.0704   23544407.2244
       215.0004        156.0004
 07  2 18  0 43 45.0000000  0  9G22G21G 3G19G18G 1G14G31G 9
  20949091.1064    -465839.52549   -364683.01147  20949091.0464   20949092.7884
       244.0004        208.0004
  23122058.3974    1759394.27349   1357254.35145  23122058.3724   23122062.5824
       217.0004        155.0004
  22763596.0084     590202.75349    455843.40146  22763595.7814   22763600.7594
       227.0004        175.0004
  22467817.5254   -1248016.40049   -969271.75947  22467816.6444   22467819.7954
       229.0004        188.0004
  22521163.3364     596560.03549    456610.78746  22521162.8834   22521165.6574
       228.0004        176.0004
  22616988.8774   -3526554.36249  -2728474.65346  22616988.2154   22616993.9554
       226.0004        175.0004
  20328033.4454   -1544152.87949  -1197617.51447  20328033.0164   20328036.4904
       237.0004        211.0004
  24414933.1204   -1439108.44349  -1096102.75445  24414933.7034   24414939.7934
       211.0004        147.0004
  23546147.3314     435398.77849    331256.22645  23546146.5524   23546152.1004
       215.0004        156.0004
 07  2 18  0 43 50.0000000  0  9G22G21G 3G19G18G 1G14G31G 9
  20949665.3734    -462821.84249   -362331.57047  20949665.4784   20949667.0334
       244.0004        208.0004
  23125110.3214    1775432.03949   1369751.31045  23125111.3094   23125113.1264
       217.0004        156.0004
  22765414.7104     599759.99349    463290.60746  22765414.5614   22765419.9334
       228.0004        175.0004
  22467726.2244   -1248496.18649   -969645.61947  22467725.1184   22467728.5384
       229.0004        188.0004
  22522867.7884     605517.01549    463590.24746  22522867.2634   22522870.6524
       228.0004        176.0004
  22614309.3774   -3540635.16049  -2739446.69646  22614308.7004   22614314.7084
       225.0004        175.0004
  20327591.0734   -1546477.50949  -1199428.91147  20327590.7024   20327594.0744
       237.0004        211.0004
  24411687.5834   -1456163.97249  -1109392.75545  24411688.1504   24411693.5384
       210.0004        147.0004
  23547896.4074     444590.24249    338418.40745  23547895.5414   23547901.2464
       218.0004        156.0004
 07  2 18  0 43 55.0000000  0  9G22G21G 3G19G18G 1G14G31G 9
  20950240.4174    -459799.99249   -359976.87847  20950240.2704   20950241.9184
       243.0004        208.0004
  23128163.5954    1791477.11749   1382253.98145  23128163.7054   23128166.0654
       217.0004        156.0004
  22767235.1694     609326.76549    470745.22646  22767234.7214   22767239.6424
       228.0004        175.0004
  22467637.7794   -1248960.79049   -970007.64647  22467636.6794   22467639.7154
       229.0004        188.0004
  22524572.7664     614476.79349    470571.89846  22524572.1834   22524575.9104
       228.0004        176.0004
  22611631.5194   -3554707.34949  -2750412.02246  22611631.0144   22611637.3154
       227.0004        175.0004
  20327151.3174   -1548788.44849  -1201229.63547  20327150.8164   20327154.2954
       236.0004        211.0004
  24408441.7834   -1473220.95949  -1122683.88945  24408442.3874   24408447.5614
       211.0004        147.0004
  23549648.4404     453797.30149    345592.74045  23549648.5184   23549653.4334
       216.0004        156.0004
 07  2 18  0 44  0.0000000  0  9G22G21G 3G19G18G 1G14G31G 9
  20950816.2734    -456773.84449   -357618.84047  20950816.1724   20950817.7994
       244.0004        208.0004
  23131218.3224    1807529.64649   1394762.43745  23131217.3614   23131222.5524
       217.0004        156.0004
  22769057.5224     618903.27149    478207.42946  22769057.0104   22769062.2434
       228.0004        175.0004
  22467552.2544   -1249410.09649   -970357.75747  22467551.3284   22467554.5994
       229.0004        188.0004
  22526278.3074     623439.52249    477555.83546  22526277.5234   22526280.7764
       228.0004        176.0004
  22608955.3044   -3568770.81249  -2761370.56446  22608955.2464   22608960.7424
       225.0004        175.0004
  20326714.1944   -1551085.50749  -1203019.55247  20326713.6594   20326717.2114
       236.0004        211.0004
  24405195.7004   -1490279.36449  -1135976.13545  24405196.7444   24405201.5924
       212.0004        146.0004
  23551403.4754     463020.11149    352779.34745  23551402.9034   23551408.1554
       216.0004        156.0004
 07  2 18  0 44  5.0000000  0  9G22G21G 3G19G18G 1G14G31G 9
  20951392.9064    -453743.65849   -355257.65847  20951392.6734   20951394.5024
       244.0004        208.0004
  23134274.3774    1823589.33549   1407276.46945  23134273.3864   23134278.4604
       216.0004        156.0004
  22770881.6594     628489.23049    485677.01246  22770880.8574   22770886.3634
       227.0004        175.0004
  22467469.6224   -1249844.34049   -970696.12947  22467468.5554   22467471.9944
       228.0004        188.0004
  22527984.3414     632404.90949    484541.85246  22527983.7914   22527988.0154
       227.0004        176.0004
  22606280.7324   -3582825.77049  -2772322.46246  22606279.8984   22606285.6344
       225.0004        175.0004
  20326279.6814   -1553368.96449  -1204798.86847  20326279.2904   20326282.6844
       236.0004        211.0004
  24401949.3334   -1507339.36849  -1149269.62645  24401949.9924   24401955.2874
       211.0004        146.0004
  23553161.4694     472258.41449    359978.03145  23553161.3064   23553165.9924
       218.0004        157.0004
 07  2 18  0 44 10.0000000  0  9G22G21G 3G19G18G 1G14G31G 9
  20951970.3434    -450709.21149   -352893.15247  20951970.1034   20951972.0504
       244.0004        208.0004
  23137331.8344    1839656.40549   1419796.26045  23137331.8384   23137336.7414
       217.0004        156.0004
  22772707.6694     638084.86349    493154.12246  22772706.8034   22772712.3224
       227.0004        175.0004
  22467389.8804   -1250263.30949   -971022.59247  22467388.6904   22467391.9184
       229.0004        188.0004
  22529690.9394     641373.20949    491530.14646  22529690.6304   22529693.5084
       229.0004        176.0004
  22603607.7864   -3596871.99249  -2783267.56146  22603606.9194   22603612.8794
       224.0004        175.0004
  20325847.7874   -1555638.57049  -1206567.38647  20325847.3194   20325850.7554
       237.0004        211.0004
  24398702.7114   -1524400.76649  -1162564.19345  24398703.2094   24398708.8794
       209.0004        146.0004
  23554922.4594     481512.45849    367188.98345  23554923.0964   23554926.4324
       218.0004        157.0004
 07  2 18  0 44 15.0000000  0  9G22G21G 3G19G18G 1G14G31G 9
  20952548.5564    -447670.65249   -350525.44147  20952548.4334   20952550.0764
       243.0004        208.0004
  23140390.7204    1855730.76349   1432321.73045  23140390.7114   23140395.2464
       217.0004        157.0004
  22774535.4574     647690.02249    500638.65446  22774535.0874   22774540.2884
       227.0004        175.0004
  22467313.0344   -1250667.17549   -971337.28947  22467312.1534   22467315.6574
       229.0004        188.0004
  22531398.0844     650344.28149    498520.58546  22531397.3784   22531400.2744
       228.0004        176.0004
  22600936.4544   -3610909.63849  -2794205.97346  22600935.4384   22600941.7614
       226.0004        175.0004
  20325418.5034   -1557894.51249  -1208325.26147  20325418.1364   20325421.5084
       237.0004        211.0004
  24395455.7884   -1541463.64449  -1175859.91245  24395456.1874   24395462.1404
       210.0004        147.0004
  23556686.4214     490782.08449    374412.07045  23556686.0564   23556690.6904
       216.0004        157.0004
 07  2 18  0 44 20.0000000  0  9G22G21G 3G19G18G 1G14G31G 9
  20953127.6064    -444627.80749   -348154.39347  20953127.4824   20953129.0904
       244.0004        208.0004
  23143451.0034    1871812.58149   1444852.99445  23143450.0034   23143455.9064
       216.0004        157.0004
  22776365.0974     657304.84949    508130.73546  22776364.6314   22776369.9854
       227.0004        175.0004
  22467239.0994   -1251055.72349   -971640.05547  22467238.4644   22467241.7984
       229.0004        188.0004
  22533105.7694     659318.27949    505513.30946  22533105.2364   22533108.9264
       228.0004        176.0004
  22598266.8334   -3624938.50149  -2805137.54646  22598266.2664   22598272.3164
       225.0004        175.0004
  20324991.8234   -1560136.59849  -1210072.33947  20324991.4714   20324994.7154
       236.0004        211.0004
  24392208.6134   -1558527.83649  -1189156.65245  24392209.0154   24392214.7604
       213.0004        147.0004
  23558453.3884     500067.45049    381647.42445  23558453.0924   23558456.7844
       218.0004        157.0004
 07  2 18  0 44 25.0000000  0  9G22G21G 3G19G18G 1G14G31G 9
  20953707.4224    -441580.88649   -345780.16947  20953707.1604   20953708.9644
       244.0004        208.0004
  23146512.6754    1887901.63049   1457389.91045  23146512.4134   23146516.7624
       218.0004        157.0004
  22778196.5164     666929.11649    515630.16446  22778196.7234   22778201.4904
       227.0004        174.0004
  22467168.0414   -1251429.16449   -971931.05247  22467167.0544   22467170.5574
       230.0004        188.0004
  22534814.0064     668294.99249    512508.16146  22534813.3934   22534816.7034
       227.0004        176.0004
  22595598.8244   -3638958.81749  -2816062.45946  22595597.2744   22595604.4224
       227.0004        175.0004
  20324567.7634   -1562365.07149  -1211808.81047  20324567.2954   20324570.8564
       236.0004        211.0004
  24388961.1464   -1575593.52449  -1202454.56545  24388962.0534   24388967.2114
       214.0004        148.0004
  23560223.2974     509368.34149    388894.86445  23560223.6374   23560228.0744
       216.0004        157.0004
 07  2 18  0 44 30.0000000  0  9G22G21G 3G19G18G 1G14G31G 9
  20954288.0524    -438529.62549   -343402.55947  20954287.7384   20954289.6344
       243.0004        208.0004
  23149575.7554    1903998.23349   1469932.71945  23149576.2924   23149579.8664
       218.0004        157.0004
  22780029.8094     676563.07249    523137.14046  22780029.5044   22780035.2904
       227.0004        174.0004
  22467099.9134   -1251787.25949   -972210.08647  22467098.9714   22467102.1884
       229.0004        188.0004
  22536522.7864     677274.73549    519505.35646  22536522.3604   22536525.4314
       228.0004        176.0004
  22592932.5004   -3652970.30549  -2826980.50146  22592931.7894   22592937.3254
       226.0004        175.0004
  20324146.3464   -1564579.64149  -1213534.44547  20324145.7874   20324149.3734
       237.0004        211.0004
  24385713.4504   -1592660.49349  -1215753.47645  24385714.2814   24385719.5484
       213.0004        148.0004
  23561996.2104     518684.97749    396154.58745  23561995.2904   23562000.6444
       216.0004        157.0004
 07  2 18  0 44 35.0000000  0  9G22G21G 3G19G18G 1G14G31G 9
  20954869.4294    -435474.36949   -341021.83747  20954869.2764   20954870.9364
       244.0004        208.0004
  23152640.2364    1920101.91149   1482481.05345  23152639.5414   23152643.8194
       216.0004        157.0004
  22781864.8454     686206.27349    530651.32546  22781864.6234   22781870.8804
       228.0004        174.0004
  22467034.6184   -1252130.35649   -972477.42847  22467033.8864   22467037.2864
       229.0004        188.0004
  22538232.1044     686257.13949    526504.63246  22538231.3274   22538234.8034
       228.0004        176.0004
  22590267.8094   -3666973.30649  -2837891.90946  22590267.6534   22590272.6914
       227.0004        175.0004
  20323727.4974   -1566780.66249  -1215249.51947  20323726.9774   20323730.5894
       237.0004        211.0004
  24382465.4444   -1609729.01049  -1229053.59645  24382466.0604   24382471.3784
       212.0004        149.0004
  23563772.0354     528017.05649    403426.33445  23563772.1604   23563777.4134
       218.0004        157.0004
 07  2 18  0 44 40.0000000  0  9G22G21G 3G19G18G 1G14G31G 9
  20955451.6804    -432414.70849   -338637.68947  20955451.4134   20955453.4184
       244.0004        208.0004
  23155706.1184    1936213.10449   1495035.21945  23155705.2194   23155709.5094
       216.0004        156.0004
  22783701.7204     695859.13049    538173.01646  22783701.7224   22783706.2754
       227.0004        174.0004
  22466972.2694   -1252458.02049   -972732.75647  22466970.7804   22466975.2084
       229.0004        188.0004
  22539941.9654     695242.57449    533506.26646  22539941.7634   22539945.2824
       228.0004        176.0004
  22587604.8344   -3680967.40149  -2848796.40146  22587604.3874   22587609.5034
       226.0004        176.0004
  20323311.3114   -1568967.73549  -1216953.73347  20323310.8954   20323314.2004
       237.0004        211.0004
  24379217.2544   -1626798.63649  -1242354.58045  24379217.8694   24379222.8024
       214.0004        149.0004
  23565550.9164     537364.97049    410710.41845  23565551.0384   23565555.2984
       218.0004        157.0004
 07  2 18  0 44 45.0000000  0  9G22G21G 3G19G18G 1G14G31G 9
  20956034.6944    -429350.91649   -336250.31747  20956034.5994   20956036.2964
       244.0004        208.0004
  23158773.3724    1952331.56649   1507595.03745  23158772.6954   23158775.9404
       219.0004        156.0004
  22785540.3904     705521.45549    545702.11446  22785540.4394   22785545.5344
       227.0004        174.0004
  22466912.7944   -1252770.51649   -972976.25447  22466912.0504   22466915.3964
       230.0004        188.0004
  22541652.3644     704230.84849    540510.11646  22541651.5694   22541655.2324
       228.0004        176.0004
  22584943.4854   -3694952.89749  -2859694.18046  22584943.3994   22584948.8514
       228.0004        176.0004
  20322897.7244   -1571141.11349  -1218647.27047  20322897.2414   20322900.6094
       237.0004        211.0004
  24375968.7644   -1643869.68149  -1255656.67045  24375969.1984   24375974.6424
       212.0004        150.0004
  23567332.7134     546728.35649    418006.57245  23567333.8144   23567336.8294
       218.0004        157.0004
 07  2 18  0 44 50.0000000  0  9G22G21G 3G19G18G 1G14G31G 9
  20956618.4854    -426282.96949   -333859.71047  20956618.4154   20956620.1324
       244.0004        208.0004
  23161842.0174    1968457.21349   1520160.49845  23161842.9004   23161845.0864
       218.0004        156.0004
  22787380.8854     715193.22849    553238.54946  22787380.3854   22787385.6654
       227.0004        174.0004
  22466856.2044   -1253067.85949   -973207.95247  22466855.3004   22466858.7534
       230.0004        188.0004
  22543363.3114     713221.92949    547516.16246  22543362.0354   22543366.7104
       228.0004        176.0004
  22582283.7844   -3708929.72549  -2870585.20846  22582283.5204   22582288.1834
       226.0004        176.0004
  20322486.7564   -1573300.83449  -1220330.16947  20322486.3754   20322489.8894
       236.0004        211.0004
  24372720.0084   -1660942.11549  -1268959.84545  24372720.2274   24372725.9084
       212.0004        150.0004
  23569117.5024     556107.31349    425314.86645  23569117.4604   23569123.0274
       217.0004        157.0004
 07  2 18  0 44 55.0000000  0  9G22G21G 3G19G18G 1G14G31G 9
  20957203.0924    -423210.92849   -331465.91247  20957203.1304   20957204.8044
       244.0004        208.0004
  23164912.0264    1984590.02849   1532731.52645  23164911.5454   23164915.2334
       217.0004        156.0004
  22789223.1454     724874.39049    560782.30746  22789222.2504   22789228.7794
       228.0004        174.0004
  22466802.5114   -1253350.12849   -973427.89947  22466801.2174   22466805.0344
       229.0004        188.0004
  22545074.7584     722215.70949    554524.30046  22545073.8804   22545078.1354
       228.0004        176.0004
  22579625.7164   -3722897.96649  -2881469.53946  22579624.9614   22579631.0704
       228.0004        176.0004
  20322078.3654   -1575446.95149  -1222002.46447  20322077.8484   20322081.2904
       237.0004        211.0004
  24369470.9854   -1678015.98749  -1282264.13345  24369471.0164   24369476.1964
       214.0004        150.0004
  23570905.2244     565501.69749    432635.15745  23570905.3324   23570909.4684
       217.0004        157.0004
 07  2 18  0 45  0.0000000  0  9G22G21G 3G19G18G 1G14G31G 9
  20957788.4814    -420134.56849   -329068.74647  20957788.2954   20957790.0114
       244.0004        208.0004
  23167983.4274    2000730.21749   1545308.29545  23167982.4104   23167987.3404
       215.0004        156.0004
  22791067.2484     734565.16849    568333.55846  22791067.0834   22791072.3394
       229.0004        174.0004
  22466751.7154   -1253617.07449   -973635.90847  22466750.7024   22466754.3524
       230.0004        188.0004
  22546786.7804     731212.46949    561534.75746  22546785.5454   22546790.2034
       228.0004        176.0004
  22576969.3184   -3736857.37649  -2892346.99746  22576968.8304   22576973.8514
       226.0004        176.0004
  20321672.6184   -1577579.22449  -1223663.97047  20321672.2594   20321675.7444
       236.0004        211.0004
  24366221.7294   -1695091.07949  -1295569.37745  24366221.7464   24366226.7624
       212.0004        151.0004
  23572695.9244     574911.80149    439967.70745  23572694.9134   23572700.1754
       214.0004        157.0004
 07  2 18  0 45  5.0000000  0  9G22G21G 3G19G18G 1G14G31G 9
  20958374.7114    -417054.01049   -326668.31047  20958374.5394   20958376.3494
       243.0004        208.0004
  23171056.1824    2016877.68149   1557890.71845  23171055.9124   23171061.6194
       217.0004        156.0004
  22792913.1694     744265.39549    575892.18046  22792912.9354   22792918.8904
       226.0004        174.0004
  22466703.8294   -1253868.74549   -973832.01547  22466703.0954   22466705.7394
       229.0004        188.0004
  22548499.3584     740212.10449    568547.46046  22548498.4994   22548502.3214
       227.0004        176.0004
  22574314.5934   -3750808.03849  -2903217.63246  22574313.7484   22574318.9684
       228.0004        176.0004
  20321269.4424   -1579697.77849  -1225314.78847  20321268.9484   20321272.3604
       237.0004        211.0004
  24362972.2074   -1712167.44549  -1308875.61245  24362972.4154   24362977.4334
       213.0004        152.0004
  23574489.5574     584337.49049    447312.40445  23574489.0514   23574493.8114
       218.0004        157.0004
 07  2 18  0 45 10.0000000  0  9G22G21G 3G19G18G 1G14G31G 9
  20958961.6614    -413969.47949   -324264.77947  20958961.5034   20958963.1684
       244.0004        208.0004
  23174130.2914    2033032.17149   1570478.61545  23174129.2044   23174135.5944
       213.0004        156.0004
  22794760.7864     753974.80849    583457.95046  22794760.5864   22794765.9584
       227.0004        174.0004
  22466658.8204   -1254105.36749   -974016.39447  22466657.8864   22466660.8254
       229.0004        188.0004
  22550212.4194     749214.35949    575562.20346  22550212.0834   22550215.4304
       228.0004        176.0004
  22571661.5024   -3764750.19549  -2914081.64646  22571661.1244   22571666.1034
       227.0004        176.0004
  20320868.8794   -1581802.82949  -1226955.08247  20320868.4564   20320871.8174
       237.0004        211.0004
  24359722.4034   -1729245.31249  -1322183.01745  24359722.8454   24359727.9244
       214.0004        152.0004
  23576286.1084     593778.49149    454669.03045  23576286.2474   23576290.5154
       214.0004        157.0004
 07  2 18  0 45 15.0000000  0  9G22G21G 3G19G18G 1G14G31G 9
  20959549.5214    -410880.40449   -321857.70747  20959549.3364   20959551.1134
       243.0004        208.0004
  23177205.8384    2049194.27349   1583072.44445  23177204.7754   23177209.4404
       213.0004        156.0004
  22796610.2984     763694.01249    591031.35546  22796610.3354   22796615.5914
       228.0004        174.0004
  22466616.7214   -1254326.49549   -974188.69947  22466615.8554   22466618.9134
       230.0004        188.0004
  22551926.0614     758219.78749    582579.42446  22551925.7874   22551929.6254
       228.0004        176.0004
  22569010.1164   -3778683.28149  -2924938.58646  22569009.2504   22569014.5814
       226.0004        176.0004
  20320470.9794   -1583893.80549  -1228584.41547  20320470.6014   20320473.9344
       236.0004        211.0004
  24356472.4274   -1746324.12049  -1335491.15645  24356472.4054   24356478.3604
       214.0004        153.0004
  23578085.6724     603235.34749    462038.00445  23578085.0314   23578090.3414
       216.0004        157.0004
 07  2 18  0 45 20.0000000  0  9G22G21G 3G19G18G 1G14G31G 9
  20960138.1344    -407787.30549   -319447.49747  20960137.9784   20960139.6364
       243.0004        208.0004
  23180282.7054    2065363.48949   1595671.81045  23180282.5644   23180285.1934
       214.0004        155.0004
  22798461.5794     773422.44449    598611.94746  22798461.2244   22798466.3894
       227.0004        174.0004
  22466577.5264   -1254532.57249   -974349.28047  22466576.9424   22466580.0524
       230.0004        188.0004
  22553640.2694     767227.94049    589598.76246  22553640.3304   22553643.6624
       229.0004        176.0004
  22566360.3734   -3792607.74449  -2935788.81546  22566360.3444   22566365.4354
       228.0004        176.0004
  20320075.6714   -1585971.14549  -1230203.11747  20320075.2954   20320078.6294
       237.0004        211.0004
  24353222.1784   -1763404.32049  -1348800.38145  24353222.4154   24353228.2084
       212.0004        154.0004
  23579888.1574     612707.61849    469418.99645  23579887.7134   23579892.7954
       215.0004        157.0004
 07  2 18  0 45 25.0000000  0  9G22G21G 3G19G18G 1G14G31G 9
  20960727.4894    -404690.11349   -317034.10147  20960727.3404   20960728.8934
       244.0004        208.0004
  23183360.9564    2081539.83049   1608276.75545  23183361.7334   23183363.9514
       215.0004        155.0004
  22800314.6004     783160.19449    606199.79746  22800314.0914   22800319.8284
       229.0004        175.0004
  22466541.1574   -1254723.60149   -974498.13947  22466540.4584   22466543.1174
       229.0004        188.0004
  22555354.9644     776238.79749    596620.20846  22555354.9334   22555357.8944
       228.0004        176.0004
  22563712.2704   -3806523.58849  -2946632.31646  22563712.0374   22563716.1604
       226.0004        176.0004
  20319682.9274   -1588034.89849  -1231811.23447  20319682.3874   20319685.8354
       236.0004        211.0004
  24349971.6494   -1780485.87649  -1362110.65845  24349971.7654   24349977.2914
       212.0004        154.0004
  23581693.5834     622195.33049    476812.01745  23581694.1134   23581697.8464
       215.0004        158.0004
 07  2 18  0 45 30.0000000  0  9G22G21G 3G19G18G 1G14G31G 9
  20961317.6944    -401588.61649   -314617.35047  20961317.5124   20961319.3264
       243.0004        208.0004
  23186440.6294    2097723.48649   1620887.40745  23186440.5414   23186443.0814
       217.0004        155.0004
  22802169.4474     792907.49649    613795.09646  22802168.7274   22802174.0884
       227.0004        174.0004
  22466507.7484   -1254899.33649   -974635.06847  22466506.9414   22466509.6924
       230.0004        188.0004
  22557070.2634     785252.63249    603643.98046  22557069.7764   22557073.0864
       228.0004        176.0004
  22561065.8614   -3820430.58049  -2957468.92646  22561065.0504   22561070.7574
       227.0004        176.0004
  20319292.8394   -1590084.83649  -1233408.58847  20319292.3574   20319295.7784
       236.0004        211.0004
  24346720.9394   -1797568.58249  -1375421.83145  24346720.9964   24346726.3164
       212.0004        155.0004
  23583501.9664     631698.63649    484217.18945  23583500.8424   23583506.0354
       216.0004        158.0004
 07  2 18  0 45 35.0000000  0  9G22G21G 3G19G18G 1G14G31G 9
  20961908.6724    -398482.93649   -312197.33747  20961908.4934   20961910.0364
       243.0004        208.0004
  23189521.6724    2113914.38849   1633503.70345  23189520.7594   23189524.6384
       214.0004        154.0004
  22804026.1214     802664.16449    621397.69446  22804026.2714   22804031.0654
       228.0004        174.0004
  22466477.2014   -1255059.91649   -974760.19947  22466476.2124   22466479.2134
       230.0004        188.0004
  22558786.0604     794269.33649    610669.97846  22558785.0384   22558788.7934
       228.0004        176.0004
  22558421.0814   -3834328.82549  -2968298.72246  22558421.1504   22558425.7284
       227.0004        176.0004
  20318905.3624   -1592121.05549  -1234995.24747  20318904.8154   20318908.3174
       237.0004        211.0004
  24343469.9414   -1814652.51549  -1388733.96045  24343469.6274   24343475.3194
       213.0004        155.0004
  23585313.3354     641217.46249    491634.46145  23585313.2374   23585317.8244
       215.0004        158.0004
 07  2 18  0 45 40.0000000  0  9G22G21G 3G19G18G 1G14G31G 9
  20962500.4954    -395372.88349   -309773.92047  20962500.4934   20962502.1784
       244.0004        208.0004
  23192604.1414    2130112.67449   1646125.74345  23192604.5744   23192606.6074
       214.0004        154.0004
  22805884.5634     812430.35449    629007.71146  22805884.4754   22805889.2634
       227.0004        174.0004
  22466449.5914   -1255205.13149   -974873.35347  22466448.7514   22466451.7654
       230.0004        188.0004
  22560502.4744     803289.05149    617698.33846  22560502.1294   22560505.8184
       228.0004        176.0004
  22555778.0254   -3848218.10449  -2979121.53746  22555777.0114   22555782.9434
       227.0004        176.0004
  20318520.5114   -1594143.42349  -1236571.11747  20318520.0314   20318523.4364
       237.0004        211.0004
  24340218.7604   -1831737.48249  -1402046.89545  24340218.7674   24340224.2674
       213.0004        155.0004
  23587127.6934     650751.96149    499063.94545  23587127.6414   23587132.2344
       215.0004        158.0004
 07  2 18  0 45 45.0000000  0  9G22G21G 3G19G18G 1G14G31G 9
  20963093.0724    -392258.86849   -307347.41247  20963092.9734   20963094.7634
       243.0004        208.0004
  23195687.9124    2146317.92449   1658753.20245  23195686.2614   23195690.0674
       213.0004        153.0004
  22807744.7464     822205.63649    636624.80646  22807745.0174   22807749.5654
       228.0004        175.0004
  22466424.7784   -1255335.44649   -974974.88847  22466423.8984   22466427.0304
       230.0004        188.0004
  22562219.3454     812311.35549    624728.70146  22562218.8914   22562222.8244
       229.0004        176.0004
  22553136.6094   -3862098.87349  -2989937.70846  22553135.8694   22553141.3684
       227.0004        176.0004
  20318138.2084   -1596152.35649  -1238136.51547  20318137.6764   20318141.1194
       236.0004        211.0004
  24336967.2984   -1848823.94349  -1415360.99645  24336967.3684   24336972.6144
       213.0004        156.0004
  23588944.9344     660301.71149    506505.31045  23588944.8634   23588949.4794
       216.0004        158.0004
 07  2 18  0 45 50.0000000  0  9G22G21G 3G19G18G 1G14G31G 9
  20963686.4494    -389140.55849   -304917.55847  20963686.2924   20963687.9374
       243.0004        208.0004
  23198773.0484    2162530.35249   1671386.25145  23198771.5754   23198775.5524
       214.0004        153.0004
  22809606.7374     831990.29549    644249.22546  22809606.3084   22809611.3244
       228.0004        174.0004
  22466402.8834   -1255450.62149   -975064.63447  22466402.1334   22466405.4284
       230.0004        188.0004
  22563936.8024     821336.49949    631761.27746  22563936.2824   22563939.2184
       228.0004        176.0004
  22550496.8584   -3875970.88449  -3000747.05046  22550496.0164   22550501.8834
       227.0004        176.0004
  20317758.5274   -1598147.60549  -1239691.25147  20317758.0494   20317761.3764
       237.0004        211.0004
  24333715.6074   -1865911.54449  -1428675.98445  24333715.7894   24333721.2824
       211.0004        156.0004
  23590765.1324     669866.98349    513958.76845  23590765.4734   23590769.8154
       216.0004        158.0004
 07  2 18  0 45 55.0000000  0  9G22G21G 3G19G18G 1G14G31G 9
  20964280.6354    -386018.09249   -302484.46747  20964280.4814   20964282.2764
       244.0004        208.0004
  23201859.5314    2178750.01449   1684024.95045  23201858.9874   23201862.5934
       214.0004        153.0004
  22811470.4714     841784.34749    651880.94946  22811470.2984   22811474.6834
       229.0004        175.0004
  22466383.8474   -1255550.60749   -975142.55247  22466383.3664   22466386.0394
       231.0004        189.0004
  22565654.7754     830364.49349    638796.08346  22565654.2734   22565657.3454
       228.0004        176.0004
  22547858.7604   -3889834.07349  -3011549.53146  22547858.2034   22547864.4354
       226.0004        176.0004
  20317381.4274   -1600129.15149  -1241235.31047  20317380.9404   20317384.4104
       236.0004        211.0004
  24330463.6994   -1883000.30549  -1441991.87745  24330463.8804   24330469.6254
       210.0004        156.0004
  23592588.3114     679447.75149    521424.30145  23592588.6614   23592592.0264
       216.0004        158.0004
 07  2 18  0 46  0.0000000  0  9G22G21G 3G19G18G 1G14G31G 9
  20964875.6244    -382891.40649   -300048.08647  20964875.4494   20964877.2044
       243.0004        208.0004
  23204947.4114    2194976.95849   1696669.32445  23204946.3404   23204951.5914
       212.0004        153.0004
  22813336.0484     851587.82149    659520.01246  22813336.2364   22813341.0394
       228.0004        175.0004
  22466367.7154   -1255635.34849   -975208.57947  22466367.0884   22466369.7274
       230.0004        189.0004
  22567373.2974     839395.41349    645833.15646  22567373.1034   22567376.1234
       228.0004        176.0004
  22545222.3344   -3903688.40249  -3022345.10346  22545221.9784   22545227.5104
       225.0004        177.0004
  20317006.9724   -1602096.92949  -1242768.64347  20317006.4094   20317009.9144
       236.0004        211.0004
  24327211.6214   -1900090.16649  -1455308.62745  24327211.6424   24327217.3314
       212.0004        156.0004
  23594414.4414     689044.06949    528901.96345  23594414.2174   23594419.3754
       213.0004        158.0004
 07  2 18  0 46  5.0000000  0  9G22G21G 3G19G18G 1G14G31G 9
  20965471.3974    -379760.66049   -297608.54347  20965471.0764   20965472.8204
       244.0004        208.0004
  23208036.5934    2211210.96349   1709319.17545  23208035.1624   23208041.0604
       211.0004        152.0004
  22815203.3474     861400.49249    667166.24846  22815203.1344   22815207.2204
       228.0004        175.0004
  22466354.4724   -1255705.03449   -975262.87547  22466353.7174   22466357.1364
       230.0004        189.0004
  22569092.3714     848429.08749    652872.38546  22569092.5624   22569094.9604
       228.0004        176.0004
  22542587.5914   -3917534.03749  -3033133.90346  22542586.8024   22542592.9404
       227.0004        177.0004
  20316635.1034   -1604051.12549  -1244291.38747  20316634.5474   20316638.0634
       236.0004        211.0004
  24323959.2934   -1917181.23249  -1468626.31545  24323959.1334   24323965.2254
       212.0004        156.0004
  23596243.5014     698655.75449    536391.58645  23596243.1914   23596248.5764
       214.0004        158.0004
 07  2 18  0 46 10.0000000  0  9G22G21G 3G19G18G 1G14G31G 9
  20966067.9844    -376625.62949   -295165.65947  20966067.8734   20966069.6724
       243.0004        208.0004
  23211127.1744    2227452.23949   1721974.70145  23211126.6514   23211130.6644
       213.0004        152.0004
  22817072.4464     871222.58249    674819.82746  22817072.3404   22817077.1924
       228.0004        174.0004
  22466344.1304   -1255759.43249   -975305.27047  22466343.4944   22466346.7024
       231.0004        189.0004
  22570811.9654     857465.70849    659913.90946  22570811.3024   22570815.2324
       228.0004        176.0004
  22539954.5134   -3931370.74649  -3043915.74546  22539953.9354   22539959.8284
       226.0004        177.0004
  20316265.8534   -1605991.53249  -1245803.39247  20316265.2924   20316269.0084
       237.0004        211.0004
  24320706.7844   -1934273.32749  -1481944.81045  24320707.0754   24320712.8244
       212.0004        156.0004
  23598075.5214     708283.02649    543893.35545  23598075.8824   23598080.2954
       214.0004        158.0004
 07  2 18  0 46 15.0000000  0  9G22G21G 3G19G18G 1G14G31G 9
  20966665.3414    -373486.57349   -292719.64347  20966665.0604   20966666.9064
       244.0004        208.0004
  23214219.0914    2243700.56249   1734635.72945  23214218.5014   23214223.0494
       214.0004        152.0004
  22818943.2944     881053.82649    682480.52746  22818943.7044   22818948.2044
       228.0004        174.0004
  22466336.6744   -1255798.74449   -975335.90547  22466336.0894   22466338.8644
       231.0004        189.0004
  22572532.1014     866505.06449    666957.56846  22572530.8224   22572535.1864
       229.0004        176.0004
  22537323.1184   -3945198.76649  -3054690.81346  22537322.3864   22537328.5744
       226.0004        177.0004
  20315899.1924   -1607918.36049  -1247304.81147  20315898.6764   20315902.2624
       237.0004        211.0004
  24317454.0334   -1951366.67649  -1495264.27945  24317454.8064   24317459.8114
       212.0004        156.0004
  23599910.4494     717925.62249    551407.06245  23599911.8414   23599914.1634
       214.0004        157.0004
 07  2 18  0 46 20.0000000  0  9G22G21G 3G19G18G 1G14G31G 9
  20967263.4754    -370343.31549   -290270.34947  20967263.3564   20967264.9794
       244.0004        208.0004
  23217312.4154    2259956.04449   1747302.35045  23217313.4084   23217316.6214
       215.0004        152.0004
  22820815.8764     890894.32849    690148.45146  22820815.9084   22820820.7854
       228.0004        174.0004
  22466332.1054   -1255822.88249   -975354.71147  22466331.7124   22466334.1564
       231.0004        189.0004
  22574252.7954     875547.31949    674003.47346  22574252.3804   22574255.8384
       227.0004        176.0004
  22534693.3874   -3959017.93549  -3065458.99546  22534692.9374   22534698.2654
       226.0004        177.0004
  20315535.1284   -1609831.50749  -1248795.57647  20315534.6984   20315538.2224
       237.0004        211.0004
  24314201.0394   -1968461.14649  -1508584.61945  24314201.6384   24314206.5474
       212.0004        157.0004
  23601748.3304     727583.61049    558932.76345  23601747.2304   23601753.0624
       215.0004        157.0004
 07  2 18  0 46 25.0000000  0  9G22G21G 3G19G18G 1G14G31G 9
  20967862.4284    -367195.73149   -287817.68547  20967862.1614   20967864.0914
       243.0004        208.0004
  23220407.1164    2276218.82949   1759974.65145  23220407.0274   23220411.3654
       213.0004        152.0004
  22822690.2824     900744.25249    697823.71746  22822690.1504   22822695.9764
       228.0004        174.0004
  22466330.4344   -1255831.71749   -975361.59347  22466329.8834   22466332.3874
       231.0004        189.0004
  22575974.0454     884592.56349    681051.71246  22575973.7894   22575976.7114
       229.0004        176.0004
  22532065.3534   -3972828.15749  -3076220.19446  22532065.0464   22532070.8384
       227.0004        177.0004
  20315173.6944   -1611730.82349  -1250275.56047  20315173.1784   20315176.8564
       236.0004        211.0004
  24310947.9164   -1985556.55349  -1521905.68745  24310948.2614   24310953.6764
       212.0004        158.0004
  23603589.1634     737257.14949    566470.58945  23603589.3954   23603594.5874
       213.0004        157.0004
 07  2 18  0 46 30.0000000  0  9G22G21G 3G19G18G 1G14G31G 9
  20968462.1554    -364044.15049   -285361.90747  20968461.8664   20968463.7014
       243.0004        208.0004
  23223503.1614    2292488.57249   1772652.35645  23223501.7544   23223507.0564
       213.0004        152.0004
  22824566.3744     910603.23949    705506.03846  22824566.1624   22824571.1074
       228.0004        174.0004
  22466331.6374   -1255825.54349   -975356.78347  22466330.9334   22466333.9884
       231.0004        189.0004
  22577695.8154     893640.49449    688102.05146  22577695.3174   22577698.4014
       228.0004        176.0004
  22529439.0044   -3986629.71349  -3086974.64646  22529438.8944   22529444.1664
       227.0004        177.0004
  20314814.8484   -1613616.65049  -1251745.03347  20314814.4774   20314817.7994
       237.0004        211.0004
  24307694.5234   -2002653.26449  -1535227.77145  24307694.9434   24307700.3824
       214.0004        158.0004
  23605432.8694     746945.96849    574020.32045  23605432.4294   23605437.1834
       211.0004        157.0004
 07  2 18  0 46 35.0000000  0  9G22G21G 3G19G18G 1G14G31G 9
  20969062.6944    -360888.35449   -282902.84247  20969062.5304   20969064.4724
       243.0004        208.0004
  23226600.5634    2308765.47749   1785335.64245  23226599.6304   23226604.6894
       213.0004        151.0004
  22826444.2504     920471.52749    713195.61346  22826444.2714   22826449.2704
       227.0004        174.0004
  22466335.7194   -1255804.17949   -975340.13247  22466334.9204   22466337.9234
       230.0004        189.0004
  22579418.1264     902691.30949    695154.63446  22579417.5644   22579421.0214
       229.0004        176.0004
  22526814.3214   -4000422.40849  -3097722.18846  22526813.9414   22526819.3014
       227.0004        177.0004
  20314458.5894   -1615488.76849  -1253203.82247  20314458.2634   20314461.5384
       237.0004        211.0004
  24304440.9494   -2019750.98849  -1548550.64145  24304440.9664   24304446.5894
       213.0004        159.0004
  23607279.4934     756650.23849    581582.08545  23607278.3714   23607283.8194
       210.0004        156.0004
 07  2 18  0 46 40.0000000  0  9G22G21G 3G19G18G 1G14G31G 9
  20969664.0194    -357728.32349   -280440.47847  20969663.7044   20969665.6594
       243.0004        208.0004
  23229699.3034    2325049.57249   1798024.54845  23229697.6854   23229702.0794
       212.0004        151.0004
  22828323.8754     930348.97049    720892.31846  22828323.4914   22828328.0304
       227.0004        174.0004
  22466342.6664   -1255767.63049   -975311.65247  22466342.2054   22466344.6644
       230.0004        189.0004
  22581141.0034     911744.98549    702209.44646  22581140.6824   22581143.7194
       228.0004        176.0004
  22524191.3324   -4014206.24749  -3108462.84046  22524190.9974   22524195.9994
       227.0004        177.0004
  20314104.9404   -1617347.18949  -1254651.93947  20314104.4184   20314107.8104
       237.0004        211.0004
  24301187.1454   -2036849.75249  -1561874.32245  24301187.0484   24301192.4844
       213.0004        159.0004
  23609129.0454     766369.89149    589155.83345  23609129.9794   23609134.0494
       214.0004        156.0004
 07  2 18  0 46 45.0000000  0  9G22G21G 3G19G18G 1G14G31G 9
  20970266.1614    -354564.10749   -277974.85747  20970265.8074   20970267.8094
       244.0004        208.0004
  23232799.4254    2341340.77449   1810718.97145  23232799.4584   23232803.0134
       213.0004        151.0004
  22830205.2444     940235.62149    728596.19946  22830204.9284   22830210.4904
       227.0004        174.0004
  22466352.5314   -1255715.93549   -975271.37247  22466351.9184   22466355.0764
       229.0004        189.0004
  22582864.3984     920801.48949    709266.45846  22582863.4994   22582867.4154
       228.0004        176.0004
  22521570.0614   -4027981.25149  -3119196.59146  22521569.3724   22521575.4194
       227.0004        177.0004
  20313753.9044   -1619191.95749  -1256089.41547  20313753.4514   20313756.9774
       237.0004        211.0004
  24297933.1554   -2053949.56349  -1575198.81945  24297932.8014   24297938.7774
       213.0004        159.0004
  23610981.5354     776104.95149    596741.60145  23610981.4084   23610986.3684
       211.0004        156.0004
 07  2 18  0 46 50.0000000  0  9G22G21G 3G19G18G 1G14G31G 9
  20970869.0574    -351395.79049   -275506.03747  20970868.9004   20970870.7004
       243.0004        208.0004
  23235900.8714    2357639.02149   1823418.89845  23235902.3704   23235904.6014
       215.0004        151.0004
  22832088.3374     950131.38049    736307.18046  22832087.7454   22832094.0984
       227.0004        174.0004
  22466365.2374   -1255649.14949   -975219.32147  22466364.3004   22466366.7724
       230.0004        189.0004
  22584588.3274     929860.79549    716325.66746  22584587.3954   22584591.4124
       229.0004        176.0004
  22518950.4284   -4041747.45249  -3129923.49946  22518950.3854   22518955.6214
       227.0004        177.0004
  20313405.4394   -1621023.10649  -1257516.28447  20313405.0024   20313408.4574
       237.0004        211.0004
  24294678.9454   -2071050.44449  -1588524.14945  24294678.5844   24294684.5954
       215.0004        159.0004
  23612836.9714     785855.35249    604339.30345  23612837.3034   23612841.1094
       214.0004        156.0004
 07  2 18  0 46 55.0000000  0  9G22G21G 3G19G18G 1G14G31G 9
  20971472.7644    -348223.28549   -273033.95347  20971472.6824   20971474.2174
       244.0004        208.0004
  23239003.7054    2373944.33249   1836124.34645  23239004.0524   23239006.8704
       217.0004        152.0004
  22833973.1994     960036.36849    744025.35046  22833971.9104   22833978.3124
       227.0004        174.0004
  22466380.7964   -1255567.20049   -975155.46647  22466379.7394   22466383.1884
       230.0004        189.0004
  22586312.8224     938923.00149    723387.11946  22586312.4314   22586315.9014
       228.0004        176.0004
  22516332.4944   -4055504.79749  -3140643.50046  22516332.2984   22516337.6414
       227.0004        177.0004
  20313059.5734   -1622840.60949  -1258932.51447  20313059.1924   20313062.4694
       237.0004        211.0004
  24291424.5824   -2088152.34149  -1601850.27045  24291424.3674   24291430.1204
       215.0004        160.0004
  23614695.3244     795621.09049    611948.98345  23614694.9974   23614699.3724
       213.0004        156.0004
 07  2 18  0 47  0.0000000  0  9G22G21G 3G19G18G 1G14G31G 9
  20972077.2794    -345046.55549   -270558.58347  20972077.2734   20972078.7784
       243.0004        208.0004
  23242107.8914    2390256.77949   1848835.35945  23242108.1934   23242111.8354
       216.0004        152.0004
  22835859.7654     969950.55649    751750.68646  22835859.6734   22835864.6394
       227.0004        174.0004
  22466399.2944   -1255470.05449   -975079.77047  22466398.4464   22466401.4344
       230.0004        189.0004
  22588037.8724     947988.10549    730450.84146  22588037.2574   22588041.0564
       229.0004        176.0004
  22513716.2654   -4069253.24049  -3151356.56546  22513716.1594   22513721.6384
       227.0004        178.0004
  20312716.3214   -1624644.42749  -1260338.08647  20312715.9894   20312719.4644
       236.0004        211.0004
  24288169.9834   -2105255.26649  -1615177.19745  24288170.3004   24288175.5884
       216.0004        160.0004
  23616556.6144     805402.21049    619570.64645  23616556.4984   23616561.2444
       213.0004        156.0004
 07  2 18  0 47  5.0000000  0  9G22G21G 3G19G18G 1G14G31G 9
  20972682.5794    -341865.62649   -268079.93147  20972682.4644   20972683.9794
       243.0004        208.0004
  23245213.4424    2406576.33149   1861551.89545  23245212.5444   23245217.3144
       214.0004        153.0004
  22837748.1284     979873.95749    759483.20546  22837747.9764   22837753.2984
       228.0004        174.0004
  22466420.6534   -1255357.75949   -974992.26447  22466419.9414   22466422.2364
       229.0004        189.0004
  22589763.4614     957056.09249    737516.80246  22589762.8334   22589765.8534
       227.0004        176.0004
  22511101.7204   -4082992.79049  -3162062.69746  22511101.3394   22511106.6454
       227.0004        178.0004
  20312375.6584   -1626434.58049  -1261733.00447  20312375.2454   20312378.6474
       237.0004        211.0004
  24284915.2274   -2122359.15249  -1628504.87845  24284915.5434   24284920.9694
       215.0004        160.0004
  23618420.8354     815198.75049    627204.29545  23618420.0084   23618425.7454
       211.0004        155.0004
 07  2 18  0 47 10.0000000  0  9G22G21G 3G19G18G 1G14G31G 9
  20973288.7174    -338680.42149   -265597.95647  20973288.5544   20973290.3174
       243.0004        208.0004
  23248320.3424    2422903.10749   1874274.03545  23248319.2334   23248325.0144
       213.0004        153.0004
  22839638.2514     989806.59949    767222.91546  22839637.9884   22839642.9164
       227.0004        174.0004
  22466444.9184   -1255230.21549   -974892.88047  22466444.2544   22466447.0174
       230.0004        189.0004
  22591489.6194     966127.02749    744585.05046  22591489.2474   22591492.9844
       229.0004        176.0004
  22508488.8944   -4096723.38849  -3172761.85746  22508488.4384   22508493.9744
       228.0004        177.0004
  20312037.6264   -1628210.98949  -1263117.22147  20312037.2894   20312040.7684
       236.0004        211.0004
  24281660.3024   -2139463.93649  -1641833.26045  24281660.6064   24281665.8604
       216.0004        160.0004
  23620287.9764     825010.72149    634849.98845  23620288.4054   23620292.1714
       211.0004        155.0004
 07  2 18  0 47 15.0000000  0  9G22G21G 3G19G18G 1G14G31G 9
  20973895.5994    -335491.16149   -263112.81647  20973895.4244   20973897.1094
       243.0004        208.0004
  23251428.5204    2439236.82549   1887001.58545  23251427.6324   23251433.3064
       216.0004        153.0004
  22841530.0754     999748.26249    774969.66846  22841529.8584   22841534.9274
       230.0004        175.0004
  22466472.0134   -1255087.66549   -974781.80547  22466471.0564   22466474.2084
       230.0004        189.0004
  22593216.2754     975200.67549    751655.43946  22593215.8724   22593218.9204
       229.0004        176.0004
  22505877.7044   -4110445.21949  -3183454.18346  22505876.7364   22505882.8124
       227.0004        178.0004
  20311702.1424   -1629973.88849  -1264490.90547  20311701.7314   20311705.2104
       236.0004        211.0004
  24278405.1574   -2156569.85049  -1655162.52545  24278405.7294   24278410.7404
       214.0004        160.0004
  23622158.0374     834837.92149    642507.55145  23622157.6414   23622162.3644
       212.0004        155.0004
 07  2 18  0 47 20.0000000  0  9G22G21G 3G19G18G 1G14G31G 9
  20974503.2944    -332297.80449   -260624.48847  20974503.1644   20974504.9144
       243.0004        208.0004
  23254538.0334    2455577.48849   1899734.56745  23254537.8884   23254540.5264
       217.0004        154.0004
  22843423.6534    1009699.00249    782723.49646  22843423.7074   22843429.3834
       228.0004        175.0004
  22466502.0184   -1254930.08349   -974659.01247  22466500.9454   22466504.3904
       230.0004        189.0004
  22594943.4604     984277.06249    758727.94746  22594943.1264   22594945.9674
       228.0004        176.0004
  22503268.1964   -4124158.25349  -3194139.65646  22503267.2824   22503273.3674
       227.0004        178.0004
  20311369.2714   -1631723.25849  -1265854.04947  20311368.9024   20311372.3744
       236.0004        211.0004
  24275149.8034   -2173676.80849  -1668492.60745  24275150.2534   24275155.0224
       215.0004        160.0004
  23624030.9574     844680.37649    650177.00245  23624029.9644   23624035.9924
       210.0004        154.0004
 07  2 18  0 47 25.0000000  0  9G22G21G 3G19G18G 1G14G31G 9
  20975111.7844    -329100.12049   -258132.78147  20975111.6824   20975113.3424
       243.0004        208.0004
  23257648.9404    2471925.34349   1912473.16045  23257649.4644   23257651.8524
       216.0004        154.0004
  22845319.0194    1019659.02749    790484.54246  22845318.9354   22845324.3704
       228.0004        175.0004
  22466534.8964   -1254757.19249   -974524.28847  22466534.4624   22466537.2764
       229.0004        189.0004
  22596671.2104     993356.43049    765802.77446  22596670.3814   22596674.4614
       229.0004        176.0004
  22500660.4104   -4137862.24649  -3204818.08046  22500659.4484   22500666.0024
       227.0004        178.0004
  20311038.9874   -1633458.83949  -1267206.44447  20311038.6514   20311041.9804
       237.0004        211.0004
  24271894.2614   -2190784.55749  -1681823.30445  24271894.2074   24271899.5294
       215.0004        160.0004
  23625906.8454     854538.32049    657858.51245  23625906.4854   23625911.0454
       212.0004        154.0004
 07  2 18  0 47 30.0000000  0  9G22G21G 3G19G18G 1G14G31G 9
  20975721.0634    -325898.32349   -255637.87447  20975720.6814   20975722.6954
       243.0004        208.0004
  23260761.1664    2488280.16349   1925217.17545  23260760.7404   23260764.4974
       215.0004        154.0004
  22847216.0684    1029628.06549    798252.62846  22847215.8424   22847221.0864
       227.0004        175.0004
  22466570.6604   -1254569.27449   -974377.85447  22466569.6574   22466573.4224
       230.0004        189.0004
  22598399.5144    1002438.61949    772879.80146  22598398.8344   22598402.2584
       227.0004        176.0004
  22498054.2914   -4151557.41849  -3215489.63746  22498053.7714   22498059.4994
       228.0004        178.0004
  20310711.3134   -1635180.87549  -1268548.29047  20310710.8874   20310714.3334
       236.0004        211.0004
  24268638.5434   -2207893.29749  -1695154.77045  24268638.1914   24268643.6074
       214.0004        159.0004
  23627785.6674     864411.55649    665551.94545  23627784.5654   23627790.9344
       211.0004        154.0004
 07  2 18  0 47 35.0000000  0  9G22G21G 3G19G18G 1G14G31G 9
  20976331.1074    -322692.37449   -253139.73347  20976330.8184   20976332.5054
       243.0004        208.0004
  23263874.7354    2504641.99549   1937966.65445  23263874.6854   23263878.7344
       217.0004        154.0004
  22849114.8564    1039606.12849    806027.73646  22849115.2674   22849119.5584
       228.0004        175.0004
  22466609.2894   -1254366.25949   -974219.65947  22466608.5114   22466611.4394
       232.0004        189.0004
  22600128.3124    1011523.60549    779959.01446  22600127.6774   22600130.8754
       228.0004        176.0004
  22495449.8724   -4165243.71949  -3226154.28146  22495449.3544   22495454.6514
       228.0004        178.0004
  20310386.2024   -1636889.29649  -1269879.52347  20310385.8224   20310389.0474
       236.0004        211.0004
  24265382.6284   -2225003.00349  -1708486.98645  24265382.5054   24265387.8374
       213.0004        159.0004
  23629667.3744     874299.98749    673257.21345  23629667.4424   23629672.0284
       212.0004        154.0004
 07  2 18  0 47 40.0000000  0  9G22G21G 3G19G18G 1G14G31G 9
  20976941.9864    -319482.25949   -250638.34347  20976941.7954   20976943.6474
       243.0004        208.0004
  23266989.6614    2521010.83949   1950721.59945  23266989.8584   23266993.5914
       218.0004        154.0004
  22851015.3684    1049593.26749    813809.92346  22851015.0814   22851019.7804
       228.0004        175.0004
  22466650.8114   -1254148.11249   -974049.67547  22466650.2124   22466652.7924
       231.0004        189.0004
  22601857.6834    1020611.43649    787040.44446  22601856.8804   22601860.8234
       228.0004        176.0004
  22492847.1444   -4178921.11749  -3236811.98946  22492846.4964   22492852.4154
       227.0004        178.0004
  20310063.6764   -1638584.08849  -1271200.13747  20310063.3664   20310066.5534
       236.0004        211.0004
  24262126.5114   -2242113.62249  -1721819.91445  24262126.5794   24262131.9064
       216.0004        159.0004
  23631552.0044     884203.72449    680974.42145  23631551.1884   23631556.7844
       209.0004        154.0004
 07  2 18  0 47 45.0000000  0  9G22G21G 3G19G18G 1G14G31G 9
  20977553.6574    -316267.88549   -248133.63747  20977553.6424   20977555.2294
       243.0004        208.0004
  23270105.9244    2537386.77749   1963482.06345  23270105.0024   23270109.4634
       217.0004        155.0004
  22852917.6124    1059589.52649    821599.20546  22852917.6544   22852923.2334
       227.0004        175.0004
  22466695.2334   -1253914.78249   -973867.85947  22466694.7014   22466697.3194
       230.0004        189.0004
  22603587.6094    1029702.22149    794124.15846  22603586.9524   22603590.2364
       228.0004        176.0004
  22490246.1184   -4192589.54349  -3247462.70746  22490245.7374   22490251.7334
       228.0004        178.0004
  20309743.7674   -1640265.20149  -1272510.09347  20309743.2774   20309746.8154
       237.0004        211.0004
  24258870.2874   -2259225.10649  -1735153.52445  24258870.3834   24258875.8924
       217.0004        159.0004
  23633439.5294     894122.81149    688703.58345  23633439.8504   23633443.6854
       213.0004        154.0004
 07  2 18  0 47 50.0000000  0  9G22G21G 3G19G18G 1G14G31G 9
  20978166.0844    -313049.44049   -245625.75447  20978165.9684   20978167.8814
       243.0004        208.0004
  23273223.5114    2553769.66149   1976247.93945  23273222.8434   23273226.9944
       215.0004        155.0004
  22854821.5164    1069594.65149    829395.41246  22854820.6774   22854826.4904
       227.0004        175.0004
  22466742.5084   -1253666.40649   -973674.31747  22466741.4694   22466744.9134
       230.0004        189.0004
  22605318.0514    1038795.78249    801210.05746  22605318.1044   22605321.1904
       228.0004        176.0004
  22487646.7544   -4206249.12549  -3258106.51946  22487646.6864   22487652.2844
       228.0004        178.0004
  20309426.4404   -1641932.79049  -1273809.51147  20309425.9774   20309429.4074
       236.0004        211.0004
  24255613.8864   -2276337.54849  -1748487.88345  24255613.4984   24255619.3224
       216.0004        158.0004
  23635329.9674     904057.11749    696444.60545  23635330.4314   23635335.1174
       214.0004        154.0004
 07  2 18  0 47 55.0000000  0  9G22G21G 3G19G18G 1G14G31G 9
  20978779.3264    -309826.81249   -243114.61647  20978779.1334   20978780.8584
       243.0004        208.0004
  23276342.4024    2570159.59149   1989019.30745  23276341.5544   23276345.5654
       216.0004        155.0004
  22856727.1514    1079608.78649    837198.63646  22856726.5174   22856732.6694
       225.0004        175.0004
  22466792.6784   -1253402.88049   -973468.97347  22466792.0144   22466794.4994
       231.0004        189.0004
  22607049.0854    1047892.21849    808298.18746  22607048.7164   22607051.7154
       227.0004        176.0004
  22485049.1294   -4219899.74749  -3268743.36646  22485049.6744   22485054.6754
       228.0004        179.0004
  20309111.7164   -1643586.73949  -1275098.29747  20309111.3154   20309114.6154
       237.0004        211.0004
  24252357.2844   -2293450.86549  -1761822.92545  24252357.3024   24252362.9184
       218.0004        158.0004
  23637223.3114     914006.66749    704197.50745  23637223.9204   23637228.4394
       213.0004        155.0004
 07  2 18  0 48  0.0000000  0  9G22G21G 3G19G18G 1G14G31G 9
  20979393.3664    -306600.06849   -240600.26747  20979393.3184   20979395.0554
       244.0004        208.0004
  23279462.6064    2586556.50649   2001796.11245  23279461.7344   23279465.8134
       215.0004        155.0004
  22858634.4474    1089631.86449    845008.82546  22858633.9774   22858640.2684
       226.0004        175.0004
  22466845.6984   -1253124.32749   -973251.91747  22466844.8374   22466847.7734
       230.0004        189.0004
  22608780.6234    1056991.47949    815388.51646  22608780.1974   22608783.6994
       228.0004        176.0004
  22482453.1994   -4233541.52449  -3279373.31446  22482452.7824   22482458.4594
       228.0004        179.0004
  20308799.5304   -1645227.17849  -1276376.56147  20308799.1714   20308802.3484
       236.0004        211.0004
  24249100.5434   -2310565.11549  -1775158.68745  24249100.8974   24249105.8134
       217.0004        158.0004
  23639119.5804     923971.37249    711962.21545  23639119.0884   23639124.9264
       213.0004        155.0004
 07  2 18  0 48  5.0000000  0  9G22G21G 3G19G18G 1G14G31G 9
  20980008.2004    -303369.07349   -238082.60947  20980008.0434   20980009.7014
       243.0004        208.0004
  23282584.1674    2602960.45249   2014578.40045  23282582.8734   23282587.5174
       216.0004        155.0004
  22860543.5074    1099664.05649    852826.11446  22860543.8954   22860549.2674
       226.0004        175.0004
  22466901.5874   -1252830.58849   -973023.02847  22466900.4484   22466903.7614
       230.0004        189.0004
  22610512.7134    1066093.62749    822481.10446  22610511.7384   22610515.1014
       227.0004        176.0004
  22479858.9464   -4247174.28549  -3289996.24046  22479858.1384   22479864.3624
       229.0004        179.0004
  20308489.9764   -1646853.93149  -1277644.15447  20308489.5754   20308492.9034
       237.0004        211.0004
  24245843.6474   -2327680.12449  -1788495.04145  24245844.5214   24245848.6884
       217.0004        158.0004
  23641018.7204     933951.43849    719738.88245  23641017.9144   23641024.0874
       209.0004        154.0004
 07  2 18  0 48 10.0000000  0  9G22G21G 3G19G18G 1G14G31G 9
  20980623.8584    -300133.90449   -235561.69447  20980623.6664   20980625.4704
       244.0004        208.0004
  23285707.0534    2619371.37049   2027366.12445  23285706.4114   23285710.5464
       215.0004        155.0004
  22862454.2624    1109705.25749    860650.42546  22862453.5734   22862460.8884
       226.0004        175.0004
  22466960.3754   -1252521.76549   -972782.38247  22466959.4784   22466962.6274
       230.0004        189.0004
  22612245.3604    1075198.64649    829575.90846  22612244.6894   22612248.0704
       228.0004        176.0004
  22477266.4304   -4260798.10949  -3300612.19946  22477266.4624   22477271.6354
       229.0004        179.0004
  20308183.0024   -1648467.09449  -1278901.16547  20308182.5884   20308186.0414
       237.0004        211.0004
  24242586.6074   -2344795.99749  -1801832.07245  24242587.3664   24242591.6754
       216.0004        158.0004
  23642920.7874     943946.66749    727527.37645  23642920.5474   23642925.2284
       209.0004        154.0004
 07  2 18  0 48 15.0000000  0  9G22G21G 3G19G18G 1G14G31G 9
  20981240.2894    -296894.46949   -233037.46147  20981240.1304   20981241.8034
       243.0004        208.0004
  23288831.2764    2635789.39749   2040159.39345  23288830.9984   23288834.6084
       216.0004        155.0004
  22864366.7694    1119755.55749    868481.82446  22864365.8594   22864372.3354
       227.0004        174.0004
  22467022.0624   -1252197.72749   -972529.88947  22467020.9654   22467024.2614
       230.0004        189.0004
  22613978.5434    1084306.63349    836673.05546  22613977.8194   22613981.3514
       228.0004        176.0004
  22474675.6504   -4274412.88249  -3311221.10046  22474675.4164   22474680.3474
       229.0004        179.0004
  20307878.6164   -1650066.53849  -1280147.48247  20307878.2684   20307881.5364
       236.0004        211.0004
  24239329.4554   -2361912.57649  -1815169.65245  24239330.2114   24239334.8454
       215.0004        157.0004
  23644825.7534     953957.27849    735327.85045  23644825.9984   23644830.3174
       212.0004        154.0004
 07  2 18  0 48 20.0000000  0  9G22G21G 3G19G18G 1G14G31G 9
  20981857.5044    -293651.02249   -230510.10147  20981857.4324   20981859.2884
       244.0004        208.0004
  23291956.8394    2652214.24549   2052957.97545  23291956.4844   23291960.6314
       216.0004        155.0004
  22866280.9184    1129814.60449    876320.03446  22866280.1244   22866286.1304
       226.0004        174.0004
  22467086.5534   -1251858.75949   -972265.75547  22467086.0504   22467088.7444
       230.0004        189.0004
  22615712.2804    1093417.35749    843772.31346  22615711.7594   22615715.1054
       227.0004        176.0004
  22472086.5564   -4288018.86349  -3321823.16046  22472086.1684   22472091.5684
       230.0004        179.0004
  20307576.8154   -1651652.55449  -1281383.33647  20307576.3774   20307579.7874
       237.0004        211.0004
  24236072.0804   -2379030.11049  -1828507.97345  24236072.2164   24236076.9114
       214.0004        156.0004
  23646733.5784     963982.92949    743140.04845  23646733.6374   23646737.8654
       213.0004        154.0004
 07  2 18  0 48 25.0000000  0  9G22G21G 3G19G18G 1G14G31G 9
  20982475.5194    -290403.42749   -227979.50247  20982475.2454   20982476.8954
       243.0004        208.0004
  23295083.7364    2668646.02849   2065761.95945  23295083.6794   23295088.1364
       214.0004        155.0004
  22868196.7894    1139882.61149    884165.23646  22868196.3674   22868202.2354
       226.0004        174.0004
  22467153.9434   -1251504.69449   -971989.85747  22467152.7844   22467155.7374
       230.0004        189.0004
  22617446.5284    1102530.90649    850873.78346  22617445.5784   22617449.1094
       229.0004        176.0004
  22469499.1334   -4301615.89349  -3332418.23246  22469498.8404   22469503.9494
       229.0004        180.0004
  20307277.5824   -1653224.98049  -1282608.59947  20307277.1554   20307280.4414
       236.0004        211.0004
  24232814.5804   -2396148.45749  -1841846.92845  24232815.0614   24232819.7544
       215.0004        156.0004
  23648644.2774     974023.83349    750964.13445  23648643.9144   23648649.1254
       210.0004        154.0004
 07  2 18  0 48 30.0000000  0  9G22G21G 3G19G18G 1G14G31G 9
  20983094.3144    -287151.59449   -225445.60647  20983094.1064   20983095.8244
       243.0004        208.0004
  23298211.9504    2685084.81849   2078571.38645  23298210.1554   23298216.5544
       216.0004        155.0004
  22870114.3604    1149959.63549    892017.45746  22870113.9604   22870119.9474
       225.0004        174.0004
  22467224.2174   -1251135.42449   -971702.10947  22467223.2054   22467226.1124
       229.0004        189.0004
  22619181.3544    1111647.40549    857977.54146  22619180.8974   22619184.2754
       227.0004        176.0004
  22466913.4414   -4315203.89849  -3343006.29446  22466913.2804   22466918.3844
       229.0004        180.0004
  20306980.9664   -1654783.75349  -1283823.22647  20306980.6004   20306984.0294
       236.0004        211.0004
  24229556.9344   -2413267.51449  -1855186.43345  24229557.3664   24229562.1084
       215.0004        155.0004
  23650557.8914     984080.00949    758800.11745  23650558.0594   23650561.8504
       212.0004        154.0004
 07  2 18  0 48 35.0000000  0  9G22G21G 3G19G18G 1G14G31G 9
  20983713.9034    -283895.58049   -222908.45147  20983713.5974   20983715.5144
       243.0004        208.0004
  23301341.4884    2701530.56349   2091386.25645  23301340.3484   23301344.5184
       215.0004        155.0004
  22872033.6624    1160045.61549    899876.65246  22872032.8414   22872038.3614
       226.0004        174.0004
  22467297.3344   -1250751.07849   -971402.61747  22467296.6544   22467299.1534
       230.0004        189.0004
  22620916.7674    1120766.82649    865083.58546  22620916.8154   22620919.6004
       228.0004        176.0004
  22464329.4624   -4328782.91549  -3353587.33246  22464328.9794   22464334.9504
       229.0004        180.0004
  20306686.9414   -1656328.95149  -1285027.27247  20306686.4444   20306689.8734
       236.0004        211.0004
  24226299.1454   -2430387.31749  -1868526.51945  24226299.2224   24226304.1464
       214.0004        155.0004
  23652474.3984     994151.40149    766647.96345  23652474.1534   23652478.7264
       211.0004        153.0004
 07  2 18  0 48 40.0000000  0  9G22G21G 3G19G18G 1G14G31G 9
  20984334.3084    -280635.30449   -220367.97547  20984334.1684   20984336.1034
       243.0004        208.0004
  23304472.3524    2717983.26949   2104206.54045  23304472.1904   23304475.5134
       215.0004        155.0004
  22873954.6574    1170140.64349    907742.90646  22873954.5714   22873960.3074
       226.0004        174.0004
  22467373.3554   -1250351.62249   -971091.35747  22467372.3824   22467375.3224
       230.0004        189.0004
  22622652.7044    1129889.17949    872191.91946  22622651.8044   22622655.6674
       227.0004        176.0004
  22461747.1904   -4342352.87849  -3364161.32246  22461747.1964   22461752.0924
       229.0004        180.0004
  20306395.4764   -1657860.46249  -1286220.65647  20306394.9254   20306398.5154
       236.0004        211.0004
  24223041.2414   -2447507.79949  -1881867.13045  24223041.7374   24223045.6674
       214.0004        154.0004
  23654393.8504    1004238.07249    774507.71145  23654393.6944   23654399.0034
       211.0004        153.0004
 07  2 18  0 48 45.0000000  0  9G22G21G 3G19G18G 1G14G31G 9
  20984955.4984    -277370.96249   -217824.32947  20984955.1284   20984957.0624
       243.0004        208.0004
  23307604.5154    2734442.80549   2117032.15045  23307603.3424   23307608.0764
       213.0004        154.0004
  22875877.3484    1180244.46949    915616.01846  22875876.8404   22875883.0834
       227.0004        174.0004
  22467452.1864   -1249937.21749   -970768.43947  22467451.1674   22467454.1694
       230.0004        189.0004
  22624389.1604    1139014.23449    879302.34746  22624388.4724   22624392.2354
       227.0004        176.0004
  22459166.5924   -4355914.00449  -3374728.42246  22459166.4934   22459170.9284
       229.0004        180.0004
  20306106.6094   -1659378.54249  -1287403.56947  20306106.0754   20306109.5434
       237.0004        211.0004
  24219783.1484   -2464629.17249  -1895208.43745  24219783.6834   24219788.2734
       215.0004        153.0004
  23656316.1254    1014339.80549    782379.18845  23656315.6334   23656320.9314
       212.0004        153.0004
 07  2 18  0 48 50.0000000  0  9G22G21G 3G19G18G 1G14G31G 9
  20985577.4514    -274102.41449   -215277.40847  20985577.3774   20985579.0714
       243.0004        208.0004
  23310737.9824    2750909.30449   2129863.18645  23310736.7134   23310741.5404
       213.0004        154.0004
  22877801.7024    1190357.18849    923496.05046  22877801.1184   22877806.4364
       226.0004        174.0004
  22467533.9224   -1249507.73249   -970433.77247  22467532.8014   22467535.9834
       230.0004        189.0004
  22626126.1444    1148142.14049    886415.00246  22626124.8704   22626129.0704
       228.0004        176.0004
  22456587.7114   -4369466.10749  -3385288.49646  22456587.2884   22456592.4094
       229.0004        180.0004
  20305820.2924   -1660883.04649  -1288575.91247  20305819.9234   20305823.1544
       236.0004        211.0004
  24216524.9124   -2481751.27649  -1908550.31545  24216525.7184   24216529.4694
       214.0004        153.0004
  23658241.3424    1024456.75649    790262.53145  23658240.6014   23658246.2884
       209.0004        153.0004
 07  2 18  0 48 55.0000000  0  9G22G21G 3G19G18G 1G14G31G 9
  20986200.2594    -270829.65649   -212727.20647  20986200.3464   20986201.9344
       244.0004        208.0004
  23313872.7374    2767382.74049   2142699.61145  23313871.4334   23313875.7214
       211.0004        153.0004
  22879727.7844    1200478.78549    931383.00746  22879727.6744   22879733.5604
       227.0004        174.0004
  22467618.5004   -1249063.14949   -970087.34147  22467617.4924   22467620.2704
       230.0004        188.0004
  22627863.6534    1157272.94349    893529.90346  22627863.3064   22627866.7244
       226.0004        176.0004
  22454010.5324   -4383009.18749  -3395841.53446  22454009.9424   22454015.5844
       229.0004        180.0004
  20305536.6014   -1662373.95749  -1289737.65547  20305536.2004   20305539.5014
       236.0004        211.0004
  24213266.5754   -2498874.08549  -1921892.74045  24213266.9444   24213270.9154
       214.0004        152.0004
  23660169.4124    1034588.90349    798157.70845  23660167.7274   23660173.6254
       208.0004        152.0004
 07  2 18  0 49  0.0000000  0  9G22G21G 3G19G18G 1G14G31G 9
  20986823.8184    -267552.81149   -210173.82047  20986823.7644   20986825.3624
       244.0004        208.0004
  23317008.8164    2783863.02749   2155541.37545  23317008.0714   23317012.5814
       212.0004        154.0004
  22881655.5344    1210609.15449    939276.80546  22881655.6394   22881660.5334
       226.0004        174.0004
  22467705.9474   -1248603.52949   -969729.19347  22467705.3014   22467707.8414
       230.0004        188.0004
  22629601.7134    1166406.53949    900646.99446  22629601.2034   22629604.7334
       228.0004        176.0004
  22451435.0654   -4396543.35849  -3406387.63646  22451434.6654   22451439.8564
       229.0004        180.0004
  20305255.4514   -1663851.40849  -1290888.91147  20305255.0544   20305258.3564
       237.0004        211.0004
  24210008.0864   -2515997.68449  -1935235.78845  24210008.2004   24210012.6564
       215.0004        151.0004
  23662100.3444    1044736.14949    806064.64145  23662099.7694   23662104.7194
       210.0004        152.0004
 07  2 18  0 49  5.0000000  0  9G22G21G 3G19G18G 1G14G31G 9
  20987448.2354    -264271.56649   -207617.00547  20987448.2924   20987449.8984
       244.0004        208.0004
  23320146.2314    2800350.40049   2168388.68145  23320146.6284   23320149.7194
       214.0004        154.0004
  22883584.9944    1220748.51949    947177.59646  22883584.9844   22883589.8274
       226.0004        174.0004
  22467796.3424   -1248128.60449   -969359.12147  22467795.4794   22467798.2054
       230.0004        188.0004
  22631340.3484    1175543.15849    907766.43746  22631339.5204   22631343.2044
       227.0004        175.0004
  22448861.3484   -4410068.29149  -3416926.53646  22448860.5574   22448866.2634
       230.0004        181.0004
  20304976.9134   -1665315.13649  -1292029.47847  20304976.5174   20304979.8794
       236.0004        211.0004
  24206749.4974   -2533121.73949  -1948579.19645  24206749.0964   24206754.3034
       214.0004        151.0004
  23664034.2214    1054898.74749    813983.55445  23664034.3904   23664037.7634
       210.0004        152.0004
 07  2 18  0 49 10.0000000  0  9G22G21G 3G19G18G 1G14G31G 9
  20988073.4044    -260986.41949   -205057.14947  20988073.3294   20988074.8314
       244.0004        208.0004
  23323284.9394    2816844.40349   2181241.15645  23323285.1564   23323288.6524
       215.0004        154.0004
  22885516.0854    1230896.46449    955085.08646  22885516.2774   22885521.6894
       227.0004        174.0004
  22467889.5204   -1247638.87049   -968977.50547  22467888.5644   22467891.5024
       229.0004        188.0004
  22633079.4714    1184682.38249    914887.90146  22633079.0954   22633082.3634
       229.0004        175.0004
  22446289.3334   -4423584.46049  -3427458.60946  22446288.4284   22446293.8184
       230.0004        181.0004
  20304700.9034   -1666765.51449  -1293159.64147  20304700.3784   20304703.8654
       237.0004        211.0004
  24203490.7304   -2550246.74349  -1961923.34145  24203490.5924   24203495.8434
       216.0004        150.0004
  23665970.9554    1065076.22549    821914.05745  23665970.3004   23665975.8424
       209.0004        152.0004
 07  2 18  0 49 15.0000000  0  9G22G21G 3G19G18G 1G14G31G 9
  20988699.3554    -257696.95549   -202493.92747  20988699.1764   20988700.9654
       244.0004        208.0004
  23326424.9924    2833345.44349   2194099.11145  23326424.9724   23326429.2834
       215.0004        154.0004
  22887448.9234    1241053.43549    962999.60846  22887449.0994   22887454.5914
       227.0004        174.0004
  22467985.6174   -1247133.90549   -968584.02647  22467984.5584   22467987.4384
       230.0004        188.0004
  22634819.1774    1193824.59449    922011.71746  22634817.2024   22634821.8144
       226.0004        175.0004
  22443719.0584   -4437091.48349  -3437983.56046  22443718.0974   22443724.2604
       230.0004        181.0004
  20304427.5224   -1668202.21149  -1294279.14347  20304427.2084   20304430.4224
       236.0004        211.0004
  24200231.8774   -2567372.28449  -1975267.91445  24200231.3084   24200236.8784
       213.0004        150.0004
  23667910.5294    1075268.85949    829856.36945  23667909.8374   23667914.5204
       208.0004        151.0004
 07  2 18  0 49 20.0000000  0  9G22G21G 3G19G18G 1G14G31G 9
  20989326.1044    -254403.35049   -199927.48547  20989325.8324   20989327.5604
       243.0004        208.0004
  23329566.3734    2849853.36149   2206962.41245  23329566.3774   23329571.0564
       212.0004        154.0004
  22889383.4234    1251219.30549    970921.06446  22889383.1204   22889388.4954
       227.0004        174.0004
  22468084.5634   -1246613.89349   -968178.82347  22468083.5494   22468086.1414
       230.0004        188.0004
  22636559.4014    1202969.67449    929137.73846  22636558.9964   22636561.9514
       230.0004        175.0004
  22441150.4774   -4450589.51449  -3448501.49346  22441149.7754   22441155.5234
       229.0004        181.0004
  20304156.6874   -1669625.39249  -1295388.11347  20304156.2554   20304159.5984
       236.0004        211.0004
  24196972.8534   -2584498.50849  -1988613.01645  24196973.2244   24196977.2564
       212.0004        149.0004
  23669852.9934    1085476.61549    837810.47445  23669853.0324   23669857.9524
       210.0004        151.0004
 07  2 18  0 49 25.0000000  0  9G22G21G 3G19G18G 1G14G31G 9
  20989953.6624    -251105.55149   -197357.77247  20989953.4484   20989955.2544
       243.0004        208.0004
  23332709.0204    2866368.22549   2219831.12845  23332708.2024   23332713.1594
       212.0004        154.0004
  22891319.6414    1261394.08349    978849.45646  22891319.4194   22891325.5864
       227.0004        174.0004
  22468186.3804   -1246078.79349   -967761.86047  22468185.4194   22468188.3514
       229.0004        188.0004
  22638300.2064    1212117.69249    936266.07246  22638299.0524   22638303.7164
       227.0004        175.0004
  22438583.5994   -4464078.44249  -3459012.34246  22438583.5824   22438588.4104
       230.0004        181.0004
  20303888.4504   -1671034.94649  -1296486.46747  20303888.0614   20303891.4404
       236.0004        211.0004
  24193713.7104   -2601625.32849  -2001958.57745  24193713.9704   24193717.1204
       213.0004        148.0004
  23671798.3264    1095699.53849    845776.38245  23671798.4154   23671802.7194
       209.0004        151.0004
 07  2 18  0 49 30.0000000  0  9G22G21G 3G19G18G 1G14G31G 9
  20990581.9624    -247803.81849   -194784.98747  20990581.9334   20990583.5714
       244.0004        208.0004
  23335852.9444    2882889.69549   2232704.98645  23335851.8564   23335856.2494
       213.0004        154.0004
  22893257.4724    1271577.36749    986784.48246  22893257.6084   22893262.3274
       226.0004        174.0004
  22468291.0054   -1245528.84749   -967333.33247  22468289.7774   22468293.0264
       230.0004        188.0004
  22640041.5174    1221268.34949    943396.45046  22640041.1164   22640044.0084
       227.0004        175.0004
  22436018.4194   -4477558.57849  -3469516.33246  22436018.0484   22436023.3464
       230.0004        181.0004
  20303622.7634   -1672431.17949  -1297574.43447  20303622.2954   20303625.7144
       237.0004        211.0004
  24190454.4154   -2618752.99349  -2015304.79545  24190454.3874   24190458.4014
       213.0004        148.0004
  23673746.5254    1105937.31049    853753.87145  23673746.5864   23673750.3894
       208.0004        151.0004
 07  2 18  0 49 35.0000000  0  9G22G21G 3G19G18G 1G14G31G 9
  20991211.0964    -244497.68949   -192208.78247  20991210.9574   20991212.6964
       244.0004        208.0004
  23338998.2044    2899418.22549   2245584.36245  23338997.9084   23339002.1954
       213.0004        153.0004
  22895196.9954    1281769.55349    994726.44746  22895196.4854   22895201.5214
       227.0004        174.0004
  22468398.5544   -1244963.64049   -966892.90547  22468397.5224   22468400.4914
       229.0004        188.0004
  22641783.3914    1230422.03949    950529.20046  22641782.3404   22641785.8864
       229.0004        175.0004
  22433454.9934   -4491029.45849  -3480013.12246  22433454.7924   22433460.0074
       230.0004        181.0004
  20303359.6814   -1673813.65549  -1298651.68847  20303359.2574   20303362.5554
       237.0004        211.0004
  24187195.0594   -2635881.08049  -2028651.33445  24187196.0034   24187199.4944
       210.0004        148.0004
  23675697.6114    1116190.37649    861743.26845  23675697.3064   23675701.9434
       209.0004        151.0004
 07  2 18  0 49 40.0000000  0  9G22G21G 3G19G18G 1G14G31G 9
  20991841.0194    -241187.45949   -189629.38147  20991840.7014   20991842.5684
       243.0004        208.0004
  23342144.7674    2915953.51849   2258468.98445  23342143.7504   23342147.8324
       211.0004        153.0004
  22897138.1844    1291970.50749   1002675.24246  22897137.5524   22897143.3914
       226.0004        174.0004
  22468508.9694   -1244383.43149   -966440.79547  22468507.7264   22468511.0534
       229.0004        188.0004
  22643525.8044    1239578.46549    957664.06546  22643525.3344   22643528.7674
       227.0004        175.0004
  22430893.2744   -4504491.35749  -3490502.89346  22430892.8264   22430898.0074
       229.0004        181.0004
  20303099.1694   -1675182.66449  -1299718.44547  20303098.8574   20303102.2374
       237.0004        211.0004
  24183935.5324   -2653009.83349  -2041998.40145  24183935.5504   24183940.2854
       211.0004        148.0004
  23677651.5454    1126458.44349    869744.35745  23677651.5034   23677656.2844
       207.0004        151.0004
 07  2 18  0 49 45.0000000  0  9G22G21G 3G19G18G 1G14G31G 9
  20992471.7494    -237873.03349   -187046.71247  20992471.4044   20992473.3594
       244.0004        208.0004
  23345292.6134    2932495.69149   2271358.98645  23345291.6014   23345297.0114
       213.0004        153.0004
  22899081.0484    1302180.28949   1010630.90946  22899081.9154   22899086.6794
       227.0004        174.0004
  22468622.2384   -1243788.15549   -965976.94547  22468621.3174   22468624.3484
       230.0004        188.0004
  22645268.7614    1248737.82749    964801.23346  22645267.9674   22645271.5694
       228.0004        175.0004
  22428333.2534   -4517944.19049  -3500985.62046  22428332.5684   22428338.2894
       230.0004        181.0004
  20302841.2334   -1676538.11749  -1300774.64047  20302840.7064   20302844.3084
       237.0004        211.0004
  24180675.9014   -2670139.18149  -2055345.92245  24180675.6074   24180681.4154
       209.0004        148.0004
  23679608.3674    1136741.63349    877757.22345  23679608.8184   23679613.5504
       209.0004        151.0004
 07  2 18  0 49 50.0000000  0  9G22G21G 3G19G18G 1G14G31G 9
  20993103.2794    -234554.32449   -184460.70147  20993103.0674   20993104.9064
       243.0004        208.0004
  23348441.7554    2949044.82049   2284254.39545  23348441.5204   23348446.1624
       213.0004        153.0004
  22901025.6064    1312398.91849   1018593.48246  22901025.2604   22901030.4884
       225.0004        174.0004
  22468738.3834   -1243177.71349   -965501.27547  22468737.2474   22468740.1094
       229.0004        188.0004
  22647012.3104    1257900.21049    971940.74946  22647012.2204   22647015.3374
       228.0004        175.0004
  22425775.0194   -4531387.85149  -3511461.19046  22425774.4394   22425780.0194
       229.0004        182.0004
  20302585.9004   -1677879.93149  -1301820.20747  20302585.4034   20302588.6934
       237.0004        211.0004
  24177416.1344   -2687269.03249  -2068693.83445  24177415.6334   24177421.1784
       210.0004        147.0004
  23681568.0884    1147039.94849    885781.89245  23681568.3814   23681572.2254
       206.0004        151.0004
 07  2 18  0 49 55.0000000  0  9G22G21G 3G19G18G 1G14G31G 9
  20993735.5214    -231231.77949   -181871.70647  20993735.6294   20993736.8944
       243.0004        208.0004
  23351592.1334    2965600.40049   2297154.83745  23351592.3094   23351595.8644
       214.0004        153.0004
  22902971.7314    1322625.86949   1026562.52846  22902971.6034   22902976.8124
       226.0004        174.0004
  22468857.3324   -1242552.55749   -965014.13847  22468856.4144   22468859.3964
       229.0004        188.0004
  22648756.3564    1267065.11049    979082.23746  22648755.0934   22648759.0604
       228.0004        175.0004
  22423218.4204   -4544822.79249  -3521929.96846  22423218.1094   22423223.6244
       230.0004        182.0004
  20302333.0794   -1679208.57349  -1302855.50847  20302332.5284   20302335.8994
       237.0004        212.0004
  24174156.2244   -2704399.78949  -2082042.44545  24174155.3604   24174160.8984
       211.0004        147.0004
  23683530.5554    1157352.98949    893818.03245  23683529.5044   23683535.3564
       207.0004        151.0004
 07  2 18  0 50  0.0000000  0  9G22G21G 3G19G18G 1G14G31G 9
  20994368.6504    -227904.68749   -179279.16647  20994368.5814   20994370.2434
       243.0004        208.0004
  23354743.9224    2982163.19849   2310060.90845  23354743.5474   23354747.2564
       213.0004        153.0004
  22904919.5914    1332861.86649   1034538.63046  22904918.5454   22904924.7964
       226.0004        174.0004
  22468979.2394   -1241911.99349   -964515.00047  22468978.6104   22468981.3384
       230.0004        188.0004
  22650500.9894    1276233.28249    986226.26146  22650500.6954   22650504.2174
       228.0004        175.0004
  22420663.5944   -4558248.29249  -3532391.38946  22420663.2184   22420668.0544
       229.0004        182.0004
  20302082.8814   -1680523.31049  -1303879.97647  20302082.3514   20302085.8554
       237.0004        212.0004
  24170896.2894   -2721530.65449  -2095391.15445  24170895.5074   24170900.6764
       211.0004        148.0004
  23685495.9784    1167681.43249    901866.17445  23685495.3934   23685500.7424
       208.0004        151.0004
 07  2 18  0 50  5.0000000  0  9G22G21G 3G19G18G 1G14G31G 9
  20995002.5424    -224573.51849   -176683.44747  20995002.3424   20995004.0394
       243.0004        208.0004
  23357896.9874    2998732.64349   2322972.16745  23357896.5854   23357901.5064
       211.0004        152.0004
  22906869.0884    1343106.56649   1042521.50146  22906868.7554   22906874.0244
       226.0004        173.0004
  22469103.9644   -1241256.51249   -964004.22647  22469103.3834   22469105.9444
       229.0004        188.0004
  22652246.1794    1285404.13949    993372.37446  22652246.0864   22652249.2344
       228.0004        175.0004
  22418110.4994   -4571664.80749  -3542845.81046  22418109.8264   22418115.6884
       228.0004        182.0004
  20301835.2664   -1681824.66049  -1304894.01147  20301834.8124   20301838.0164
       237.0004        212.0004
  24167636.2754   -2738662.17049  -2108740.36845  24167636.0444   24167641.5394
       211.0004        148.0004
  23687464.2704    1178024.83549    909925.97545  23687463.9204   23687468.3864
       208.0004        151.0004
 07  2 18  0 50 10.0000000  0  9G22G21G 3G19G18G 1G14G31G 9
  20995637.1994    -221238.34549   -174084.60947  20995637.0334   20995638.8204
       244.0004        208.0004
  23361051.3464    3015308.76649   2335888.63345  23361051.2114   23361054.4224
       213.0004        152.0004
  22908820.1964    1353359.76949   1050511.01346  22908819.1454   22908825.2084
       225.0004        173.0004
  22469231.5374   -1240586.16249   -963481.87747  22469230.8254   22469233.5714
       230.0004        188.0004
  22653991.8474    1294577.68349   1000520.60746  22653991.3584   22653995.1484
       229.0004        175.0004
  22415559.1044   -4585072.42049  -3553293.29146  22415558.8324   22415563.4924
       230.0004        182.0004
  20301590.1354   -1683112.77349  -1305897.73347  20301589.6424   20301593.1694
       237.0004        212.0004
  24164376.0824   -2755794.41849  -2122090.15945  24164375.9514   24164381.2774
       211.0004        148.0004
  23689435.3424    1188383.07449    917997.32845  23689434.6364   23689440.6124
       207.0004        151.0004
 07  2 18  0 50 15.0000000  0  9G22G21G 3G19G18G 1G14G31G 9
  20996272.7014    -217898.85749   -171482.41347  20996272.6234   20996274.2384
       243.0004        208.0004
  23364206.9954    3031891.82249   2348810.47745  23364206.9464   23364210.0834
       214.0004        152.0004
  22910773.0034    1363621.85749   1058507.43346  22910772.0834   22910778.0404
       227.0004        173.0004
  22469361.9804   -1239900.63949   -962947.70847  22469361.0854   22469364.2834
       229.0004        188.0004
  22655738.1284    1303754.30249   1007671.19646  22655738.2794   22655741.8344
       229.0004        176.0004
  22413009.4644   -4598470.76949  -3563733.55546  22413008.8874   22413014.5694
       229.0004        182.0004
  20301347.6204   -1684387.15449  -1306890.75647  20301347.2304   20301350.6354
       237.0004        212.0004
  24161115.8554   -2772926.99449  -2135440.20245  24161115.4684   24161121.0394
       212.0004        149.0004
  23691409.3274    1198756.47349    926080.49345  23691409.1594   23691414.7764
       201.0004        150.0004
 07  2 18  0 50 20.0000000  0  9G22G21G 3G19G18G 1G14G31G 9
  20996908.9774    -214555.19949   -168876.96147  20996908.8134   20996910.6354
       243.0004        208.0004
  23367363.9974    3048481.69149   2361737.64045  23367364.2104   23367367.7404
       216.0004        152.0004
  22912727.4734    1373892.68649   1066510.68146  22912726.5794   22912732.6744
       226.0004        173.0004
  22469495.3124   -1239200.03149   -962401.77647  22469494.6434   22469497.4224
       229.0004        188.0004
  22657484.9354    1312933.85449   1014824.09746  22657484.6604   22657488.2634
       228.0004        176.0004
  22410461.5494   -4611860.00449  -3574166.71646  22410461.1914   22410466.4694
       229.0004        182.0004
  20301107.7104   -1685647.98849  -1307873.22247  20301107.1864   20301110.5684
       237.0004        212.0004
  24157855.5024   -2790060.05949  -2148790.63045  24157854.7454   24157860.6294
       211.0004        149.0004
  23693386.1364    1209144.94549    934175.39145  23693386.7104   23693391.1204
       206.0004        150.0004
 07  2 18  0 50 25.0000000  0  9G22G21G 3G19G18G 1G14G31G 9
  20997546.0134    -211207.49849   -166268.36247  20997545.8124   20997547.5694
       243.0004        208.0004
  23370522.2224    3065078.23349   2374670.00645  23370522.5244   23370526.0984
       216.0004        152.0004
  22914683.5584    1384172.00049   1074520.53146  22914682.5754   22914688.8594
       227.0004        173.0004
  22469631.4784   -1238484.50849   -961844.22447  22469630.0294   22469633.9924
       229.0004        188.0004
  22659232.3004    1322116.17349   1021979.16446  22659231.6704   22659235.2334
       228.0004        176.0004
  22407915.3554   -4625240.26549  -3584592.88346  22407914.3944   22407920.4714
       229.0004        182.0004
  20300870.3234   -1686895.42149  -1308845.24747  20300869.9604   20300873.0674
       237.0004        212.0004
  24154595.0224   -2807193.73649  -2162141.51945  24154594.3524   24154599.7304
       212.0004        150.0004
  23695365.7914    1219548.26249    942281.87245  23695365.2804   23695369.9834
       205.0004        149.0004
 07  2 18  0 50 30.0000000  0  9G22G21G 3G19G18G 1G14G31G 9
  20998183.8414    -207855.71149   -163656.58047  20998183.5604   20998185.3474
       243.0004        208.0004
  23373681.7484    3081681.46449   2387607.59045  23373681.2874   23373684.7394
       215.0004        152.0004
  22916641.2564    1394459.76849   1082536.96746  22916640.9704   22916645.7134
       226.0004        173.0004
  22469770.4964   -1237754.04549   -961275.03547  22469769.6724   22469772.3234
       229.0004        188.0004
  22660980.1714    1331301.32249   1029136.40646  22660980.1804   22660983.4714
       228.0004        176.0004
  22405370.9074   -4638611.49249  -3595012.02346  22405369.9354   22405376.0324
       229.0004        182.0004
  20300635.4984   -1688129.41949  -1309806.80047  20300635.1034   20300638.4524
       237.0004        212.0004
  24151334.4354   -2824327.98049  -2175492.85045  24151333.7204   24151339.7174
       213.0004        151.0004
  23697348.3024    1229966.49649    950399.97845  23697347.7484   23697353.3314
       205.0004        149.0004
 07  2 18  0 50 35.0000000  0  9G22G21G 3G19G18G 1G14G31G 9
  20998822.4634    -204499.61849   -161041.43947  20998822.2084   20998824.0254
       243.0004        208.0004
  23376842.6014    3098291.59949   2400550.55345  23376841.4294   23376846.7214
       215.0004        153.0004
  22918600.6394    1404756.29949   1090560.23846  22918600.6534   22918605.6604
       226.0004        173.0004
  22469912.3854   -1237008.41249   -960694.02047  22469911.2944   22469914.3064
       230.0004        188.0004
  22662728.6054    1340489.46149   1036296.00246  22662728.0004   22662731.9474
       228.0004        176.0004
  22402828.1964   -4651973.47949  -3605423.95046  22402827.6054   22402833.6524
       228.0004        182.0004
  20300403.2704   -1689349.81449  -1310757.75447  20300402.6744   20300406.0824
       237.0004        212.0004
  24148073.7994   -2841462.55749  -2188844.44145  24148073.8964   24148078.8334
       211.0004        151.0004
  23699333.6524    1240399.80649    958529.82845  23699332.4344   23699338.4374
       204.0004        149.0004
 07  2 18  0 50 40.0000000  0  9G22G21G 3G19G18G 1G14G31G 9
  20999461.8954    -201139.45249   -158423.12847  20999461.6054   20999463.4264
       243.0004        208.0004
  23380004.6764    3114908.40549   2413498.70745  23380003.5804   23380009.1354
       215.0004        153.0004
  22920561.6134    1415061.35249   1098590.14846  22920561.4454   22920565.8494
       227.0004        173.0004
  22470057.1024   -1236247.86949   -960101.38847  22470056.3344   22470059.1344
       230.0004        188.0004
  22664477.5674    1349680.36449   1043457.74346  22664476.4494   22664480.5384
       229.0004        176.0004
  22400287.1724   -4665326.45749  -3615828.85846  22400286.6844   22400292.4604
       229.0004        182.0004
  20300173.5644   -1690556.81949  -1311698.27647  20300173.0934   20300176.4744
       236.0004        212.0004
  24144813.0504   -2858597.68049  -2202196.46145  24144813.4734   24144818.4134
       213.0004        152.0004
  23701321.8514    1250848.03449    966671.29445  23701321.7964   23701326.5784
       205.0004        149.0004
 07  2 18  0 50 45.0000000  0  9G22G21G 3G19G18G 1G14G31G 9
  21000102.0904    -197775.06449   -155801.52847  21000102.0524   21000103.6944
       243.0004        208.0004
  23383168.0374    3131531.97949   2426452.13545  23383168.1304   23383172.5264
       215.0004        153.0004
  22922524.2894    1425375.07449   1106626.81046  22922523.9174   22922530.0284
       226.0004        173.0004
  22470204.6944   -1235472.26049   -959497.02247  22470203.8324   22470206.7744
       229.0004        188.0004
  22666227.0954    1358874.20549   1050621.76746  22666225.9784   22666229.7884
       228.0004        176.0004
  22397747.9124   -4678670.25749  -3626226.60946  22397747.5024   22397753.1374
       229.0004        182.0004
  20299946.4664   -1691750.25549  -1312628.22447  20299946.0904   20299949.3194
       237.0004        212.0004
  24141552.2364   -2875733.18349  -2215548.78245  24141552.1514   24141557.6044
       213.0004        153.0004
  23703312.9314    1261311.23349    974824.44345  23703312.8084   23703318.0804
       206.0004        149.0004
 07  2 18  0 50 50.0000000  0  9G22G21G 3G19G18G 1G14G31G 9
  21000743.1294    -194406.38549   -153176.58447  21000742.9184   21000744.6154
       243.0004        208.0004
  23386332.7004    3148162.42049   2439410.89945  23386332.6794   23386336.7634
       214.0004        153.0004
  22924488.6044    1435697.57549   1114670.31546  22924488.9074   22924493.7274
       228.0004        173.0004
  22470355.1754   -1234681.51449   -958880.85547  22470354.0284   22470357.3734
       229.0004        188.0004
  22667977.2014    1368071.02849   1057788.11746  22667976.2574   22667981.0124
       229.0004        176.0004
  22395210.4144   -4692004.80249  -3636617.15946  22395209.3694   22395215.0224
       229.0004        182.0004
  20299721.9664   -1692930.06749  -1313547.55547  20299721.5454   20299724.8674
       237.0004        212.0004
  24138291.3814   -2892868.98649  -2228901.33045  24138291.9684   24138296.7404
       214.0004        154.0004
  23705306.9054    1271789.55849    982989.37745  23705305.5284   23705312.7134
       201.0004        148.0004
 07  2 18  0 50 55.0000000  0  9G22G21G 3G19G18G 1G14G31G 9
  21001384.9024    -191033.85349   -150548.63447  21001384.7144   21001386.5284
       244.0004        208.0004
  23389498.6154    3164799.32549   2452374.71445  23389498.6074   23389503.1394
       217.0004        153.0004
  22926454.5034    1446028.33349   1122720.25546  22926454.3764   22926459.8674
       226.0004        173.0004
  22470508.4484   -1233876.04449   -958253.21347  22470507.4914   22470510.2494
       230.0004        188.0004
  22669727.7664    1377270.42549   1064956.48246  22669726.5654   22669731.1584
       228.0004        176.0004
  22392674.5924   -4705330.49149  -3647000.80846  22392673.7254   22392679.8904
       229.0004        182.0004
  20299499.9704   -1694096.68349  -1314456.60547  20299499.6094   20299502.8384
       237.0004        212.0004
  24135030.4154   -2910005.53949  -2242254.46645  24135030.2264   24135035.9034
       214.0004        155.0004
  23707303.5984    1282282.50949    991165.70045  23707302.4464   23707309.3014
       204.0004        148.0004
 07  2 18  0 51  0.0000000  0  9G22G21G 3G19G18G 1G14G31G 9
  21002027.5324    -187656.85649   -147917.20747  21002027.3794   21002029.0134
       244.0004        208.0004
  23392665.8524    3181443.16549   2465343.92645  23392665.7944   23392670.8164
       216.0004        153.0004
  22928422.0744    1456367.84049   1130777.00146  22928421.5844   22928427.1114
       226.0004        173.0004
  22470664.6204   -1233055.30049   -957613.67247  22470663.3834   22470666.3684
       230.0004        188.0004
  22671478.9414    1386472.95949   1072127.27746  22671478.2824   22671482.1914
       228.0004        176.0004
  22390140.5774   -4718646.78649  -3657377.13346  22390140.3884   22390145.5094
       229.0004        182.0004
  20299280.5794   -1695249.56949  -1315354.95347  20299280.2514   20299283.4914
       237.0004        212.0004
  24131769.3764   -2927142.28749  -2255607.75745  24131769.0544   24131774.1764
       215.0004        155.0004
  23709303.2064    1292790.64449    999353.86145  23709302.2424   23709308.3974
       203.0004        147.0004
 07  2 18  0 51  5.0000000  0  9G22G21G 3G19G18G 1G14G31G 9
  21002670.9504    -184275.76049   -145282.58547  21002670.7644   21002672.4494
       244.0004        208.0004
  23395834.3754    3198093.66149   2478318.33845  23395834.2414   23395838.1934
       217.0004        153.0004
  22930391.2444    1466715.79749   1138840.35046  22930391.2504   22930395.5734
       225.0004        173.0004
  22470823.6344   -1232219.65149   -956962.51247  22470822.3334   22470825.3364
       229.0004        188.0004
  22673230.6674    1395678.27449   1079300.27346  22673229.3104   22673233.7474
       227.0004        176.0004
  22387608.3014   -4731954.00849  -3667746.38746  22387607.9524   22387613.3324
       231.0004        182.0004
  20299063.7364   -1696389.01549  -1316242.83347  20299063.3814   20299066.5614
       236.0004        212.0004
  24128508.2424   -2944279.45149  -2268961.36845  24128507.8824   24128513.3604
       214.0004        156.0004
  23711305.6454    1303313.60849   1007553.56645  23711305.5454   23711310.7754
       203.0004        147.0004
 07  2 18  0 51 10.0000000  0  9G22G21G 3G19G18G 1G14G31G 9
  21003315.1204    -180890.53849   -142644.75047  21003314.9284   21003316.7254
       243.0004        208.0004
  23399004.1694    3214750.89449   2491298.00045  23399005.3264   23399007.3714
       217.0004        153.0004
  22932362.0474    1477072.35849   1146910.40246  22932361.6664   22932366.7704
       226.0004        173.0004
  22470985.4954   -1231368.98849   -956299.65847  22470984.3114   22470987.1544
       230.0004        188.0004
  22674982.9264    1404886.47549   1086475.47946  22674982.0774   22674986.1224
       228.0004        176.0004
  22385077.7484   -4745252.08749  -3678108.52546  22385077.8534   22385082.6664
       230.0004        182.0004
  20298849.4624   -1697515.01149  -1317120.23047  20298849.0594   20298852.2954
       237.0004        212.0004
  24125247.0364   -2961416.98749  -2282315.26845  24125247.1294   24125252.2424
       214.0004        156.0004
  23713310.9214    1313851.45849   1015764.87945  23713311.7264   23713316.0784
       204.0004        146.0004
 07  2 18  0 51 15.0000000  0  9G22G21G 3G19G18G 1G14G31G 9
  21003960.1014    -177501.21849   -140003.72047  21003959.7814   21003961.5964
       244.0004        208.0004
  23402175.1914    3231414.73349   2504282.80845  23402174.4924   23402178.2044
       217.0004        153.0004
  22934334.4904    1487437.46149   1154987.09946  22934333.8514   22934339.3434
       225.0004        173.0004
  22471150.1924   -1230503.40149   -955625.17347  22471149.3474   22471152.4874
       229.0004        188.0004
  22676735.7324    1414097.48649   1093652.90246  22676734.9934   22676738.6544
       226.0004        175.0004
  22382548.9274   -4758541.10049  -3688463.58246  22382548.1444   22382554.0874
       230.0004        182.0004
  20298637.7564   -1698627.60049  -1317987.17947  20298637.1364   20298640.5894
       237.0004        212.0004
  24121985.7714   -2978554.94749  -2295669.49745  24121986.1964   24121990.5854
       213.0004        157.0004
  23715319.0284    1324404.15949   1023987.76545  23715318.9264   23715324.1794
       201.0004        146.0004
 07  2 18  0 51 20.0000000  0  9G22G21G 3G19G18G 1G14G31G 9
  21004605.8754    -174107.64549   -137359.37647  21004605.7744   21004607.3804
       243.0004        208.0004
  23405347.5254    3248085.30949   2517272.87245  23405347.0454   23405351.0624
       214.0004        153.0004
  22936308.5414    1497811.12649   1163070.46446  22936308.4644   22936313.6764
       225.0004        173.0004
  22471317.7444   -1229622.75649   -954938.95947  22471316.5414   22471320.1294
       230.0004        188.0004
  22678489.0754    1423311.49149   1100832.63046  22678487.9694   22678491.7454
       227.0004        175.0004
  22380021.8904   -4771820.89249  -3698811.46346  22380021.6434   22380027.2204
       230.0004        182.0004
  20298428.6194   -1699726.67049  -1318843.59447  20298428.1214   20298431.6124
       237.0004        212.0004
  24118724.4564   -2995693.16849  -2309023.92945  24118724.8144   24118729.3614
       214.0004        158.0004
  23717329.9524    1334971.83649   1032222.30345  23717329.6344   23717336.2174
       204.0004        146.0004
 07  2 18  0 51 25.0000000  0  9G22G21G 3G19G18G 1G14G31G 9
  21005252.3894    -170710.03449   -134711.88447  21005252.2764   21005253.8784
       243.0004        208.0004
  23408521.0814    3264762.43149   2530268.02445  23408520.1994   23408523.8644
       217.0004        152.0004
  22938284.1864    1508193.11249   1171160.33046  22938283.0474   22938289.2144
       225.0004        172.0004
  22471488.1444   -1228727.27649   -954241.18247  22471486.8834   22471490.4404
       229.0004        188.0004
  22680242.9524    1432528.21949   1108014.50646  22680241.9654   22680244.6054
       227.0004        175.0004
  22377496.5224   -4785091.64049  -3709152.30346  22377496.3124   22377501.2694
       230.0004        183.0004
  20298221.9764   -1700812.46549  -1319689.66647  20298221.4444   20298224.9454
       236.0004        212.0004
  24115463.0814   -3012831.85949  -2322378.73145  24115463.6724   24115468.6354
       214.0004        158.0004
  23719343.7114    1345554.20149   1040468.30645  23719343.4004   23719348.2424
       205.0004        146.0004
 07  2 18  0 51 30.0000000  0  9G22G21G 3G19G18G 1G14G31G 9
  21005899.7564    -167308.08349   -132061.01347  21005899.6184   21005901.3054
       243.0004        208.0004
  23411695.8984    3281446.36549   2543268.48245  23411695.6304   23411699.4404
       217.0004        152.0004
  22940261.4484    1518583.72749   1179256.90446  22940261.4374   22940266.2144
       224.0004        172.0004
  22471661.4424   -1227816.65349   -953531.60547  22471660.4934   22471663.5214
       229.0004        188.0004
  22681997.4054    1441747.96149   1115198.72246  22681996.3514   22682000.4364
       227.0004        175.0004
  22374972.9684   -4798353.06549  -3719485.87546  22374973.0784   22374978.3164
       230.0004        183.0004
  20298017.9674   -1701884.67549  -1320525.15147  20298017.5854   20298020.9234
       237.0004        212.0004
  24112201.6564   -3029970.68049  -2335733.63445  24112201.8404   24112207.2834
       215.0004        159.0004
  23721360.3454    1356151.58249   1048726.01445  23721360.5244   23721364.9354
       204.0004        146.0004
 07  2 18  0 51 35.0000000  0  9G22G21G 3G19G18G 1G14G31G 9
  21006547.8984    -163902.03249   -129406.94947  21006547.7704   21006549.3314
       243.0004        208.0004
  23414871.9794    3298136.88949   2556274.08345  23414872.2314   23414875.8614
       219.0004        152.0004
  22942240.2824    1528982.71049   1187360.00946  22942239.6184   22942246.2964
       225.0004        172.0004
  22471837.5364   -1226891.11749   -952810.40847  22471836.3514   22471839.6754
       229.0004        188.0004
  22683752.3924    1450970.50449   1122385.10646  22683751.4564   22683755.5494
       228.0004        175.0004
  22372451.1334   -4811605.37949  -3729812.34646  22372450.4454   22372456.4044
       230.0004        183.0004
  20297816.4714   -1702943.50049  -1321350.20847  20297815.8844   20297819.3854
       236.0004        212.0004
  24108940.1844   -3047109.88749  -2349088.83545  24108941.0274   24108945.1634
       214.0004        159.0004
  23723379.7874    1366763.79349   1056995.27345  23723380.3464   23723384.2604
       206.0004        146.0004
 07  2 18  0 51 40.0000000  0  9G22G21G 3G19G18G 1G14G31G 9
  21007196.8594    -160491.75049   -126749.58347  21007196.6704   21007198.2604
       243.0004        208.0004
  23418049.3444    3314834.15149   2569284.93645  23418049.7614   23418052.9014
       219.0004        152.0004
  22944220.7754    1539390.26049   1195469.78246  22944220.0774   22944225.8344
       225.0004        172.0004
  22472016.4994   -1225950.55049   -952077.49747  22472015.8374   22472018.6964
       229.0004        188.0004
  22685507.9504    1460196.00249   1129573.81446  22685506.8604   22685511.4144
       227.0004        174.0004
  22369931.0514   -4824848.44849  -3740131.61546  22369930.6594   22369935.8474
       230.0004        183.0004
  20297617.5604   -1703988.80949  -1322164.73247  20297617.1824   20297620.4584
       237.0004        212.0004
  24105678.6384   -3064249.34149  -2362444.23245  24105679.2264   24105683.2754
       215.0004        160.0004
  23725402.0714    1377390.89549   1065276.13245  23725402.4464   23725405.8274
       206.0004        145.0004
 07  2 18  0 51 45.0000000  0  9G22G21G 3G19G18G 1G14G31G 9
  21007846.5584    -157077.44949   -124089.08847  21007846.2314   21007848.0104
       243.0004        208.0004
  23421227.9784    3331537.90949   2582300.85345  23421227.8314   23421231.3574
       219.0004        153.0004
  22946202.8384    1549806.18649   1203586.08246  22946202.5454   22946207.4094
       225.0004        172.0004
  22472198.3184   -1224995.14149   -951333.02147  22472197.3914   22472200.4244
       230.0004        188.0004
  22687264.0094    1469424.28549   1136764.68646  22687263.1054   22687266.5734
       225.0004        174.0004
  22367412.6904   -4838082.45149  -3750443.82046  22367412.3734   22367417.8894
       230.0004        183.0004
  20297421.1604   -1705020.79649  -1322968.87647  20297420.9384   20297423.9894
       237.0004        212.0004
  24102417.0204   -3081389.20749  -2375799.94745  24102417.8134   24102421.9854
       214.0004        160.0004
  23727427.1544    1388032.72349   1073568.45545  23727426.7044   23727432.2864
       203.0004        145.0004
 07  2 18  0 51 50.0000000  0  9G22G21G 3G19G18G 1G14G31G 9
  21008497.1084    -153658.82649   -121425.22647  21008496.9604   21008498.7754
       244.0004        208.0004
  23424407.8924    3348248.47949   2595322.08745  23424407.4304   23424411.8204
       217.0004        153.0004
  22948186.5344    1560230.69749   1211709.08246  22948186.5414   22948191.0714
       225.0004        172.0004
  22472382.9904   -1224024.60949   -950576.76347  22472382.5134   22472385.1794
       230.0004        188.0004
  22689020.6624    1478655.60749   1143957.91546  22689018.9894   22689023.5904
       226.0004        174.0004
  22364896.1184   -4851307.10949  -3760748.73846  22364896.0354   22364901.2704
       229.0004        183.0004
  20297227.3834   -1706039.18849  -1323762.42847  20297227.0024   20297230.4694
       237.0004        212.0004
  24099155.3954   -3098529.22049  -2389155.78045  24099155.6224   24099160.4654
       213.0004        160.0004
  23729455.0434    1398689.51349   1081872.44545  23729455.3404   23729459.4154
       208.0004        146.0004
 07  2 18  0 51 55.0000000  0  9G22G21G 3G19G18G 1G14G31G 9
  21009148.4094    -150236.23749   -118758.27247  21009148.1394   21009149.9584
       243.0004        208.0004
  23427589.0264    3364965.50949   2608348.34045  23427588.0784   23427593.6924
       217.0004        153.0004
  22950171.8344    1570663.44349   1219838.48346  22950171.6774   22950176.4404
       224.0004        172.0004
  22472570.4944   -1223039.29749   -949808.98747  22472569.8844   22472573.2564
       229.0004        188.0004
  22690777.8164    1487889.64449   1151153.27746  22690776.6424   22690781.4624
       225.0004        174.0004
  22362381.2724   -4864522.76249  -3771046.64146  22362380.4464   22362386.7634
       230.0004        183.0004
  20297036.0984   -1707044.35349  -1324545.67047  20297035.6454   20297039.0664
       237.0004        212.0004
  24095893.6974   -3115669.67249  -2402511.94845  24095894.2404   24095899.1504
       212.0004        160.0004
  23731485.7654    1409360.98649   1090187.88745  23731486.3144   23731490.3374
       205.0004        145.0004
 07  2 18  0 52  0.0000000  0  9G22G21G 3G19G18G 1G14G31G 9
  21009800.4954    -146809.49149   -116088.07847  21009800.2484   21009802.1664
       243.0004        208.0004
  23430771.4394    3381689.16849   2621379.75445  23430770.7954   23430775.7424
       215.0004        153.0004
  22952158.7044    1581104.59049   1227974.44346  22952158.5814   22952163.8634
       225.0004        172.0004
  22472760.8444   -1222039.01649   -949029.54547  22472759.7724   22472763.1714
       230.0004        188.0004
  22692535.5294    1497126.55749   1158350.86946  22692535.4054   22692538.3034
       226.0004        174.0004
  22359868.1564   -4877729.21149  -3781337.37446  22359868.1254   22359873.4104
       230.0004        183.0004
  20296847.3734   -1708036.10549  -1325318.46147  20296847.0154   20296850.3894
       237.0004        212.0004
  24092631.9564   -3132810.41449  -2415868.33545  24092632.0184   24092636.7204
       212.0004        160.0004
  23733519.2854    1420047.27049   1098514.87145  23733520.1664   23733524.2904
       204.0004        145.0004
 07  2 18  0 52  5.0000000  0  9G22G21G 3G19G18G 1G14G31G 9
  21010453.3934    -143378.39749   -113414.49747  21010453.0764   21010455.1144
       243.0004        208.0004
  23433955.0984    3398419.62949   2634416.45945  23433955.7004   23433958.9474
       218.0004        153.0004
  22954147.2214    1591554.32349   1236117.08646  22954147.0454   22954152.2394
       226.0004        172.0004
  22472954.0474   -1221023.66649   -948238.36047  22472953.3184   22472956.9414
       229.0004        188.0004
  22694293.8174    1506366.48549   1165550.80346  22694293.1184   22694296.5894
       227.0004        174.0004
  22357356.8254   -4890926.28049  -3791620.80046  22357356.7944   22357361.7884
       229.0004        183.0004
  20296661.2394   -1709014.25249  -1326080.65147  20296660.8144   20296664.2854
       237.0004        212.0004
  24089370.1824   -3149951.19949  -2429224.76445  24089370.4564   24089375.0354
       212.0004        160.0004
  23735555.6784    1430748.58749   1106853.55445  23735555.3674   23735560.4734
       206.0004        144.0004
 07  2 18  0 52 10.0000000  0  9G22G21G 3G19G18G 1G14G31G 9
  21011107.0854    -139943.21649   -110737.73347  21011106.8934   21011108.6364
       243.0004        208.0004
  23437140.0534    3415156.63049   2647458.27945  23437139.6464   23437144.3014
       219.0004        153.0004
  22956137.3054    1602012.36649   1244266.20546  22956136.7674   22956142.6324
       225.0004        172.0004
  22473150.1134   -1219993.42649   -947435.58147  22473149.3824   22473152.0954
       229.0004        188.0004
  22696052.6504    1515609.25549   1172752.97346  22696052.4804   22696055.6974
       225.0004        174.0004
  22354847.2514   -4904114.18149  -3801897.07446  22354847.2914   22354852.2624
       230.0004        183.0004
  20296477.6444   -1709979.05449  -1326832.44447  20296477.1614   20296480.4074
       237.0004        212.0004
  24086108.3584   -3167092.27649  -2442581.41745  24086108.4144   24086112.9344
       212.0004        159.0004
  23737594.8854    1441464.60449   1115203.70545  23737595.3354   23737599.7594
       206.0004        144.0004
 07  2 18  0 52 15.0000000  0  9G22G21G 3G19G18G 1G14G31G 9
  21011761.5554    -136503.96449   -108057.80047  21011761.2804   21011763.1224
       243.0004        208.0004
  23440326.2494    3431900.17449   2660505.18945  23440326.1704   23440329.9664
       217.0004        153.0004
  22958129.0114    1612478.72549   1252421.80746  22958129.1584   22958134.2154
       225.0004        172.0004
  22473349.0004   -1218948.28549   -946621.19147  22473347.6354   22473350.8674
       229.0004        188.0004
  22697812.0124    1524854.85949   1179957.31546  22697811.2124   22697815.4704
       227.0004        174.0004
  22352339.4374   -4917292.94849  -3812166.23546  22352338.9284   22352344.3684
       230.0004        183.0004
  20296296.5784   -1710930.56149  -1327573.87847  20296296.1474   20296299.5974
       237.0004        212.0004
  24082846.4414   -3184233.64649  -2455938.31045  24082846.1634   24082851.4734
       209.0004        159.0004
  23739636.8814    1452195.33249   1123565.31745  23739636.8314   23739642.5724
       206.0004        144.0004
 07  2 18  0 52 20.0000000  0  9G22G21G 3G19G18G 1G14G31G 9
  21012416.8114    -133060.52949   -105374.59947  21012416.7774   21012418.5544
       244.0004        208.0004
  23443513.7104    3448650.32349   2673557.25845  23443512.6044   23443516.2074
       216.0004        152.0004
  22960122.2714    1622953.46849   1260583.94946  22960121.5194   22960127.0734
       226.0004        172.0004
  22473550.7234   -1217888.16749   -945795.11647  22473549.4254   22473553.0314
       229.0004        188.0004
  22699571.9084    1534103.32649   1187163.93346  22699571.2644   22699575.6704
       225.0004        174.0004
  22349833.3684   -4930462.45349  -3822428.17846  22349832.7234   22349838.6524
       230.0004        183.0004
  20296118.0404   -1711868.62149  -1328304.82747  20296117.5304   20296120.8744
       237.0004        212.0004
  24079584.5104   -3201375.13149  -2469295.28645  24079584.0014   24079589.8174
       210.0004        158.0004
  23741681.6874    1462940.83049   1131938.42745  23741681.4464   23741686.8794
       207.0004        144.0004
 07  2 18  0 52 25.0000000  0  9G22G21G 3G19G18G 1G14G31G 9
  21013072.8594    -129612.92549   -102688.15647  21013072.9024   21013074.5564
       243.0004        208.0004
  23446702.4364    3465407.08049   2686614.46745  23446701.5864   23446706.3344
       216.0004        151.0004
  22962117.1324    1633436.48949   1268752.52846  22962117.0874   22962122.0004
       226.0004        172.0004
  22473755.3184   -1216813.07749   -944957.38846  22473754.0944   22473757.7834
       228.0004        187.0004
  22701332.3624    1543354.70449   1194372.78646  22701332.7844   22701335.3664
       226.0004        173.0004
  22347329.0254   -4943622.72149  -3832682.92546  22347328.1074   22347334.2904
       229.0004        183.0004
  20295942.0874   -1712793.25749  -1329025.32547  20295941.7024   20295944.9544
       237.0004        212.0004
  24076322.5414   -3218516.81649  -2482652.40545  24076321.8994   24076327.1544
       209.0004        157.0004
  23743729.3164    1473701.12349   1140323.06745  23743729.9884   23743733.5754
       207.0004        144.0004
 07  2 18  0 52 30.0000000  0  9G22G21G 3G19G18G 1G14G31G 9
  21013729.7104    -126161.23549    -99998.52547  21013729.5384   21013731.4714
       244.0004        208.0004
  23449892.3864    3482170.31849   2699676.72945  23449891.8884   23449896.5434
       216.0004        151.0004
  22964113.5904    1643927.80349   1276927.57646  22964113.4954   22964119.0534
       225.0004        172.0004
  22473962.7164   -1215723.11649   -944108.06946  22473961.3704   22473964.8754
       228.0004        187.0004
  22703093.3824    1552608.85549   1201583.82746  22703092.2364   22703096.7054
       226.0004        173.0004
  22344826.4434   -4956773.85249  -3842930.55246  22344825.6194   22344831.9354
       229.0004        182.0004
  20295768.6694   -1713704.61349  -1329735.46947  20295768.0624   20295771.7224
       237.0004        212.0004
  24073060.5154   -3235658.78149  -2496009.75545  24073060.5774   24073065.4184
       209.0004        157.0004
  23745779.7584    1484476.14049   1148719.19245  23745780.6884   23745783.2364
       207.0004        144.0004
 07  2 18  0 52 35.0000000  0  9G22G21G 3G19G18G 1G14G31G 9
  21014387.3174    -122705.44249    -97305.69747  21014387.3424   21014388.9114
       243.0004        208.0004
  23453083.5714    3498940.05349   2712744.04645  23453084.1684   23453087.1614
       215.0004        151.0004
  22966111.6084    1654427.40949   1285109.08346  22966111.6124   22966116.3524
       225.0004        172.0004
  22474172.9354   -1214618.31049   -943247.18146  22474172.1844   22474174.8964
       229.0004        187.0004
  22704854.9224    1561865.82249   1208797.03546  22704854.5964   22704858.2434
       226.0004        173.0004
  22342325.6194   -4969915.81849  -3853171.03746  22342324.8704   22342330.7304
       229.0004        183.0004
  20295597.7754   -1714602.63449  -1330435.22047  20295597.3904   20295600.6284
       237.0004        212.0004
  24069798.4444   -3252800.98749  -2509367.28145  24069798.0264   24069803.4124
       207.0004        156.0004
  23747832.9984    1495265.77649   1157126.69245  23747833.3974   23747836.8484
       206.0004        144.0004
 07  2 18  0 52 40.0000000  0  9G22G21G 3G19G18G 1G14G31G 9
  21015045.7644    -119245.31949    -94609.49747  21015045.6874   21015047.4534
       243.0004        208.0004
  23456276.0244    3515716.46149   2725816.57645  23456276.2984   23456279.2044
       215.0004        150.0004
  22968111.2424    1664935.52549   1293297.22946  22968110.8984   22968116.1624
       225.0004        172.0004
  22474386.0614   -1213498.40549   -942374.52546  22474384.6774   22474388.2704
       229.0004        187.0004
  22706617.0334    1571125.84549   1216012.64246  22706616.7164   22706620.0744
       226.0004        173.0004
  22339826.5494   -4983048.38349  -3863404.19246  22339826.3104   22339831.6164
       230.0004        182.0004
  20295429.4884   -1715487.09949  -1331124.41247  20295428.9374   20295432.3404
       236.0004        212.0004
  24066536.3774   -3269943.17249  -2522724.79845  24066535.5644   24066541.5944
       208.0004        155.0004
  23749889.0634    1506070.37649   1165545.85945  23749888.3544   23749893.3714
       204.0004        144.0004
 07  2 18  0 52 45.0000000  0  9G22G21G 3G19G18G 1G14G31G 9
  21015704.9584    -115781.18949    -91910.17347  21015704.8104   21015706.5474
       243.0004        208.0004
  23459469.6854    3532499.28749   2738894.10745  23459469.6874   23459473.0494
       214.0004        150.0004
  22970112.4204    1675451.77549   1301491.70146  22970111.8024   22970117.1334
       225.0004        172.0004
  22474601.9824   -1212363.76649   -941490.39446  22474600.7084   22474604.2364
       229.0004        187.0004
  22708379.6914    1580388.61649   1223230.37446  22708379.1964   22708382.5904
       226.0004        173.0004
  22337329.2264   -4996171.85649  -3873630.27246  22337329.0694   22337333.7914
       230.0004        182.0004
  20295263.6774   -1716358.34849  -1331803.30447  20295263.2124   20295266.6654
       237.0004        212.0004
  24063274.2574   -3287085.56849  -2536082.47545  24063274.0024   24063279.0904
       207.0004        155.0004
  23751947.8664    1516889.51249   1173976.34545  23751947.4194   23751952.5034
       207.0004        144.0004
 07  2 18  0 52 50.0000000  0  9G22G21G 3G19G18G 1G14G31G 9
  21016365.0034    -112312.67749    -89207.43347  21016364.6834   21016366.4544
       243.0004        208.0004
  23462664.6364    3549288.86549   2751976.89245  23462663.5864   23462668.8904
       214.0004        149.0004
  22972115.2134    1685976.45549   1309692.74546  22972114.9264   22972119.6434
       225.0004        172.0004
  22474820.7444   -1211214.01449   -940594.48146  22474819.9464   22474822.9394
       229.0004        187.0004
  22710142.9334    1589654.46849   1230450.51246  22710142.3364   22710146.0104
       226.0004        173.0004
  22334833.7064   -5009285.90449  -3883849.00746  22334832.9974   22334838.0524
       229.0004        183.0004
  20295100.4614   -1717215.99349  -1332471.59647  20295100.0054   20295103.3384
       237.0004        212.0004
  24060012.1204   -3304227.89349  -2549440.10645  24060011.5414   24060017.8954
       208.0004        154.0004
  23754009.5464    1527723.55249   1182418.45545  23754009.6614   23754013.9764
       209.0004        145.0004
 07  2 18  0 52 55.0000000  0  9G22G21G 3G19G18G 1G14G31G 9
  21017025.7844    -108840.19749    -86501.60847  21017025.7864   21017027.4604
       243.0004        208.0004
  23465860.7594    3566084.75549   2765064.58745  23465859.4344   23465864.9944
       213.0004        149.0004
  22974119.5234    1696509.18949   1317900.06646  22974119.7584   22974124.3254
       224.0004        172.0004
  22475042.3424   -1210049.56249   -939687.11746  22475041.6724   22475044.2394
       228.0004        187.0004
  22711906.7004    1598922.99849   1237672.75146  22711906.9144   22711909.2634
       226.0004        173.0004
  22332339.9044   -5022390.87149  -3894060.66246  22332339.5934   22332344.7764
       230.0004        183.0004
  20294939.7794   -1718060.46649  -1333129.62547  20294939.2864   20294942.7874
       237.0004        212.0004
  24056749.9164   -3321370.56649  -2562798.00345  24056749.0794   24056755.5494
       208.0004        153.0004
  23756073.9684    1538572.11449   1190871.88345  23756074.3324   23756078.2564
       208.0004        145.0004
 07  2 18  0 53  0.0000000  0  9G22G21G 3G19G18G 1G14G31G 9
  21017687.3874    -105363.45949    -83792.45947  21017687.0984   21017688.9254
       243.0004        208.0004
  23469058.1664    3582887.28549   2778157.46045  23469057.9794   23469062.0964
       213.0004        149.0004
  22976125.4074    1707050.28849   1326113.91646  22976124.4404   22976130.6524
       225.0004        172.0004
  22475266.7464   -1208870.11249   -938768.06546  22475265.9774   22475269.0004
       229.0004        187.0004
  22713671.0354    1608194.52749   1244897.32146  22713670.1434   22713673.8934
       227.0004        173.0004
  22329847.8914   -5035486.45749  -3904265.00546  22329847.5684   22329853.0124
       230.0004        183.0004
  20294781.6364   -1718891.47049  -1333777.15847  20294781.2654   20294784.5804
       236.0004        212.0004
  24053487.7604   -3338513.19149  -2576155.86145  24053487.3074   24053492.9534
       208.0004        153.0004
  23758141.2384    1549435.48849   1199336.84545  23758140.6814   23758144.8064
       207.0004        145.0004
 07  2 18  0 53  5.0000000  0  9G22G21G 3G19G18G 1G14G31G 9
  21018349.7424    -101882.64649    -81080.13447  21018349.6094   21018351.1534
       243.0004        208.0004
  23472256.7754    3599696.24849   2791255.34445  23472256.4054   23472260.4464
       214.0004        149.0004
  22978132.8584    1717599.52949   1334334.09746  22978132.1204   22978138.3564
       225.0004        172.0004
  22475494.0174   -1207675.82949   -937837.45446  22475493.5204   22475496.3494
       229.0004        187.0004
  22715435.9124    1617468.88149   1252124.08746  22715435.5614   22715438.8834
       225.0004        173.0004
  22327357.6424   -5048572.85149  -3914462.19146  22327357.1924   22327362.0404
       230.0004        183.0004
  20294626.0224   -1719709.19149  -1334414.34047  20294625.6134   20294628.9174
       237.0004        212.0004
  24050225.5634   -3355656.00349  -2589513.87145  24050225.8654   24050230.3264
       207.0004        152.0004
  23760211.2204    1560313.43249   1207813.16445  23760209.9694   23760214.5094
       206.0004        144.0004
 07  2 18  0 53 10.0000000  0  9G22G21G 3G19G18G 1G14G31G 9
  21019012.9274     -98397.57949    -78364.49947  21019012.8404   21019014.6504
       243.0004        208.0004
  23475456.6664    3616511.83949   2804358.40045  23475456.4204   23475461.4744
       213.0004        149.0004
  22980141.9014    1728157.14849   1342560.80946  22980141.6894   22980146.5354
       226.0004        172.0004
  22475724.1364   -1206466.46549   -936895.09446  22475723.5804   22475726.4294
       230.0004        187.0004
  22717201.3314    1626746.22149   1259353.19146  22717201.1294   22717204.1734
       226.0004        173.0004
  22324869.1754   -5061649.87249  -3924652.06846  22324868.8554   22324874.1174
       230.0004        183.0004
  20294472.9674   -1720513.44349  -1335041.03147  20294472.4494   20294475.8484
       236.0004        212.0004
  24046963.3964   -3372798.76449  -2602871.83645  24046963.5544   24046967.9274
       206.0004        151.0004
  23762284.0364    1571206.17849   1216301.02545  23762283.5134   23762287.4314
       208.0004        145.0004
 07  2 18  0 53 15.0000000  0  9G22G21G 3G19G18G 1G14G31G 9
  21019676.8844     -94908.41249    -75645.66747  21019676.8804   21019678.5694
       244.0004        208.0004
  23478657.7674    3633333.88649   2817466.47245  23478656.4944   23478661.8434
       211.0004        149.0004
  22982152.4984    1738722.88049   1350793.84946  22982152.0674   22982157.1574
       225.0004        172.0004
  22475957.1004   -1205242.27749   -935941.18346  22475956.0394   22475959.2694
       228.0004        187.0004
  22718967.2834    1636026.41349   1266584.49046  22718967.0264   22718970.8304
       225.0004        173.0004
  22322382.4604   -5074717.67849  -3934834.76946  22322382.1964   22322387.3994
       230.0004        183.0004
  20294322.4524   -1721304.41549  -1335657.36947  20294321.9834   20294325.4924
       236.0004        212.0004
  24043701.1704   -3389941.67349  -2616229.92645  24043700.4634   24043705.6144
       207.0004        150.0004
  23764359.6234    1582113.52149   1224800.26345  23764359.9364   23764363.8364
       209.0004        145.0004
 07  2 18  0 53 20.0000000  0  9G22G21G 3G19G18G 1G14G31G 9
  21020341.6504     -91415.13949    -72923.63147  21020341.5204   21020343.2664
       243.0004        208.0004
  23481860.0914    3650162.35049   2830579.55945  23481859.2674   23481863.8594
       210.0004        148.0004
  22984164.6364    1749296.78849   1359033.25546  22984163.4654   22984169.9974
       225.0004        172.0004
  22476192.8764   -1204003.25249   -934975.70646  22476191.8264   22476194.9744
       228.0004        187.0004
  22720733.7804    1645309.37449   1273817.97446  22720733.1944   22720736.3714
       228.0004        173.0004
  22319897.4924   -5087776.25649  -3945010.27246  22319896.8874   22319902.3944
       229.0004        183.0004
  20294174.4694   -1722081.99049  -1336263.26647  20294174.0064   20294177.3784
       237.0004        212.0004
  24040438.9294   -3407084.78349  -2629588.16245  24040438.7214   24040443.3444
       208.0004        149.0004
  23766437.9974    1593035.42149   1233310.84045  23766438.8174   23766442.4614
       206.0004        145.0004
 07  2 18  0 53 25.0000000  0  9G22G21G 3G19G18G 1G14G31G 9
  21021007.1894     -87917.62449    -70198.29947  21021007.0304   21021008.7974
       243.0004        208.0004
  23485063.6734    3666997.40749   2843697.76745  23485063.1494   23485067.1374
       211.0004        148.0004
  22986178.3614    1759878.99949   1367279.13946  22986178.7304   22986183.0134
       225.0004        172.0004
  22476431.4884   -1202749.21449   -933998.53346  22476430.3414   22476433.4734
       228.0004        187.0004
  22722500.8124    1654595.33749   1281053.78846  22722500.8904   22722503.9544
       225.0004        173.0004
  22317414.3094   -5100825.46149  -3955178.48346  22317413.8264   22317419.2934
       229.0004        183.0004
  20294029.0714   -1722846.11049  -1336858.68547  20294028.6364   20294032.0594
       237.0004        212.0004
  24037176.6584   -3424227.83549  -2642946.36245  24037177.3684   24037180.5834
       208.0004        149.0004
  23768519.1924    1603972.06049   1241832.89345  23768518.3274   23768523.3414
       205.0004        145.0004
 07  2 18  0 53 30.0000000  0  9G22G21G 3G19G18G 1G14G31G 9
  21021673.5514     -84416.02849    -67469.78547  21021673.4684   21021675.0784
       243.0004        208.0004
  23488268.4624    3683838.87249   2856820.97645  23488267.1514   23488272.7704
       212.0004        148.0004
  22988193.6454    1770469.37449   1375531.36946  22988193.4854   22988197.6484
       226.0004        172.0004
  22476672.9394   -1201480.32149   -933009.78546  22476671.7344   22476675.3924
       228.0004        187.0004
  22724268.4224    1663884.19449   1288291.85846  22724267.7474   22724272.0434
       227.0004        173.0004
  22314932.8924   -5113865.39949  -3965339.46546  22314932.4744   22314937.9904
       229.0004        183.0004
  20293886.2024   -1723596.94149  -1337443.74647  20293885.9054   20293889.1774
       237.0004        212.0004
  24033914.4274   -3441370.90649  -2656304.57645  24033914.5774   24033918.4814
       208.0004        148.0004
  23770603.1124    1614923.30849   1250366.32845  23770602.6644   23770608.0964
       206.0004        145.0004
 07  2 18  0 53 35.0000000  0  9G22G21G 3G19G18G 1G14G31G 9
  21022340.6814     -80910.14749    -64737.92247  21022340.5664   21022342.3414
       244.0004        208.0004
  23491474.5654    3700686.93449   2869949.32645  23491475.0804   23491478.4244
       213.0004        148.0004
  22990210.4924    1781068.00149   1383790.04446  22990210.1594   22990215.3494
       225.0004        172.0004
  22476917.2234   -1200196.43349   -932009.35846  22476916.3354   22476919.5364
       229.0004        187.0004
  22726036.5834    1673176.03949   1295532.26646  22726035.5634   22726040.0854
       225.0004        173.0004
  22312453.2344   -5126895.92149  -3975493.10746  22312452.4114   22312458.6664
       230.0004        183.0004
  20293745.8624   -1724334.32749  -1338018.32847  20293745.3924   20293748.7974
       236.0004        212.0004
  24030652.1984   -3458513.86049  -2669662.69945  24030651.4864   24030657.0704
       210.0004        147.0004
  23772689.8244    1625889.28349   1258911.24545  23772689.8194   23772693.9704
       208.0004        145.0004
 07  2 18  0 53 40.0000000  0  9G22G21G 3G19G18G 1G14G31G 9
  21023008.6284     -77400.18149    -62002.88547  21023008.3544   21023010.1734
       243.0004        208.0004
  23494681.8734    3717541.34949   2883082.64645  23494682.8304   23494684.9914
       214.0004        148.0004
  22992228.8854    1791674.68049   1392054.97946  22992227.7624   22992233.9454
       225.0004        172.0004
  22477164.3564   -1198897.76849   -930997.41146  22477163.6034   22477166.8964
       228.0004        187.0004
  22727805.2744    1682470.71249   1302774.86546  22727804.8784   22727808.5664
       226.0004        173.0004
  22309975.3374   -5139917.23949  -3985639.58046  22309975.0764   22309980.6484
       230.0004        183.0004
  20293608.0774   -1725058.48149  -1338582.60347  20293607.7884   20293611.0354
       237.0004        212.0004
  24027389.9634   -3475656.88249  -2683020.87045  24027389.7744   24027395.9454
       208.0004        147.0004
  23774779.3364    1636869.79349   1267467.48745  23774779.9424   23774783.6584
       208.0004        145.0004
 07  2 18  0 53 45.0000000  0  9G22G21G 3G19G18G 1G14G31G 9
  21023677.3554     -73886.03549    -59264.58947  21023677.1614   21023679.0504
       244.0004        208.0004
  23497890.4634    3734402.31649   2896221.07245  23497891.1184   23497894.9784
       214.0004        148.0004
  22994248.8364    1802289.48849   1400326.26446  22994248.7234   22994254.2384
       225.0004        172.0004
  22477414.3014   -1197584.18849   -929973.84446  22477413.4504   22477417.1444
       228.0004        187.0004
  22729574.5514    1691768.31549   1310019.75246  22729574.2534   22729578.2404
       226.0004        173.0004
  22307499.2344   -5152929.17649  -3995778.74046  22307498.8504   22307504.5764
       230.0004        183.0004
  20293472.8044   -1725769.26049  -1339136.45547  20293472.5214   20293475.8604
       237.0004        212.0004
  24024127.7324   -3492799.80749  -2696378.97845  24024127.2534   24024132.3544
       210.0004        147.0004
  23776871.6474    1647864.98749   1276035.17745  23776872.3744   23776875.5194
       208.0004        145.0004
 07  2 18  0 53 50.0000000  0  9G22G21G 3G19G18G 1G14G31G 9
  21024346.8524     -70367.77649    -56523.08747  21024346.7184   21024348.5334
       243.0004        208.0004
  23501100.2314    3751269.69949   2909364.48945  23501100.0074   23501104.3414
       212.0004        148.0004
  22996270.3104    1812912.31549   1408603.78446  22996270.5234   22996274.7814
       226.0004        172.0004
  22477667.0874   -1196255.78549   -928938.72546  22477666.2954   22477669.4834
       229.0004        187.0004
  22731344.3724    1701068.77349   1317266.85246  22731343.2694   22731347.1044
       225.0004        173.0004
  22305024.9194   -5165931.85949  -4005910.69346  22305024.8434   22305030.1144
       231.0004        183.0004
  20293340.0604   -1726466.78549  -1339679.97547  20293339.6534   20293343.0394
       236.0004        212.0004
  24020865.4944   -3509942.75649  -2709737.09845  24020864.1024   24020869.0554
       212.0004        146.0004
  23778966.7394    1658874.69949   1284614.18145  23778967.2934   23778970.9714
       207.0004        145.0004
 07  2 18  0 53 55.0000000  0  9G22G21G 3G19G18G 1G14G31G 9
  21025017.1604     -66845.27549    -53778.28047  21025016.9644   21025018.6924
       243.0004        208.0004
  23504311.2444    3768143.55449   2922512.94445  23504310.6644   23504315.9834
       210.0004        148.0004
  22998293.3424    1823543.29249   1416887.66046  22998293.3734   22998298.3554
       224.0004        172.0004
  22477922.7354   -1194912.44949   -927891.96646  22477922.0784   22477924.9484
       229.0004        187.0004
  22733114.7544    1710372.15549   1324516.23046  22733114.4724   22733118.1714
       226.0004        173.0004
  22302552.3684   -5178925.15149  -4016035.33446  22302551.8254   22302558.1544
       229.0004        183.0004
  20293209.8724   -1727150.94249  -1340213.08447  20293209.3344   20293212.9054
       237.0004        212.0004
  24017603.3054   -3527085.61749  -2723095.16045  24017603.3194   24017607.1014
       211.0004        146.0004
  23781064.5764    1669899.06749   1293204.59945  23781064.5824   23781069.2964
       206.0004        145.0004
 07  2 18  0 54  0.0000000  0  9G22G21G 3G19G18G 1G14G31G 9
  21025688.2514     -63318.69149    -51030.29547  21025687.9294   21025689.8254
       243.0004        208.0004
  23507523.4564    3785023.76549   2935666.34645  23507522.7614   23507528.1574
       208.0004        147.0004
  23000317.8954    1834182.32649   1425177.81046  23000318.2614   23000322.9044
       224.0004        172.0004
  22478181.2084   -1193554.34549   -926833.70146  22478180.5594   22478183.5204
       229.0004        187.0004
  22734885.6534    1719678.36149   1331767.81746  22734885.1674   22734888.4024
       226.0004        173.0004
  22300081.5844   -5191909.18949  -4026152.75546  22300080.8754   22300086.8004
       231.0004        183.0004
  20293082.2174   -1727821.84649  -1340735.86547  20293081.8324   20293085.0374
       236.0004        212.0004
  24014341.1064   -3544228.42949  -2736453.18545  24014341.0684   24014344.3364
       212.0004        145.0004
  23783165.1904    1680937.91549   1301806.29545  23783164.9874   23783170.8114
       209.0004        145.0004
 07  2 18  0 54  5.0000000  0  9G22G21G 3G19G18G 1G14G31G 9
  21026360.1334     -59787.98049    -48279.08847  21026360.1844   21026361.5124
       243.0004        208.0004
  23510736.8174    3801910.35049   2948824.70445  23510735.4874   23510741.2464
       208.0004        147.0004
  23002343.9774    1844829.45049   1433474.27746  23002343.1494   23002349.9684
       225.0004        172.0004
  22478442.4744   -1192181.39149   -925763.87246  22478441.5294   22478444.6284
       229.0004        187.0004
  22736657.1054    1728987.38549   1339021.60646  22736657.0604   22736659.4114
       225.0004        173.0004
  22297612.5544   -5204883.95249  -4036262.95146  22297612.2644   22297617.4474
       230.0004        183.0004
  20292957.0794   -1728479.50949  -1341248.32447  20292956.5194   20292959.9924
       236.0004        212.0004
  24011078.9514   -3561371.21349  -2749811.18345  24011079.2664   24011081.5054
       213.0004        146.0004
  23785268.5654    1691991.29049   1310419.31845  23785268.4814   23785274.2774
       207.0004        145.0004
 07  2 18  0 54 10.0000000  0  9G22G21G 3G19G18G 1G14G31G 9
  21027032.8044     -56252.97549    -45524.53747  21027032.8584   21027034.3384
       243.0004        208.0004
  23513951.4184    3818803.41849   2961988.10945  23513949.6214   23513955.9684
       209.0004        146.0004
  23004371.5784    1855484.69349   1441777.05746  23004371.2754   23004377.0584
       224.0004        172.0004
  22478706.6224   -1190793.47649   -924682.38046  22478705.5564   22478709.0334
       229.0004        187.0004
  22738429.1174    1738299.42549   1346277.74446  22738428.4144   22738431.8654
       225.0004        173.0004
  22295145.3314   -5217849.27049  -4046365.78946  22295145.3924   22295149.7424
       231.0004        184.0004
  20292834.4704   -1729123.75149  -1341750.32747  20292833.9934   20292837.4254
       236.0004        212.0004
  24007816.8064   -3578513.81349  -2763169.03745  24007817.4644   24007820.8514
       213.0004        146.0004
  23787374.7404    1703059.34849   1319043.78345  23787373.9844   23787379.9544
       208.0004        145.0004
 07  2 18  0 54 15.0000000  0  9G22G21G 3G19G18G 1G14G31G 9
  21027706.2814     -52713.85349    -42766.78147  21027706.2524   21027707.6834
       243.0004        208.0004
  23517167.2334    3835702.88749   2975156.51345  23517166.5744   23517170.5294
       207.0004        146.0004
  23006400.7534    1866148.02849   1450086.14646  23006400.2714   23006405.9734
       224.0004        172.0004
  22478973.5644   -1189390.72049   -923589.32446  22478972.2814   22478975.4944
       228.0004        187.0004
  22740201.7014    1747614.31249   1353536.09446  22740200.9964   22740204.3004
       226.0004        173.0004
  22292679.9264   -5230805.27549  -4056461.36946  22292679.9294   22292684.6384
       231.0004        184.0004
  20292714.4054   -1729754.67549  -1342241.95647  20292713.7774   20292717.5634
       236.0004        212.0004
  24004554.6594   -3595656.34149  -2776526.83245  24004555.4224   24004559.6844
       214.0004        147.0004
  23789483.6904    1714141.92749   1327679.56745  23789482.2444   23789488.2224
       207.0004        145.0004
 07  2 18  0 54 20.0000000  0  9G22G21G 3G19G18G 1G14G31G 9
  21028380.5274     -49170.66349    -40005.85347  21028380.3654   21028382.0144
       243.0004        208.0004
  23520384.2304    3852608.64249   2988329.82445  23520382.9584   23520387.8254
       209.0004        145.0004
  23008431.4174    1876819.31149   1458401.43346  23008430.9754   23008436.0354
       223.0004        171.0004
  22479243.3024   -1187973.22149   -922484.77746  22479242.4544   22479245.7834
       229.0004        187.0004
  22741974.7874    1756931.95449   1360796.61046  22741973.8794   22741977.4664
       226.0004        173.0004
  22290216.2594   -5243752.01849  -4066549.72646  22290215.9354   22290221.3944
       231.0004        184.0004
  20292596.8674   -1730372.39949  -1342723.29347  20292596.4384   20292599.9094
       237.0004        212.0004
  24001292.5324   -3612798.83049  -2789884.59945  24001293.3204   24001297.3184
       214.0004        147.0004
  23791595.3724    1725238.98249   1336326.62745  23791594.0424   23791600.9444
       207.0004        145.0004
